<?xml version="1.0" encoding="UTF-8" standalone="no" ?>
<gpx xmlns="http://www.topografix.com/GPX/1/1" xmlns:xsi="http://www.w3.org/2001/XMLSchema-instance" xsi:schemaLocation="http://www.topografix.com/GPX/1/1 http://www.topografix.com/GPX/1/1/gpx.xsd" version="1.1" creator="VisuGPX - https://www.visugpx.com">
  <metadata>
    <name>Champagnat Cyclisme sur route</name>
  </metadata>
  <trk>
    <name><![CDATA[Champagnat Cyclisme sur route_1]]></name>
    <trkseg>
      <trkpt lat="46.4827" lon="5.36836">
        <ele>266.8</ele>
        <time>2022-01-14T12:20:17Z</time>
      </trkpt>
      <trkpt lat="46.48261" lon="5.36824">
        <ele>266.2</ele>
        <time>2022-01-14T12:20:18Z</time>
      </trkpt>
      <trkpt lat="46.48252" lon="5.36813">
        <ele>265.4</ele>
        <time>2022-01-14T12:20:19Z</time>
      </trkpt>
      <trkpt lat="46.48232" lon="5.36796">
        <ele>264.4</ele>
        <time>2022-01-14T12:20:21Z</time>
      </trkpt>
      <trkpt lat="46.48221" lon="5.36788">
        <ele>263</ele>
        <time>2022-01-14T12:20:22Z</time>
      </trkpt>
      <trkpt lat="46.48201" lon="5.36771">
        <ele>261.4</ele>
        <time>2022-01-14T12:20:24Z</time>
      </trkpt>
      <trkpt lat="46.4818" lon="5.36755">
        <ele>259.8</ele>
        <time>2022-01-14T12:20:26Z</time>
      </trkpt>
      <trkpt lat="46.48159" lon="5.36739">
        <ele>258.4</ele>
        <time>2022-01-14T12:20:28Z</time>
      </trkpt>
      <trkpt lat="46.4814" lon="5.36724">
        <ele>257</ele>
        <time>2022-01-14T12:20:30Z</time>
      </trkpt>
      <trkpt lat="46.48132" lon="5.36717">
        <ele>255.8</ele>
        <time>2022-01-14T12:20:31Z</time>
      </trkpt>
      <trkpt lat="46.48124" lon="5.36711">
        <ele>255.4</ele>
        <time>2022-01-14T12:20:32Z</time>
      </trkpt>
      <trkpt lat="46.48117" lon="5.36705">
        <ele>254.4</ele>
        <time>2022-01-14T12:20:33Z</time>
      </trkpt>
      <trkpt lat="46.48107" lon="5.36694">
        <ele>253</ele>
        <time>2022-01-14T12:20:35Z</time>
      </trkpt>
      <trkpt lat="46.48109" lon="5.36678">
        <ele>251.4</ele>
        <time>2022-01-14T12:20:37Z</time>
      </trkpt>
      <trkpt lat="46.48114" lon="5.36672">
        <ele>250.6</ele>
        <time>2022-01-14T12:20:38Z</time>
      </trkpt>
      <trkpt lat="46.48121" lon="5.36667">
        <ele>250.4</ele>
        <time>2022-01-14T12:20:39Z</time>
      </trkpt>
      <trkpt lat="46.48134" lon="5.36655">
        <ele>249.6</ele>
        <time>2022-01-14T12:20:41Z</time>
      </trkpt>
      <trkpt lat="46.48139" lon="5.36647">
        <ele>249</ele>
        <time>2022-01-14T12:20:42Z</time>
      </trkpt>
      <trkpt lat="46.48167" lon="5.36615">
        <ele>247.4</ele>
        <time>2022-01-14T12:20:46Z</time>
      </trkpt>
      <trkpt lat="46.48184" lon="5.36607">
        <ele>247.2</ele>
        <time>2022-01-14T12:20:48Z</time>
      </trkpt>
      <trkpt lat="46.48199" lon="5.36603">
        <ele>247</ele>
        <time>2022-01-14T12:20:50Z</time>
      </trkpt>
      <trkpt lat="46.48212" lon="5.36596">
        <ele>246.8</ele>
        <time>2022-01-14T12:20:52Z</time>
      </trkpt>
      <trkpt lat="46.48218" lon="5.36589">
        <ele>246.8</ele>
        <time>2022-01-14T12:20:53Z</time>
      </trkpt>
      <trkpt lat="46.48221" lon="5.36579">
        <ele>246.8</ele>
        <time>2022-01-14T12:20:54Z</time>
      </trkpt>
      <trkpt lat="46.48227" lon="5.36561">
        <ele>246.4</ele>
        <time>2022-01-14T12:20:56Z</time>
      </trkpt>
      <trkpt lat="46.4825" lon="5.36532">
        <ele>246</ele>
        <time>2022-01-14T12:21:00Z</time>
      </trkpt>
      <trkpt lat="46.48263" lon="5.36519">
        <ele>245.6</ele>
        <time>2022-01-14T12:21:02Z</time>
      </trkpt>
      <trkpt lat="46.48294" lon="5.36486">
        <ele>245</ele>
        <time>2022-01-14T12:21:07Z</time>
      </trkpt>
      <trkpt lat="46.483" lon="5.36479">
        <ele>244.8</ele>
        <time>2022-01-14T12:21:08Z</time>
      </trkpt>
      <trkpt lat="46.48312" lon="5.36466">
        <ele>244.4</ele>
        <time>2022-01-14T12:21:10Z</time>
      </trkpt>
      <trkpt lat="46.48337" lon="5.36438">
        <ele>243.2</ele>
        <time>2022-01-14T12:21:14Z</time>
      </trkpt>
      <trkpt lat="46.48363" lon="5.36411">
        <ele>242.2</ele>
        <time>2022-01-14T12:21:18Z</time>
      </trkpt>
      <trkpt lat="46.48369" lon="5.36404">
        <ele>242.2</ele>
        <time>2022-01-14T12:21:19Z</time>
      </trkpt>
      <trkpt lat="46.48388" lon="5.36385">
        <ele>241.4</ele>
        <time>2022-01-14T12:21:22Z</time>
      </trkpt>
      <trkpt lat="46.48394" lon="5.36379">
        <ele>241</ele>
        <time>2022-01-14T12:21:23Z</time>
      </trkpt>
      <trkpt lat="46.48413" lon="5.36362">
        <ele>240.2</ele>
        <time>2022-01-14T12:21:26Z</time>
      </trkpt>
      <trkpt lat="46.48425" lon="5.36356">
        <ele>240</ele>
        <time>2022-01-14T12:21:28Z</time>
      </trkpt>
      <trkpt lat="46.4844" lon="5.3635">
        <ele>239.6</ele>
        <time>2022-01-14T12:21:30Z</time>
      </trkpt>
      <trkpt lat="46.48448" lon="5.36349">
        <ele>239.6</ele>
        <time>2022-01-14T12:21:31Z</time>
      </trkpt>
      <trkpt lat="46.48489" lon="5.36342">
        <ele>239</ele>
        <time>2022-01-14T12:21:37Z</time>
      </trkpt>
      <trkpt lat="46.48496" lon="5.36341">
        <ele>239</ele>
        <time>2022-01-14T12:21:38Z</time>
      </trkpt>
      <trkpt lat="46.48551" lon="5.36333">
        <ele>238.2</ele>
        <time>2022-01-14T12:21:46Z</time>
      </trkpt>
      <trkpt lat="46.48571" lon="5.36329">
        <ele>238</ele>
        <time>2022-01-14T12:21:49Z</time>
      </trkpt>
      <trkpt lat="46.48593" lon="5.36325">
        <ele>237.8</ele>
        <time>2022-01-14T12:21:52Z</time>
      </trkpt>
      <trkpt lat="46.48608" lon="5.36323">
        <ele>237.2</ele>
        <time>2022-01-14T12:21:54Z</time>
      </trkpt>
      <trkpt lat="46.48615" lon="5.3632">
        <ele>237</ele>
        <time>2022-01-14T12:21:55Z</time>
      </trkpt>
      <trkpt lat="46.48622" lon="5.36315">
        <ele>237</ele>
        <time>2022-01-14T12:21:56Z</time>
      </trkpt>
      <trkpt lat="46.48632" lon="5.36297">
        <ele>236.4</ele>
        <time>2022-01-14T12:21:58Z</time>
      </trkpt>
      <trkpt lat="46.48636" lon="5.36273">
        <ele>235.8</ele>
        <time>2022-01-14T12:22:00Z</time>
      </trkpt>
      <trkpt lat="46.48639" lon="5.36248">
        <ele>234.8</ele>
        <time>2022-01-14T12:22:02Z</time>
      </trkpt>
      <trkpt lat="46.4864" lon="5.36236">
        <ele>234</ele>
        <time>2022-01-14T12:22:03Z</time>
      </trkpt>
      <trkpt lat="46.48643" lon="5.36199">
        <ele>232.6</ele>
        <time>2022-01-14T12:22:06Z</time>
      </trkpt>
      <trkpt lat="46.48649" lon="5.36141">
        <ele>231.6</ele>
        <time>2022-01-14T12:22:11Z</time>
      </trkpt>
      <trkpt lat="46.48656" lon="5.36104">
        <ele>230.8</ele>
        <time>2022-01-14T12:22:14Z</time>
      </trkpt>
      <trkpt lat="46.48658" lon="5.36092">
        <ele>230.6</ele>
        <time>2022-01-14T12:22:15Z</time>
      </trkpt>
      <trkpt lat="46.48665" lon="5.36061">
        <ele>230.4</ele>
        <time>2022-01-14T12:22:18Z</time>
      </trkpt>
      <trkpt lat="46.48676" lon="5.36002">
        <ele>230.4</ele>
        <time>2022-01-14T12:22:24Z</time>
      </trkpt>
      <trkpt lat="46.4868" lon="5.35976">
        <ele>231</ele>
        <time>2022-01-14T12:22:27Z</time>
      </trkpt>
      <trkpt lat="46.48684" lon="5.35956">
        <ele>231.4</ele>
        <time>2022-01-14T12:22:29Z</time>
      </trkpt>
      <trkpt lat="46.48684" lon="5.35948">
        <ele>231.8</ele>
        <time>2022-01-14T12:22:30Z</time>
      </trkpt>
      <trkpt lat="46.48689" lon="5.35916">
        <ele>232.2</ele>
        <time>2022-01-14T12:22:33Z</time>
      </trkpt>
      <trkpt lat="46.48692" lon="5.35906">
        <ele>232.2</ele>
        <time>2022-01-14T12:22:34Z</time>
      </trkpt>
      <trkpt lat="46.48703" lon="5.35877">
        <ele>232.4</ele>
        <time>2022-01-14T12:22:37Z</time>
      </trkpt>
      <trkpt lat="46.4872" lon="5.35839">
        <ele>232</ele>
        <time>2022-01-14T12:22:41Z</time>
      </trkpt>
      <trkpt lat="46.48745" lon="5.35782">
        <ele>230.6</ele>
        <time>2022-01-14T12:22:47Z</time>
      </trkpt>
      <trkpt lat="46.48749" lon="5.35772">
        <ele>230.6</ele>
        <time>2022-01-14T12:22:48Z</time>
      </trkpt>
      <trkpt lat="46.48777" lon="5.35708">
        <ele>229.6</ele>
        <time>2022-01-14T12:22:55Z</time>
      </trkpt>
      <trkpt lat="46.48781" lon="5.35699">
        <ele>229.6</ele>
        <time>2022-01-14T12:22:56Z</time>
      </trkpt>
      <trkpt lat="46.48789" lon="5.35682">
        <ele>229.4</ele>
        <time>2022-01-14T12:22:58Z</time>
      </trkpt>
      <trkpt lat="46.48815" lon="5.35624">
        <ele>229.2</ele>
        <time>2022-01-14T12:23:05Z</time>
      </trkpt>
      <trkpt lat="46.48838" lon="5.35576">
        <ele>229.4</ele>
        <time>2022-01-14T12:23:11Z</time>
      </trkpt>
      <trkpt lat="46.48849" lon="5.35565">
        <ele>229.4</ele>
        <time>2022-01-14T12:23:13Z</time>
      </trkpt>
      <trkpt lat="46.48862" lon="5.35561">
        <ele>229.6</ele>
        <time>2022-01-14T12:23:15Z</time>
      </trkpt>
      <trkpt lat="46.48877" lon="5.3556">
        <ele>229.4</ele>
        <time>2022-01-14T12:23:17Z</time>
      </trkpt>
      <trkpt lat="46.48899" lon="5.35559">
        <ele>229.2</ele>
        <time>2022-01-14T12:23:20Z</time>
      </trkpt>
      <trkpt lat="46.48915" lon="5.35558">
        <ele>229.2</ele>
        <time>2022-01-14T12:23:22Z</time>
      </trkpt>
      <trkpt lat="46.48956" lon="5.35558">
        <ele>228.4</ele>
        <time>2022-01-14T12:23:27Z</time>
      </trkpt>
      <trkpt lat="46.48982" lon="5.35556">
        <ele>227.8</ele>
        <time>2022-01-14T12:23:30Z</time>
      </trkpt>
      <trkpt lat="46.49007" lon="5.35556">
        <ele>227</ele>
        <time>2022-01-14T12:23:33Z</time>
      </trkpt>
      <trkpt lat="46.49044" lon="5.35554">
        <ele>226.6</ele>
        <time>2022-01-14T12:23:38Z</time>
      </trkpt>
      <trkpt lat="46.49084" lon="5.35552">
        <ele>226.4</ele>
        <time>2022-01-14T12:23:44Z</time>
      </trkpt>
      <trkpt lat="46.49091" lon="5.35552">
        <ele>226.4</ele>
        <time>2022-01-14T12:23:45Z</time>
      </trkpt>
      <trkpt lat="46.49127" lon="5.35548">
        <ele>226.8</ele>
        <time>2022-01-14T12:23:51Z</time>
      </trkpt>
      <trkpt lat="46.49168" lon="5.35546">
        <ele>227.8</ele>
        <time>2022-01-14T12:23:58Z</time>
      </trkpt>
      <trkpt lat="46.49179" lon="5.35546">
        <ele>228.2</ele>
        <time>2022-01-14T12:24:00Z</time>
      </trkpt>
      <trkpt lat="46.49202" lon="5.35545">
        <ele>228.8</ele>
        <time>2022-01-14T12:24:04Z</time>
      </trkpt>
      <trkpt lat="46.49214" lon="5.35545">
        <ele>229.2</ele>
        <time>2022-01-14T12:24:06Z</time>
      </trkpt>
      <trkpt lat="46.49241" lon="5.35543">
        <ele>229.6</ele>
        <time>2022-01-14T12:24:10Z</time>
      </trkpt>
      <trkpt lat="46.49262" lon="5.35542">
        <ele>229.8</ele>
        <time>2022-01-14T12:24:13Z</time>
      </trkpt>
      <trkpt lat="46.49282" lon="5.35539">
        <ele>230</ele>
        <time>2022-01-14T12:24:16Z</time>
      </trkpt>
      <trkpt lat="46.49332" lon="5.35536">
        <ele>230</ele>
        <time>2022-01-14T12:24:23Z</time>
      </trkpt>
      <trkpt lat="46.49339" lon="5.35536">
        <ele>230</ele>
        <time>2022-01-14T12:24:24Z</time>
      </trkpt>
      <trkpt lat="46.49393" lon="5.3554">
        <ele>229</ele>
        <time>2022-01-14T12:24:31Z</time>
      </trkpt>
      <trkpt lat="46.494" lon="5.35542">
        <ele>228.8</ele>
        <time>2022-01-14T12:24:32Z</time>
      </trkpt>
      <trkpt lat="46.49434" lon="5.35556">
        <ele>228.4</ele>
        <time>2022-01-14T12:24:37Z</time>
      </trkpt>
      <trkpt lat="46.49468" lon="5.3557">
        <ele>227.8</ele>
        <time>2022-01-14T12:24:42Z</time>
      </trkpt>
      <trkpt lat="46.49488" lon="5.35578">
        <ele>227.8</ele>
        <time>2022-01-14T12:24:45Z</time>
      </trkpt>
      <trkpt lat="46.49494" lon="5.35581">
        <ele>227.6</ele>
        <time>2022-01-14T12:24:46Z</time>
      </trkpt>
      <trkpt lat="46.49548" lon="5.35604">
        <ele>227.4</ele>
        <time>2022-01-14T12:24:54Z</time>
      </trkpt>
      <trkpt lat="46.49584" lon="5.35616">
        <ele>226.8</ele>
        <time>2022-01-14T12:24:59Z</time>
      </trkpt>
      <trkpt lat="46.49613" lon="5.35625">
        <ele>226</ele>
        <time>2022-01-14T12:25:03Z</time>
      </trkpt>
      <trkpt lat="46.4962" lon="5.35627">
        <ele>225.6</ele>
        <time>2022-01-14T12:25:04Z</time>
      </trkpt>
      <trkpt lat="46.49662" lon="5.35639">
        <ele>224.6</ele>
        <time>2022-01-14T12:25:10Z</time>
      </trkpt>
      <trkpt lat="46.49669" lon="5.35642">
        <ele>224.6</ele>
        <time>2022-01-14T12:25:11Z</time>
      </trkpt>
      <trkpt lat="46.49696" lon="5.3565">
        <ele>223.8</ele>
        <time>2022-01-14T12:25:16Z</time>
      </trkpt>
      <trkpt lat="46.49699" lon="5.35649">
        <ele>223.4</ele>
        <time>2022-01-14T12:25:17Z</time>
      </trkpt>
      <trkpt lat="46.49705" lon="5.35641">
        <ele>223</ele>
        <time>2022-01-14T12:25:19Z</time>
      </trkpt>
      <trkpt lat="46.49709" lon="5.35628">
        <ele>222.6</ele>
        <time>2022-01-14T12:25:21Z</time>
      </trkpt>
      <trkpt lat="46.49711" lon="5.3562">
        <ele>222.2</ele>
        <time>2022-01-14T12:25:22Z</time>
      </trkpt>
      <trkpt lat="46.49712" lon="5.35612">
        <ele>222</ele>
        <time>2022-01-14T12:25:23Z</time>
      </trkpt>
      <trkpt lat="46.49717" lon="5.35563">
        <ele>221.6</ele>
        <time>2022-01-14T12:25:28Z</time>
      </trkpt>
      <trkpt lat="46.49726" lon="5.35483">
        <ele>221.6</ele>
        <time>2022-01-14T12:25:36Z</time>
      </trkpt>
      <trkpt lat="46.49736" lon="5.35409">
        <ele>221</ele>
        <time>2022-01-14T12:25:43Z</time>
      </trkpt>
      <trkpt lat="46.49739" lon="5.35376">
        <ele>220.4</ele>
        <time>2022-01-14T12:25:46Z</time>
      </trkpt>
      <trkpt lat="46.49739" lon="5.35343">
        <ele>220</ele>
        <time>2022-01-14T12:25:49Z</time>
      </trkpt>
      <trkpt lat="46.49737" lon="5.35323">
        <ele>219.8</ele>
        <time>2022-01-14T12:25:51Z</time>
      </trkpt>
      <trkpt lat="46.49729" lon="5.35279">
        <ele>219.6</ele>
        <time>2022-01-14T12:25:56Z</time>
      </trkpt>
      <trkpt lat="46.49715" lon="5.35214">
        <ele>220.6</ele>
        <time>2022-01-14T12:26:04Z</time>
      </trkpt>
      <trkpt lat="46.4971" lon="5.35189">
        <ele>221</ele>
        <time>2022-01-14T12:26:07Z</time>
      </trkpt>
      <trkpt lat="46.49698" lon="5.35128">
        <ele>221</ele>
        <time>2022-01-14T12:26:14Z</time>
      </trkpt>
      <trkpt lat="46.49685" lon="5.3507">
        <ele>220.4</ele>
        <time>2022-01-14T12:26:20Z</time>
      </trkpt>
      <trkpt lat="46.49682" lon="5.35053">
        <ele>220.4</ele>
        <time>2022-01-14T12:26:22Z</time>
      </trkpt>
      <trkpt lat="46.49674" lon="5.35013">
        <ele>220.6</ele>
        <time>2022-01-14T12:26:27Z</time>
      </trkpt>
      <trkpt lat="46.4966" lon="5.34953">
        <ele>221.4</ele>
        <time>2022-01-14T12:26:35Z</time>
      </trkpt>
      <trkpt lat="46.49648" lon="5.34898">
        <ele>221.6</ele>
        <time>2022-01-14T12:26:42Z</time>
      </trkpt>
      <trkpt lat="46.49644" lon="5.34872">
        <ele>222.2</ele>
        <time>2022-01-14T12:26:45Z</time>
      </trkpt>
      <trkpt lat="46.49633" lon="5.348">
        <ele>222.6</ele>
        <time>2022-01-14T12:26:53Z</time>
      </trkpt>
      <trkpt lat="46.4963" lon="5.34747">
        <ele>222</ele>
        <time>2022-01-14T12:26:58Z</time>
      </trkpt>
      <trkpt lat="46.49634" lon="5.34691">
        <ele>220.2</ele>
        <time>2022-01-14T12:27:03Z</time>
      </trkpt>
      <trkpt lat="46.49635" lon="5.34679">
        <ele>220.2</ele>
        <time>2022-01-14T12:27:04Z</time>
      </trkpt>
      <trkpt lat="46.49638" lon="5.34642">
        <ele>219.2</ele>
        <time>2022-01-14T12:27:07Z</time>
      </trkpt>
      <trkpt lat="46.49643" lon="5.34605">
        <ele>218</ele>
        <time>2022-01-14T12:27:10Z</time>
      </trkpt>
      <trkpt lat="46.49646" lon="5.3458">
        <ele>216.8</ele>
        <time>2022-01-14T12:27:12Z</time>
      </trkpt>
      <trkpt lat="46.49654" lon="5.34535">
        <ele>215.4</ele>
        <time>2022-01-14T12:27:16Z</time>
      </trkpt>
      <trkpt lat="46.49659" lon="5.34515">
        <ele>215</ele>
        <time>2022-01-14T12:27:18Z</time>
      </trkpt>
      <trkpt lat="46.49673" lon="5.34465">
        <ele>214.8</ele>
        <time>2022-01-14T12:27:24Z</time>
      </trkpt>
      <trkpt lat="46.49686" lon="5.34419">
        <ele>215.6</ele>
        <time>2022-01-14T12:27:30Z</time>
      </trkpt>
      <trkpt lat="46.49699" lon="5.34371">
        <ele>216.6</ele>
        <time>2022-01-14T12:27:37Z</time>
      </trkpt>
      <trkpt lat="46.49711" lon="5.34334">
        <ele>217.6</ele>
        <time>2022-01-14T12:27:43Z</time>
      </trkpt>
      <trkpt lat="46.49713" lon="5.34327">
        <ele>217.8</ele>
        <time>2022-01-14T12:27:44Z</time>
      </trkpt>
      <trkpt lat="46.49717" lon="5.34314">
        <ele>218</ele>
        <time>2022-01-14T12:27:46Z</time>
      </trkpt>
      <trkpt lat="46.49726" lon="5.34292">
        <ele>218.4</ele>
        <time>2022-01-14T12:27:49Z</time>
      </trkpt>
      <trkpt lat="46.4973" lon="5.34285">
        <ele>218.8</ele>
        <time>2022-01-14T12:27:50Z</time>
      </trkpt>
      <trkpt lat="46.4975" lon="5.34251">
        <ele>219.2</ele>
        <time>2022-01-14T12:27:55Z</time>
      </trkpt>
      <trkpt lat="46.49788" lon="5.34188">
        <ele>219.4</ele>
        <time>2022-01-14T12:28:05Z</time>
      </trkpt>
      <trkpt lat="46.49792" lon="5.34182">
        <ele>219.4</ele>
        <time>2022-01-14T12:28:06Z</time>
      </trkpt>
      <trkpt lat="46.49813" lon="5.34146">
        <ele>219.8</ele>
        <time>2022-01-14T12:28:12Z</time>
      </trkpt>
      <trkpt lat="46.49825" lon="5.34128">
        <ele>220</ele>
        <time>2022-01-14T12:28:15Z</time>
      </trkpt>
      <trkpt lat="46.49861" lon="5.34071">
        <ele>219.8</ele>
        <time>2022-01-14T12:28:24Z</time>
      </trkpt>
      <trkpt lat="46.49899" lon="5.34025">
        <ele>219.4</ele>
        <time>2022-01-14T12:28:32Z</time>
      </trkpt>
      <trkpt lat="46.49933" lon="5.33988">
        <ele>220.2</ele>
        <time>2022-01-14T12:28:40Z</time>
      </trkpt>
      <trkpt lat="46.49948" lon="5.3397">
        <ele>220.8</ele>
        <time>2022-01-14T12:28:44Z</time>
      </trkpt>
      <trkpt lat="46.49961" lon="5.33958">
        <ele>221</ele>
        <time>2022-01-14T12:28:47Z</time>
      </trkpt>
      <trkpt lat="46.49997" lon="5.33919">
        <ele>222</ele>
        <time>2022-01-14T12:28:55Z</time>
      </trkpt>
      <trkpt lat="46.50037" lon="5.33874">
        <ele>222.6</ele>
        <time>2022-01-14T12:29:03Z</time>
      </trkpt>
      <trkpt lat="46.50083" lon="5.33827">
        <ele>222</ele>
        <time>2022-01-14T12:29:11Z</time>
      </trkpt>
      <trkpt lat="46.50089" lon="5.3382">
        <ele>221.8</ele>
        <time>2022-01-14T12:29:12Z</time>
      </trkpt>
      <trkpt lat="46.50128" lon="5.33778">
        <ele>220.8</ele>
        <time>2022-01-14T12:29:19Z</time>
      </trkpt>
      <trkpt lat="46.50133" lon="5.33772">
        <ele>220.6</ele>
        <time>2022-01-14T12:29:20Z</time>
      </trkpt>
      <trkpt lat="46.50169" lon="5.33733">
        <ele>220.2</ele>
        <time>2022-01-14T12:29:27Z</time>
      </trkpt>
      <trkpt lat="46.50215" lon="5.33684">
        <ele>220.6</ele>
        <time>2022-01-14T12:29:36Z</time>
      </trkpt>
      <trkpt lat="46.50261" lon="5.33634">
        <ele>220.4</ele>
        <time>2022-01-14T12:29:45Z</time>
      </trkpt>
      <trkpt lat="46.50277" lon="5.33618">
        <ele>220.2</ele>
        <time>2022-01-14T12:29:48Z</time>
      </trkpt>
      <trkpt lat="46.50319" lon="5.3357">
        <ele>219.6</ele>
        <time>2022-01-14T12:29:56Z</time>
      </trkpt>
      <trkpt lat="46.50325" lon="5.33564">
        <ele>219.6</ele>
        <time>2022-01-14T12:29:57Z</time>
      </trkpt>
      <trkpt lat="46.50341" lon="5.33547">
        <ele>219.2</ele>
        <time>2022-01-14T12:30:00Z</time>
      </trkpt>
      <trkpt lat="46.50368" lon="5.33519">
        <ele>218.8</ele>
        <time>2022-01-14T12:30:05Z</time>
      </trkpt>
      <trkpt lat="46.50416" lon="5.33467">
        <ele>218.2</ele>
        <time>2022-01-14T12:30:14Z</time>
      </trkpt>
      <trkpt lat="46.50421" lon="5.33461">
        <ele>218.2</ele>
        <time>2022-01-14T12:30:15Z</time>
      </trkpt>
      <trkpt lat="46.50427" lon="5.33455">
        <ele>218</ele>
        <time>2022-01-14T12:30:16Z</time>
      </trkpt>
      <trkpt lat="46.50455" lon="5.33413">
        <ele>217.6</ele>
        <time>2022-01-14T12:30:22Z</time>
      </trkpt>
      <trkpt lat="46.50466" lon="5.33378">
        <ele>217.4</ele>
        <time>2022-01-14T12:30:26Z</time>
      </trkpt>
      <trkpt lat="46.50467" lon="5.33368">
        <ele>217.2</ele>
        <time>2022-01-14T12:30:27Z</time>
      </trkpt>
      <trkpt lat="46.50469" lon="5.33359">
        <ele>217.2</ele>
        <time>2022-01-14T12:30:28Z</time>
      </trkpt>
      <trkpt lat="46.5047" lon="5.3334">
        <ele>217</ele>
        <time>2022-01-14T12:30:30Z</time>
      </trkpt>
      <trkpt lat="46.5047" lon="5.33321">
        <ele>216.4</ele>
        <time>2022-01-14T12:30:32Z</time>
      </trkpt>
      <trkpt lat="46.5047" lon="5.33302">
        <ele>216.2</ele>
        <time>2022-01-14T12:30:34Z</time>
      </trkpt>
      <trkpt lat="46.50471" lon="5.33285">
        <ele>216.2</ele>
        <time>2022-01-14T12:30:36Z</time>
      </trkpt>
      <trkpt lat="46.5047" lon="5.3325">
        <ele>216.4</ele>
        <time>2022-01-14T12:30:40Z</time>
      </trkpt>
      <trkpt lat="46.5047" lon="5.33241">
        <ele>216.4</ele>
        <time>2022-01-14T12:30:41Z</time>
      </trkpt>
      <trkpt lat="46.5047" lon="5.33234">
        <ele>216.6</ele>
        <time>2022-01-14T12:30:42Z</time>
      </trkpt>
      <trkpt lat="46.5047" lon="5.33212">
        <ele>216.8</ele>
        <time>2022-01-14T12:30:45Z</time>
      </trkpt>
      <trkpt lat="46.50471" lon="5.33189">
        <ele>217</ele>
        <time>2022-01-14T12:30:48Z</time>
      </trkpt>
      <trkpt lat="46.50471" lon="5.33181">
        <ele>217</ele>
        <time>2022-01-14T12:30:49Z</time>
      </trkpt>
      <trkpt lat="46.50471" lon="5.33147">
        <ele>216.8</ele>
        <time>2022-01-14T12:30:53Z</time>
      </trkpt>
      <trkpt lat="46.50471" lon="5.33114">
        <ele>216.4</ele>
        <time>2022-01-14T12:30:56Z</time>
      </trkpt>
      <trkpt lat="46.50471" lon="5.33094">
        <ele>215.8</ele>
        <time>2022-01-14T12:30:58Z</time>
      </trkpt>
      <trkpt lat="46.50471" lon="5.33051">
        <ele>214.6</ele>
        <time>2022-01-14T12:31:02Z</time>
      </trkpt>
      <trkpt lat="46.50471" lon="5.3304">
        <ele>214.2</ele>
        <time>2022-01-14T12:31:03Z</time>
      </trkpt>
      <trkpt lat="46.50473" lon="5.32995">
        <ele>212.8</ele>
        <time>2022-01-14T12:31:07Z</time>
      </trkpt>
      <trkpt lat="46.50473" lon="5.32984">
        <ele>212.6</ele>
        <time>2022-01-14T12:31:08Z</time>
      </trkpt>
      <trkpt lat="46.50473" lon="5.32961">
        <ele>211.8</ele>
        <time>2022-01-14T12:31:10Z</time>
      </trkpt>
      <trkpt lat="46.50474" lon="5.32937">
        <ele>210.6</ele>
        <time>2022-01-14T12:31:12Z</time>
      </trkpt>
      <trkpt lat="46.50474" lon="5.32891">
        <ele>209.2</ele>
        <time>2022-01-14T12:31:16Z</time>
      </trkpt>
      <trkpt lat="46.50475" lon="5.32868">
        <ele>208.6</ele>
        <time>2022-01-14T12:31:18Z</time>
      </trkpt>
      <trkpt lat="46.50475" lon="5.32844">
        <ele>207.8</ele>
        <time>2022-01-14T12:31:20Z</time>
      </trkpt>
      <trkpt lat="46.50476" lon="5.32808">
        <ele>206.2</ele>
        <time>2022-01-14T12:31:23Z</time>
      </trkpt>
      <trkpt lat="46.50477" lon="5.32775">
        <ele>205</ele>
        <time>2022-01-14T12:31:26Z</time>
      </trkpt>
      <trkpt lat="46.50477" lon="5.32743">
        <ele>204.2</ele>
        <time>2022-01-14T12:31:29Z</time>
      </trkpt>
      <trkpt lat="46.50478" lon="5.32722">
        <ele>204</ele>
        <time>2022-01-14T12:31:31Z</time>
      </trkpt>
      <trkpt lat="46.50478" lon="5.32661">
        <ele>203.2</ele>
        <time>2022-01-14T12:31:37Z</time>
      </trkpt>
      <trkpt lat="46.50479" lon="5.32643">
        <ele>202.8</ele>
        <time>2022-01-14T12:31:39Z</time>
      </trkpt>
      <trkpt lat="46.50478" lon="5.32573">
        <ele>201.8</ele>
        <time>2022-01-14T12:31:46Z</time>
      </trkpt>
      <trkpt lat="46.50476" lon="5.32544">
        <ele>201.8</ele>
        <time>2022-01-14T12:31:49Z</time>
      </trkpt>
      <trkpt lat="46.50475" lon="5.32517">
        <ele>201.8</ele>
        <time>2022-01-14T12:31:52Z</time>
      </trkpt>
      <trkpt lat="46.50474" lon="5.3249">
        <ele>202</ele>
        <time>2022-01-14T12:31:55Z</time>
      </trkpt>
      <trkpt lat="46.50466" lon="5.32427">
        <ele>200.6</ele>
        <time>2022-01-14T12:32:02Z</time>
      </trkpt>
      <trkpt lat="46.50465" lon="5.32418">
        <ele>200.4</ele>
        <time>2022-01-14T12:32:03Z</time>
      </trkpt>
      <trkpt lat="46.50455" lon="5.32373">
        <ele>199.6</ele>
        <time>2022-01-14T12:32:08Z</time>
      </trkpt>
      <trkpt lat="46.50443" lon="5.32322">
        <ele>199</ele>
        <time>2022-01-14T12:32:14Z</time>
      </trkpt>
      <trkpt lat="46.50433" lon="5.32253">
        <ele>199.2</ele>
        <time>2022-01-14T12:32:22Z</time>
      </trkpt>
      <trkpt lat="46.50434" lon="5.32167">
        <ele>198.8</ele>
        <time>2022-01-14T12:32:31Z</time>
      </trkpt>
      <trkpt lat="46.50435" lon="5.32117">
        <ele>198.4</ele>
        <time>2022-01-14T12:32:36Z</time>
      </trkpt>
      <trkpt lat="46.50436" lon="5.3207">
        <ele>197.8</ele>
        <time>2022-01-14T12:32:41Z</time>
      </trkpt>
      <trkpt lat="46.50437" lon="5.32037">
        <ele>197.4</ele>
        <time>2022-01-14T12:32:44Z</time>
      </trkpt>
      <trkpt lat="46.50438" lon="5.31968">
        <ele>196.6</ele>
        <time>2022-01-14T12:32:51Z</time>
      </trkpt>
      <trkpt lat="46.50439" lon="5.3193">
        <ele>196.4</ele>
        <time>2022-01-14T12:32:55Z</time>
      </trkpt>
      <trkpt lat="46.50438" lon="5.31873">
        <ele>196</ele>
        <time>2022-01-14T12:33:01Z</time>
      </trkpt>
      <trkpt lat="46.50431" lon="5.31828">
        <ele>195.8</ele>
        <time>2022-01-14T12:33:06Z</time>
      </trkpt>
      <trkpt lat="46.50411" lon="5.31751">
        <ele>195.8</ele>
        <time>2022-01-14T12:33:15Z</time>
      </trkpt>
      <trkpt lat="46.50386" lon="5.31697">
        <ele>195.4</ele>
        <time>2022-01-14T12:33:22Z</time>
      </trkpt>
      <trkpt lat="46.50362" lon="5.31662">
        <ele>195.2</ele>
        <time>2022-01-14T12:33:27Z</time>
      </trkpt>
      <trkpt lat="46.50356" lon="5.31656">
        <ele>195</ele>
        <time>2022-01-14T12:33:28Z</time>
      </trkpt>
      <trkpt lat="46.50321" lon="5.31627">
        <ele>194.4</ele>
        <time>2022-01-14T12:33:34Z</time>
      </trkpt>
      <trkpt lat="46.5029" lon="5.31605">
        <ele>194</ele>
        <time>2022-01-14T12:33:39Z</time>
      </trkpt>
      <trkpt lat="46.50267" lon="5.31586">
        <ele>193.8</ele>
        <time>2022-01-14T12:33:43Z</time>
      </trkpt>
      <trkpt lat="46.50246" lon="5.31562">
        <ele>193.6</ele>
        <time>2022-01-14T12:33:47Z</time>
      </trkpt>
      <trkpt lat="46.50228" lon="5.31536">
        <ele>193.6</ele>
        <time>2022-01-14T12:33:51Z</time>
      </trkpt>
      <trkpt lat="46.50224" lon="5.31529">
        <ele>193.6</ele>
        <time>2022-01-14T12:33:52Z</time>
      </trkpt>
      <trkpt lat="46.50213" lon="5.31503">
        <ele>193.8</ele>
        <time>2022-01-14T12:33:56Z</time>
      </trkpt>
      <trkpt lat="46.50211" lon="5.31496">
        <ele>194.2</ele>
        <time>2022-01-14T12:33:57Z</time>
      </trkpt>
      <trkpt lat="46.50202" lon="5.31464">
        <ele>195</ele>
        <time>2022-01-14T12:34:02Z</time>
      </trkpt>
      <trkpt lat="46.502" lon="5.31458">
        <ele>195.2</ele>
        <time>2022-01-14T12:34:03Z</time>
      </trkpt>
      <trkpt lat="46.5019" lon="5.31435">
        <ele>196.4</ele>
        <time>2022-01-14T12:34:07Z</time>
      </trkpt>
      <trkpt lat="46.50184" lon="5.31418">
        <ele>197.4</ele>
        <time>2022-01-14T12:34:10Z</time>
      </trkpt>
      <trkpt lat="46.50182" lon="5.31413">
        <ele>197.6</ele>
        <time>2022-01-14T12:34:11Z</time>
      </trkpt>
      <trkpt lat="46.50175" lon="5.31396">
        <ele>198.6</ele>
        <time>2022-01-14T12:34:14Z</time>
      </trkpt>
      <trkpt lat="46.50167" lon="5.31368">
        <ele>199.6</ele>
        <time>2022-01-14T12:34:19Z</time>
      </trkpt>
      <trkpt lat="46.50163" lon="5.31357">
        <ele>199.8</ele>
        <time>2022-01-14T12:34:21Z</time>
      </trkpt>
      <trkpt lat="46.50154" lon="5.31332">
        <ele>200.6</ele>
        <time>2022-01-14T12:34:25Z</time>
      </trkpt>
      <trkpt lat="46.50143" lon="5.313">
        <ele>201.2</ele>
        <time>2022-01-14T12:34:30Z</time>
      </trkpt>
      <trkpt lat="46.50137" lon="5.31279">
        <ele>201.8</ele>
        <time>2022-01-14T12:34:33Z</time>
      </trkpt>
      <trkpt lat="46.50122" lon="5.31233">
        <ele>202</ele>
        <time>2022-01-14T12:34:39Z</time>
      </trkpt>
      <trkpt lat="46.501" lon="5.31171">
        <ele>201.6</ele>
        <time>2022-01-14T12:34:46Z</time>
      </trkpt>
      <trkpt lat="46.50081" lon="5.31114">
        <ele>200.6</ele>
        <time>2022-01-14T12:34:52Z</time>
      </trkpt>
      <trkpt lat="46.50075" lon="5.31097">
        <ele>200.2</ele>
        <time>2022-01-14T12:34:54Z</time>
      </trkpt>
      <trkpt lat="46.50063" lon="5.31059">
        <ele>200.4</ele>
        <time>2022-01-14T12:34:59Z</time>
      </trkpt>
      <trkpt lat="46.50048" lon="5.31018">
        <ele>201.6</ele>
        <time>2022-01-14T12:35:06Z</time>
      </trkpt>
      <trkpt lat="46.50045" lon="5.31008">
        <ele>201.8</ele>
        <time>2022-01-14T12:35:08Z</time>
      </trkpt>
      <trkpt lat="46.50038" lon="5.30988">
        <ele>202.8</ele>
        <time>2022-01-14T12:35:12Z</time>
      </trkpt>
      <trkpt lat="46.50031" lon="5.30966">
        <ele>204</ele>
        <time>2022-01-14T12:35:16Z</time>
      </trkpt>
      <trkpt lat="46.50025" lon="5.30951">
        <ele>204.8</ele>
        <time>2022-01-14T12:35:19Z</time>
      </trkpt>
      <trkpt lat="46.50022" lon="5.30941">
        <ele>205.2</ele>
        <time>2022-01-14T12:35:21Z</time>
      </trkpt>
      <trkpt lat="46.50018" lon="5.3093">
        <ele>205.8</ele>
        <time>2022-01-14T12:35:23Z</time>
      </trkpt>
      <trkpt lat="46.50016" lon="5.30925">
        <ele>206.2</ele>
        <time>2022-01-14T12:35:24Z</time>
      </trkpt>
      <trkpt lat="46.50012" lon="5.30916">
        <ele>206.6</ele>
        <time>2022-01-14T12:35:26Z</time>
      </trkpt>
      <trkpt lat="46.50006" lon="5.30896">
        <ele>207.6</ele>
        <time>2022-01-14T12:35:30Z</time>
      </trkpt>
      <trkpt lat="46.50002" lon="5.30887">
        <ele>207.8</ele>
        <time>2022-01-14T12:35:32Z</time>
      </trkpt>
      <trkpt lat="46.49996" lon="5.30873">
        <ele>208.6</ele>
        <time>2022-01-14T12:35:35Z</time>
      </trkpt>
      <trkpt lat="46.49989" lon="5.30853">
        <ele>209.6</ele>
        <time>2022-01-14T12:35:39Z</time>
      </trkpt>
      <trkpt lat="46.49988" lon="5.30848">
        <ele>209.8</ele>
        <time>2022-01-14T12:35:40Z</time>
      </trkpt>
      <trkpt lat="46.49977" lon="5.30816">
        <ele>210.8</ele>
        <time>2022-01-14T12:35:46Z</time>
      </trkpt>
      <trkpt lat="46.49974" lon="5.30805">
        <ele>211.2</ele>
        <time>2022-01-14T12:35:48Z</time>
      </trkpt>
      <trkpt lat="46.49966" lon="5.30776">
        <ele>211.8</ele>
        <time>2022-01-14T12:35:53Z</time>
      </trkpt>
      <trkpt lat="46.49962" lon="5.30754">
        <ele>212.4</ele>
        <time>2022-01-14T12:35:57Z</time>
      </trkpt>
      <trkpt lat="46.49957" lon="5.30724">
        <ele>213</ele>
        <time>2022-01-14T12:36:02Z</time>
      </trkpt>
      <trkpt lat="46.49952" lon="5.30703">
        <ele>213</ele>
        <time>2022-01-14T12:36:05Z</time>
      </trkpt>
      <trkpt lat="46.49942" lon="5.30644">
        <ele>212.6</ele>
        <time>2022-01-14T12:36:12Z</time>
      </trkpt>
      <trkpt lat="46.49936" lon="5.30596">
        <ele>211.8</ele>
        <time>2022-01-14T12:36:17Z</time>
      </trkpt>
      <trkpt lat="46.49935" lon="5.30586">
        <ele>211.4</ele>
        <time>2022-01-14T12:36:18Z</time>
      </trkpt>
      <trkpt lat="46.49935" lon="5.30554">
        <ele>211</ele>
        <time>2022-01-14T12:36:21Z</time>
      </trkpt>
      <trkpt lat="46.49936" lon="5.30544">
        <ele>210.6</ele>
        <time>2022-01-14T12:36:22Z</time>
      </trkpt>
      <trkpt lat="46.49938" lon="5.30533">
        <ele>210.4</ele>
        <time>2022-01-14T12:36:23Z</time>
      </trkpt>
      <trkpt lat="46.49945" lon="5.30503">
        <ele>209.4</ele>
        <time>2022-01-14T12:36:26Z</time>
      </trkpt>
      <trkpt lat="46.49953" lon="5.30484">
        <ele>209</ele>
        <time>2022-01-14T12:36:28Z</time>
      </trkpt>
      <trkpt lat="46.49963" lon="5.30467">
        <ele>208.2</ele>
        <time>2022-01-14T12:36:30Z</time>
      </trkpt>
      <trkpt lat="46.49981" lon="5.30445">
        <ele>207.4</ele>
        <time>2022-01-14T12:36:33Z</time>
      </trkpt>
      <trkpt lat="46.49994" lon="5.30433">
        <ele>207.2</ele>
        <time>2022-01-14T12:36:35Z</time>
      </trkpt>
      <trkpt lat="46.50015" lon="5.30417">
        <ele>206</ele>
        <time>2022-01-14T12:36:38Z</time>
      </trkpt>
      <trkpt lat="46.50022" lon="5.30412">
        <ele>205.8</ele>
        <time>2022-01-14T12:36:39Z</time>
      </trkpt>
      <trkpt lat="46.50053" lon="5.30381">
        <ele>204.6</ele>
        <time>2022-01-14T12:36:44Z</time>
      </trkpt>
      <trkpt lat="46.50058" lon="5.30374">
        <ele>204.6</ele>
        <time>2022-01-14T12:36:45Z</time>
      </trkpt>
      <trkpt lat="46.50077" lon="5.30335">
        <ele>204.2</ele>
        <time>2022-01-14T12:36:50Z</time>
      </trkpt>
      <trkpt lat="46.50087" lon="5.30295">
        <ele>204.8</ele>
        <time>2022-01-14T12:36:55Z</time>
      </trkpt>
      <trkpt lat="46.50089" lon="5.30239">
        <ele>205.6</ele>
        <time>2022-01-14T12:37:02Z</time>
      </trkpt>
      <trkpt lat="46.5009" lon="5.30232">
        <ele>205.6</ele>
        <time>2022-01-14T12:37:03Z</time>
      </trkpt>
      <trkpt lat="46.50091" lon="5.30208">
        <ele>206</ele>
        <time>2022-01-14T12:37:06Z</time>
      </trkpt>
      <trkpt lat="46.50093" lon="5.30194">
        <ele>206.2</ele>
        <time>2022-01-14T12:37:08Z</time>
      </trkpt>
      <trkpt lat="46.50092" lon="5.30168">
        <ele>206.8</ele>
        <time>2022-01-14T12:37:11Z</time>
      </trkpt>
      <trkpt lat="46.50092" lon="5.30127">
        <ele>207.2</ele>
        <time>2022-01-14T12:37:16Z</time>
      </trkpt>
      <trkpt lat="46.50091" lon="5.30064">
        <ele>207.4</ele>
        <time>2022-01-14T12:37:24Z</time>
      </trkpt>
      <trkpt lat="46.50091" lon="5.3004">
        <ele>207.8</ele>
        <time>2022-01-14T12:37:27Z</time>
      </trkpt>
      <trkpt lat="46.50085" lon="5.29984">
        <ele>208</ele>
        <time>2022-01-14T12:37:34Z</time>
      </trkpt>
      <trkpt lat="46.50069" lon="5.29931">
        <ele>208</ele>
        <time>2022-01-14T12:37:41Z</time>
      </trkpt>
      <trkpt lat="46.50044" lon="5.29892">
        <ele>207.8</ele>
        <time>2022-01-14T12:37:47Z</time>
      </trkpt>
      <trkpt lat="46.50006" lon="5.29857">
        <ele>206.8</ele>
        <time>2022-01-14T12:37:54Z</time>
      </trkpt>
      <trkpt lat="46.5" lon="5.29854">
        <ele>206.6</ele>
        <time>2022-01-14T12:37:55Z</time>
      </trkpt>
      <trkpt lat="46.49994" lon="5.29853">
        <ele>206.6</ele>
        <time>2022-01-14T12:37:56Z</time>
      </trkpt>
      <trkpt lat="46.49982" lon="5.29851">
        <ele>206.4</ele>
        <time>2022-01-14T12:37:58Z</time>
      </trkpt>
      <trkpt lat="46.49947" lon="5.29846">
        <ele>206.4</ele>
        <time>2022-01-14T12:38:04Z</time>
      </trkpt>
      <trkpt lat="46.49916" lon="5.29835">
        <ele>207</ele>
        <time>2022-01-14T12:38:10Z</time>
      </trkpt>
      <trkpt lat="46.49886" lon="5.29823">
        <ele>207.8</ele>
        <time>2022-01-14T12:38:16Z</time>
      </trkpt>
      <trkpt lat="46.49872" lon="5.29815">
        <ele>208.2</ele>
        <time>2022-01-14T12:38:19Z</time>
      </trkpt>
      <trkpt lat="46.49851" lon="5.29809">
        <ele>208.8</ele>
        <time>2022-01-14T12:38:23Z</time>
      </trkpt>
      <trkpt lat="46.49821" lon="5.29797">
        <ele>209.8</ele>
        <time>2022-01-14T12:38:29Z</time>
      </trkpt>
      <trkpt lat="46.49784" lon="5.29788">
        <ele>210.4</ele>
        <time>2022-01-14T12:38:36Z</time>
      </trkpt>
      <trkpt lat="46.49778" lon="5.29788">
        <ele>210.4</ele>
        <time>2022-01-14T12:38:37Z</time>
      </trkpt>
      <trkpt lat="46.49751" lon="5.29785">
        <ele>210.4</ele>
        <time>2022-01-14T12:38:42Z</time>
      </trkpt>
      <trkpt lat="46.49746" lon="5.29787">
        <ele>210.4</ele>
        <time>2022-01-14T12:38:43Z</time>
      </trkpt>
      <trkpt lat="46.49742" lon="5.29792">
        <ele>210.6</ele>
        <time>2022-01-14T12:38:44Z</time>
      </trkpt>
      <trkpt lat="46.49734" lon="5.29803">
        <ele>210.6</ele>
        <time>2022-01-14T12:38:46Z</time>
      </trkpt>
      <trkpt lat="46.49706" lon="5.29843">
        <ele>210.4</ele>
        <time>2022-01-14T12:38:52Z</time>
      </trkpt>
      <trkpt lat="46.49699" lon="5.29861">
        <ele>210.4</ele>
        <time>2022-01-14T12:38:54Z</time>
      </trkpt>
      <trkpt lat="46.49693" lon="5.29881">
        <ele>210.4</ele>
        <time>2022-01-14T12:38:56Z</time>
      </trkpt>
      <trkpt lat="46.49678" lon="5.29949">
        <ele>209.4</ele>
        <time>2022-01-14T12:39:02Z</time>
      </trkpt>
      <trkpt lat="46.49671" lon="5.29982">
        <ele>208.8</ele>
        <time>2022-01-14T12:39:05Z</time>
      </trkpt>
      <trkpt lat="46.49657" lon="5.30032">
        <ele>208.6</ele>
        <time>2022-01-14T12:39:10Z</time>
      </trkpt>
      <trkpt lat="46.49642" lon="5.3007">
        <ele>209.2</ele>
        <time>2022-01-14T12:39:15Z</time>
      </trkpt>
      <trkpt lat="46.49635" lon="5.30081">
        <ele>209.8</ele>
        <time>2022-01-14T12:39:17Z</time>
      </trkpt>
      <trkpt lat="46.49618" lon="5.30101">
        <ele>210.8</ele>
        <time>2022-01-14T12:39:21Z</time>
      </trkpt>
      <trkpt lat="46.49615" lon="5.30106">
        <ele>211</ele>
        <time>2022-01-14T12:39:22Z</time>
      </trkpt>
      <trkpt lat="46.49592" lon="5.3013">
        <ele>212.2</ele>
        <time>2022-01-14T12:39:27Z</time>
      </trkpt>
      <trkpt lat="46.49549" lon="5.30163">
        <ele>212.8</ele>
        <time>2022-01-14T12:39:34Z</time>
      </trkpt>
      <trkpt lat="46.4953" lon="5.30178">
        <ele>212.8</ele>
        <time>2022-01-14T12:39:37Z</time>
      </trkpt>
      <trkpt lat="46.49519" lon="5.30191">
        <ele>212.6</ele>
        <time>2022-01-14T12:39:39Z</time>
      </trkpt>
      <trkpt lat="46.49498" lon="5.3023">
        <ele>212.4</ele>
        <time>2022-01-14T12:39:44Z</time>
      </trkpt>
      <trkpt lat="46.49476" lon="5.30272">
        <ele>212.8</ele>
        <time>2022-01-14T12:39:50Z</time>
      </trkpt>
      <trkpt lat="46.49468" lon="5.30282">
        <ele>213.2</ele>
        <time>2022-01-14T12:39:52Z</time>
      </trkpt>
      <trkpt lat="46.49448" lon="5.30301">
        <ele>214</ele>
        <time>2022-01-14T12:39:56Z</time>
      </trkpt>
      <trkpt lat="46.49437" lon="5.30309">
        <ele>214</ele>
        <time>2022-01-14T12:39:58Z</time>
      </trkpt>
      <trkpt lat="46.49414" lon="5.30319">
        <ele>214.8</ele>
        <time>2022-01-14T12:40:02Z</time>
      </trkpt>
      <trkpt lat="46.49395" lon="5.30327">
        <ele>215.2</ele>
        <time>2022-01-14T12:40:05Z</time>
      </trkpt>
      <trkpt lat="46.49353" lon="5.30343">
        <ele>216</ele>
        <time>2022-01-14T12:40:12Z</time>
      </trkpt>
      <trkpt lat="46.49335" lon="5.3035">
        <ele>216.4</ele>
        <time>2022-01-14T12:40:15Z</time>
      </trkpt>
      <trkpt lat="46.4928" lon="5.30373">
        <ele>216.6</ele>
        <time>2022-01-14T12:40:24Z</time>
      </trkpt>
      <trkpt lat="46.49273" lon="5.30376">
        <ele>216.6</ele>
        <time>2022-01-14T12:40:25Z</time>
      </trkpt>
      <trkpt lat="46.49218" lon="5.30398">
        <ele>217</ele>
        <time>2022-01-14T12:40:34Z</time>
      </trkpt>
      <trkpt lat="46.49199" lon="5.30405">
        <ele>217.2</ele>
        <time>2022-01-14T12:40:37Z</time>
      </trkpt>
      <trkpt lat="46.49181" lon="5.30412">
        <ele>217.2</ele>
        <time>2022-01-14T12:40:40Z</time>
      </trkpt>
      <trkpt lat="46.49132" lon="5.30432">
        <ele>217.6</ele>
        <time>2022-01-14T12:40:48Z</time>
      </trkpt>
      <trkpt lat="46.49078" lon="5.30453">
        <ele>218</ele>
        <time>2022-01-14T12:40:57Z</time>
      </trkpt>
      <trkpt lat="46.49072" lon="5.30456">
        <ele>218</ele>
        <time>2022-01-14T12:40:58Z</time>
      </trkpt>
      <trkpt lat="46.49018" lon="5.30478">
        <ele>218.4</ele>
        <time>2022-01-14T12:41:07Z</time>
      </trkpt>
      <trkpt lat="46.49006" lon="5.30483">
        <ele>218.4</ele>
        <time>2022-01-14T12:41:09Z</time>
      </trkpt>
      <trkpt lat="46.48958" lon="5.30501">
        <ele>218.6</ele>
        <time>2022-01-14T12:41:17Z</time>
      </trkpt>
      <trkpt lat="46.48903" lon="5.30525">
        <ele>219.2</ele>
        <time>2022-01-14T12:41:26Z</time>
      </trkpt>
      <trkpt lat="46.48878" lon="5.30533">
        <ele>219.2</ele>
        <time>2022-01-14T12:41:30Z</time>
      </trkpt>
      <trkpt lat="46.48835" lon="5.30536">
        <ele>219.2</ele>
        <time>2022-01-14T12:41:37Z</time>
      </trkpt>
      <trkpt lat="46.48778" lon="5.30523">
        <ele>219.6</ele>
        <time>2022-01-14T12:41:46Z</time>
      </trkpt>
      <trkpt lat="46.48721" lon="5.30498">
        <ele>219.6</ele>
        <time>2022-01-14T12:41:55Z</time>
      </trkpt>
      <trkpt lat="46.48715" lon="5.30496">
        <ele>219.6</ele>
        <time>2022-01-14T12:41:56Z</time>
      </trkpt>
      <trkpt lat="46.48708" lon="5.30495">
        <ele>219.6</ele>
        <time>2022-01-14T12:41:57Z</time>
      </trkpt>
      <trkpt lat="46.48681" lon="5.30496">
        <ele>219.6</ele>
        <time>2022-01-14T12:42:01Z</time>
      </trkpt>
      <trkpt lat="46.48661" lon="5.30498">
        <ele>219.2</ele>
        <time>2022-01-14T12:42:04Z</time>
      </trkpt>
      <trkpt lat="46.48634" lon="5.30495">
        <ele>219.2</ele>
        <time>2022-01-14T12:42:08Z</time>
      </trkpt>
      <trkpt lat="46.48584" lon="5.30487">
        <ele>219.6</ele>
        <time>2022-01-14T12:42:16Z</time>
      </trkpt>
      <trkpt lat="46.48553" lon="5.30491">
        <ele>219.6</ele>
        <time>2022-01-14T12:42:21Z</time>
      </trkpt>
      <trkpt lat="46.48512" lon="5.30516">
        <ele>220</ele>
        <time>2022-01-14T12:42:28Z</time>
      </trkpt>
      <trkpt lat="46.48462" lon="5.30563">
        <ele>220.4</ele>
        <time>2022-01-14T12:42:37Z</time>
      </trkpt>
      <trkpt lat="46.48456" lon="5.30569">
        <ele>220.4</ele>
        <time>2022-01-14T12:42:38Z</time>
      </trkpt>
      <trkpt lat="46.48407" lon="5.30617">
        <ele>219.6</ele>
        <time>2022-01-14T12:42:46Z</time>
      </trkpt>
      <trkpt lat="46.48401" lon="5.30623">
        <ele>219.6</ele>
        <time>2022-01-14T12:42:47Z</time>
      </trkpt>
      <trkpt lat="46.48351" lon="5.3067">
        <ele>219</ele>
        <time>2022-01-14T12:42:55Z</time>
      </trkpt>
      <trkpt lat="46.48324" lon="5.3069">
        <ele>218.6</ele>
        <time>2022-01-14T12:42:59Z</time>
      </trkpt>
      <trkpt lat="46.48317" lon="5.30693">
        <ele>218.6</ele>
        <time>2022-01-14T12:43:00Z</time>
      </trkpt>
      <trkpt lat="46.48303" lon="5.30695">
        <ele>218.6</ele>
        <time>2022-01-14T12:43:02Z</time>
      </trkpt>
      <trkpt lat="46.48288" lon="5.30695">
        <ele>218.6</ele>
        <time>2022-01-14T12:43:04Z</time>
      </trkpt>
      <trkpt lat="46.48248" lon="5.30685">
        <ele>218.6</ele>
        <time>2022-01-14T12:43:10Z</time>
      </trkpt>
      <trkpt lat="46.48219" lon="5.30681">
        <ele>219</ele>
        <time>2022-01-14T12:43:15Z</time>
      </trkpt>
      <trkpt lat="46.48207" lon="5.30684">
        <ele>219.4</ele>
        <time>2022-01-14T12:43:17Z</time>
      </trkpt>
      <trkpt lat="46.4817" lon="5.30703">
        <ele>220.4</ele>
        <time>2022-01-14T12:43:24Z</time>
      </trkpt>
      <trkpt lat="46.48133" lon="5.30724">
        <ele>221.4</ele>
        <time>2022-01-14T12:43:31Z</time>
      </trkpt>
      <trkpt lat="46.48122" lon="5.3073">
        <ele>221.8</ele>
        <time>2022-01-14T12:43:33Z</time>
      </trkpt>
      <trkpt lat="46.48089" lon="5.30748">
        <ele>222.4</ele>
        <time>2022-01-14T12:43:39Z</time>
      </trkpt>
      <trkpt lat="46.48056" lon="5.30766">
        <ele>223.2</ele>
        <time>2022-01-14T12:43:45Z</time>
      </trkpt>
      <trkpt lat="46.48005" lon="5.30795">
        <ele>222.8</ele>
        <time>2022-01-14T12:43:53Z</time>
      </trkpt>
      <trkpt lat="46.47955" lon="5.30815">
        <ele>221.8</ele>
        <time>2022-01-14T12:44:00Z</time>
      </trkpt>
      <trkpt lat="46.47941" lon="5.30816">
        <ele>221.4</ele>
        <time>2022-01-14T12:44:02Z</time>
      </trkpt>
      <trkpt lat="46.47928" lon="5.30814">
        <ele>221.4</ele>
        <time>2022-01-14T12:44:04Z</time>
      </trkpt>
      <trkpt lat="46.47903" lon="5.30806">
        <ele>221.8</ele>
        <time>2022-01-14T12:44:09Z</time>
      </trkpt>
      <trkpt lat="46.47889" lon="5.30802">
        <ele>222.6</ele>
        <time>2022-01-14T12:44:12Z</time>
      </trkpt>
      <trkpt lat="46.47871" lon="5.30798">
        <ele>224</ele>
        <time>2022-01-14T12:44:16Z</time>
      </trkpt>
      <trkpt lat="46.47853" lon="5.30797">
        <ele>225.2</ele>
        <time>2022-01-14T12:44:20Z</time>
      </trkpt>
      <trkpt lat="46.47849" lon="5.30798">
        <ele>225.4</ele>
        <time>2022-01-14T12:44:21Z</time>
      </trkpt>
      <trkpt lat="46.4784" lon="5.30801">
        <ele>225.8</ele>
        <time>2022-01-14T12:44:23Z</time>
      </trkpt>
      <trkpt lat="46.47832" lon="5.30805">
        <ele>226.8</ele>
        <time>2022-01-14T12:44:25Z</time>
      </trkpt>
      <trkpt lat="46.47819" lon="5.30817">
        <ele>227.4</ele>
        <time>2022-01-14T12:44:28Z</time>
      </trkpt>
      <trkpt lat="46.47815" lon="5.30822">
        <ele>227.8</ele>
        <time>2022-01-14T12:44:29Z</time>
      </trkpt>
      <trkpt lat="46.47801" lon="5.30844">
        <ele>228.8</ele>
        <time>2022-01-14T12:44:33Z</time>
      </trkpt>
      <trkpt lat="46.47798" lon="5.3085">
        <ele>229</ele>
        <time>2022-01-14T12:44:34Z</time>
      </trkpt>
      <trkpt lat="46.47778" lon="5.30881">
        <ele>229.8</ele>
        <time>2022-01-14T12:44:39Z</time>
      </trkpt>
      <trkpt lat="46.47768" lon="5.30892">
        <ele>229.8</ele>
        <time>2022-01-14T12:44:41Z</time>
      </trkpt>
      <trkpt lat="46.47762" lon="5.30896">
        <ele>229.8</ele>
        <time>2022-01-14T12:44:42Z</time>
      </trkpt>
      <trkpt lat="46.47749" lon="5.30903">
        <ele>229.6</ele>
        <time>2022-01-14T12:44:44Z</time>
      </trkpt>
      <trkpt lat="46.47741" lon="5.30905">
        <ele>229.4</ele>
        <time>2022-01-14T12:44:45Z</time>
      </trkpt>
      <trkpt lat="46.47733" lon="5.30906">
        <ele>229.4</ele>
        <time>2022-01-14T12:44:46Z</time>
      </trkpt>
      <trkpt lat="46.47717" lon="5.30905">
        <ele>229</ele>
        <time>2022-01-14T12:44:48Z</time>
      </trkpt>
      <trkpt lat="46.47708" lon="5.30902">
        <ele>228.6</ele>
        <time>2022-01-14T12:44:49Z</time>
      </trkpt>
      <trkpt lat="46.47683" lon="5.30893">
        <ele>227.6</ele>
        <time>2022-01-14T12:44:52Z</time>
      </trkpt>
      <trkpt lat="46.47666" lon="5.30889">
        <ele>226.6</ele>
        <time>2022-01-14T12:44:54Z</time>
      </trkpt>
      <trkpt lat="46.47658" lon="5.30888">
        <ele>225.8</ele>
        <time>2022-01-14T12:44:55Z</time>
      </trkpt>
      <trkpt lat="46.47649" lon="5.30889">
        <ele>225.6</ele>
        <time>2022-01-14T12:44:56Z</time>
      </trkpt>
      <trkpt lat="46.47624" lon="5.30898">
        <ele>225</ele>
        <time>2022-01-14T12:44:59Z</time>
      </trkpt>
      <trkpt lat="46.47616" lon="5.30902">
        <ele>224.8</ele>
        <time>2022-01-14T12:45:00Z</time>
      </trkpt>
      <trkpt lat="46.47582" lon="5.30916">
        <ele>223.8</ele>
        <time>2022-01-14T12:45:04Z</time>
      </trkpt>
      <trkpt lat="46.47557" lon="5.30928">
        <ele>222.6</ele>
        <time>2022-01-14T12:45:07Z</time>
      </trkpt>
      <trkpt lat="46.47541" lon="5.30938">
        <ele>222.2</ele>
        <time>2022-01-14T12:45:09Z</time>
      </trkpt>
      <trkpt lat="46.47525" lon="5.30948">
        <ele>221.6</ele>
        <time>2022-01-14T12:45:11Z</time>
      </trkpt>
      <trkpt lat="46.47486" lon="5.30973">
        <ele>220.6</ele>
        <time>2022-01-14T12:45:16Z</time>
      </trkpt>
      <trkpt lat="46.47449" lon="5.30997">
        <ele>220.2</ele>
        <time>2022-01-14T12:45:21Z</time>
      </trkpt>
      <trkpt lat="46.47418" lon="5.31018">
        <ele>220.2</ele>
        <time>2022-01-14T12:45:26Z</time>
      </trkpt>
      <trkpt lat="46.4738" lon="5.3104">
        <ele>221.8</ele>
        <time>2022-01-14T12:45:33Z</time>
      </trkpt>
      <trkpt lat="46.47356" lon="5.31057">
        <ele>223.2</ele>
        <time>2022-01-14T12:45:38Z</time>
      </trkpt>
      <trkpt lat="46.47342" lon="5.31068">
        <ele>223.8</ele>
        <time>2022-01-14T12:45:41Z</time>
      </trkpt>
      <trkpt lat="46.47333" lon="5.31075">
        <ele>224.4</ele>
        <time>2022-01-14T12:45:43Z</time>
      </trkpt>
      <trkpt lat="46.47326" lon="5.31085">
        <ele>224.8</ele>
        <time>2022-01-14T12:45:45Z</time>
      </trkpt>
      <trkpt lat="46.47308" lon="5.3111">
        <ele>225.6</ele>
        <time>2022-01-14T12:45:49Z</time>
      </trkpt>
      <trkpt lat="46.47299" lon="5.31124">
        <ele>225.8</ele>
        <time>2022-01-14T12:45:51Z</time>
      </trkpt>
      <trkpt lat="46.47272" lon="5.31162">
        <ele>226.4</ele>
        <time>2022-01-14T12:45:57Z</time>
      </trkpt>
      <trkpt lat="46.47262" lon="5.31175">
        <ele>226.6</ele>
        <time>2022-01-14T12:45:59Z</time>
      </trkpt>
      <trkpt lat="46.47237" lon="5.31213">
        <ele>227</ele>
        <time>2022-01-14T12:46:05Z</time>
      </trkpt>
      <trkpt lat="46.47206" lon="5.31259">
        <ele>227.6</ele>
        <time>2022-01-14T12:46:12Z</time>
      </trkpt>
      <trkpt lat="46.47194" lon="5.31279">
        <ele>227.8</ele>
        <time>2022-01-14T12:46:15Z</time>
      </trkpt>
      <trkpt lat="46.47187" lon="5.31291">
        <ele>228</ele>
        <time>2022-01-14T12:46:17Z</time>
      </trkpt>
      <trkpt lat="46.47164" lon="5.31323">
        <ele>228.2</ele>
        <time>2022-01-14T12:46:22Z</time>
      </trkpt>
      <trkpt lat="46.47142" lon="5.31352">
        <ele>228.6</ele>
        <time>2022-01-14T12:46:27Z</time>
      </trkpt>
      <trkpt lat="46.47138" lon="5.31359">
        <ele>228.8</ele>
        <time>2022-01-14T12:46:28Z</time>
      </trkpt>
      <trkpt lat="46.47098" lon="5.31416">
        <ele>229</ele>
        <time>2022-01-14T12:46:37Z</time>
      </trkpt>
      <trkpt lat="46.47066" lon="5.31457">
        <ele>229</ele>
        <time>2022-01-14T12:46:44Z</time>
      </trkpt>
      <trkpt lat="46.47023" lon="5.31511">
        <ele>229.2</ele>
        <time>2022-01-14T12:46:53Z</time>
      </trkpt>
      <trkpt lat="46.46983" lon="5.31562">
        <ele>229.8</ele>
        <time>2022-01-14T12:47:02Z</time>
      </trkpt>
      <trkpt lat="46.46979" lon="5.31567">
        <ele>229.8</ele>
        <time>2022-01-14T12:47:03Z</time>
      </trkpt>
      <trkpt lat="46.46944" lon="5.31608">
        <ele>230.6</ele>
        <time>2022-01-14T12:47:11Z</time>
      </trkpt>
      <trkpt lat="46.46931" lon="5.31624">
        <ele>230.8</ele>
        <time>2022-01-14T12:47:14Z</time>
      </trkpt>
      <trkpt lat="46.46913" lon="5.31646">
        <ele>231</ele>
        <time>2022-01-14T12:47:18Z</time>
      </trkpt>
      <trkpt lat="46.46903" lon="5.31657">
        <ele>231</ele>
        <time>2022-01-14T12:47:20Z</time>
      </trkpt>
      <trkpt lat="46.46884" lon="5.31682">
        <ele>231.2</ele>
        <time>2022-01-14T12:47:24Z</time>
      </trkpt>
      <trkpt lat="46.46847" lon="5.3173">
        <ele>231.2</ele>
        <time>2022-01-14T12:47:31Z</time>
      </trkpt>
      <trkpt lat="46.46803" lon="5.31785">
        <ele>230.2</ele>
        <time>2022-01-14T12:47:39Z</time>
      </trkpt>
      <trkpt lat="46.46798" lon="5.31792">
        <ele>230.2</ele>
        <time>2022-01-14T12:47:40Z</time>
      </trkpt>
      <trkpt lat="46.46755" lon="5.31844">
        <ele>229.6</ele>
        <time>2022-01-14T12:47:48Z</time>
      </trkpt>
      <trkpt lat="46.4675" lon="5.3185">
        <ele>229.6</ele>
        <time>2022-01-14T12:47:49Z</time>
      </trkpt>
      <trkpt lat="46.46708" lon="5.31887">
        <ele>229</ele>
        <time>2022-01-14T12:47:56Z</time>
      </trkpt>
      <trkpt lat="46.4666" lon="5.31926">
        <ele>229.2</ele>
        <time>2022-01-14T12:48:04Z</time>
      </trkpt>
      <trkpt lat="46.46655" lon="5.31931">
        <ele>229.4</ele>
        <time>2022-01-14T12:48:05Z</time>
      </trkpt>
      <trkpt lat="46.46631" lon="5.31962">
        <ele>229.6</ele>
        <time>2022-01-14T12:48:10Z</time>
      </trkpt>
      <trkpt lat="46.46627" lon="5.31969">
        <ele>229.8</ele>
        <time>2022-01-14T12:48:11Z</time>
      </trkpt>
      <trkpt lat="46.46594" lon="5.32028">
        <ele>230.8</ele>
        <time>2022-01-14T12:48:19Z</time>
      </trkpt>
      <trkpt lat="46.46581" lon="5.3205">
        <ele>231</ele>
        <time>2022-01-14T12:48:22Z</time>
      </trkpt>
      <trkpt lat="46.46543" lon="5.32117">
        <ele>231.2</ele>
        <time>2022-01-14T12:48:31Z</time>
      </trkpt>
      <trkpt lat="46.46538" lon="5.32125">
        <ele>231.2</ele>
        <time>2022-01-14T12:48:32Z</time>
      </trkpt>
      <trkpt lat="46.46506" lon="5.32182">
        <ele>231.4</ele>
        <time>2022-01-14T12:48:40Z</time>
      </trkpt>
      <trkpt lat="46.46482" lon="5.32224">
        <ele>231.8</ele>
        <time>2022-01-14T12:48:46Z</time>
      </trkpt>
      <trkpt lat="46.46471" lon="5.32245">
        <ele>231.8</ele>
        <time>2022-01-14T12:48:49Z</time>
      </trkpt>
      <trkpt lat="46.46435" lon="5.32309">
        <ele>232</ele>
        <time>2022-01-14T12:48:58Z</time>
      </trkpt>
      <trkpt lat="46.46431" lon="5.32316">
        <ele>232</ele>
        <time>2022-01-14T12:48:59Z</time>
      </trkpt>
      <trkpt lat="46.46396" lon="5.32381">
        <ele>234.8</ele>
        <time>2022-01-14T12:49:08Z</time>
      </trkpt>
      <trkpt lat="46.46389" lon="5.32396">
        <ele>232.6</ele>
        <time>2022-01-14T12:49:10Z</time>
      </trkpt>
      <trkpt lat="46.46364" lon="5.32462">
        <ele>233</ele>
        <time>2022-01-14T12:49:18Z</time>
      </trkpt>
      <trkpt lat="46.4635" lon="5.32495">
        <ele>233</ele>
        <time>2022-01-14T12:49:22Z</time>
      </trkpt>
      <trkpt lat="46.46328" lon="5.32555">
        <ele>232.6</ele>
        <time>2022-01-14T12:49:29Z</time>
      </trkpt>
      <trkpt lat="46.46317" lon="5.32616">
        <ele>232.4</ele>
        <time>2022-01-14T12:49:35Z</time>
      </trkpt>
      <trkpt lat="46.46318" lon="5.3268">
        <ele>232.2</ele>
        <time>2022-01-14T12:49:41Z</time>
      </trkpt>
      <trkpt lat="46.46315" lon="5.32762">
        <ele>232.2</ele>
        <time>2022-01-14T12:49:49Z</time>
      </trkpt>
      <trkpt lat="46.46313" lon="5.32772">
        <ele>232.4</ele>
        <time>2022-01-14T12:49:50Z</time>
      </trkpt>
      <trkpt lat="46.46307" lon="5.32789">
        <ele>232.4</ele>
        <time>2022-01-14T12:49:52Z</time>
      </trkpt>
      <trkpt lat="46.46303" lon="5.32797">
        <ele>232.4</ele>
        <time>2022-01-14T12:49:53Z</time>
      </trkpt>
      <trkpt lat="46.46275" lon="5.32838">
        <ele>232.6</ele>
        <time>2022-01-14T12:49:59Z</time>
      </trkpt>
      <trkpt lat="46.4624" lon="5.32886">
        <ele>232.8</ele>
        <time>2022-01-14T12:50:06Z</time>
      </trkpt>
      <trkpt lat="46.462" lon="5.32942">
        <ele>232.8</ele>
        <time>2022-01-14T12:50:14Z</time>
      </trkpt>
      <trkpt lat="46.46195" lon="5.32948">
        <ele>232.6</ele>
        <time>2022-01-14T12:50:15Z</time>
      </trkpt>
      <trkpt lat="46.46185" lon="5.3296">
        <ele>232.6</ele>
        <time>2022-01-14T12:50:17Z</time>
      </trkpt>
      <trkpt lat="46.46173" lon="5.32967">
        <ele>232.4</ele>
        <time>2022-01-14T12:50:19Z</time>
      </trkpt>
      <trkpt lat="46.46143" lon="5.32984">
        <ele>232.6</ele>
        <time>2022-01-14T12:50:24Z</time>
      </trkpt>
      <trkpt lat="46.46138" lon="5.32987">
        <ele>232.6</ele>
        <time>2022-01-14T12:50:25Z</time>
      </trkpt>
      <trkpt lat="46.46117" lon="5.33002">
        <ele>233</ele>
        <time>2022-01-14T12:50:29Z</time>
      </trkpt>
      <trkpt lat="46.46101" lon="5.33013">
        <ele>233.4</ele>
        <time>2022-01-14T12:50:32Z</time>
      </trkpt>
      <trkpt lat="46.46065" lon="5.33038">
        <ele>234</ele>
        <time>2022-01-14T12:50:38Z</time>
      </trkpt>
      <trkpt lat="46.46054" lon="5.33049">
        <ele>234.2</ele>
        <time>2022-01-14T12:50:40Z</time>
      </trkpt>
      <trkpt lat="46.46037" lon="5.33065">
        <ele>234.4</ele>
        <time>2022-01-14T12:50:43Z</time>
      </trkpt>
      <trkpt lat="46.45992" lon="5.33108">
        <ele>234.2</ele>
        <time>2022-01-14T12:50:51Z</time>
      </trkpt>
      <trkpt lat="46.45987" lon="5.33114">
        <ele>234</ele>
        <time>2022-01-14T12:50:52Z</time>
      </trkpt>
      <trkpt lat="46.45947" lon="5.33155">
        <ele>234.4</ele>
        <time>2022-01-14T12:51:00Z</time>
      </trkpt>
      <trkpt lat="46.45904" lon="5.33202">
        <ele>235.2</ele>
        <time>2022-01-14T12:51:09Z</time>
      </trkpt>
      <trkpt lat="46.45894" lon="5.33213">
        <ele>235.2</ele>
        <time>2022-01-14T12:51:11Z</time>
      </trkpt>
      <trkpt lat="46.45856" lon="5.33259">
        <ele>235.8</ele>
        <time>2022-01-14T12:51:19Z</time>
      </trkpt>
      <trkpt lat="46.45828" lon="5.33308">
        <ele>236.2</ele>
        <time>2022-01-14T12:51:26Z</time>
      </trkpt>
      <trkpt lat="46.4582" lon="5.33323">
        <ele>236.4</ele>
        <time>2022-01-14T12:51:28Z</time>
      </trkpt>
      <trkpt lat="46.45793" lon="5.33376">
        <ele>236.4</ele>
        <time>2022-01-14T12:51:35Z</time>
      </trkpt>
      <trkpt lat="46.45769" lon="5.33427">
        <ele>236.8</ele>
        <time>2022-01-14T12:51:42Z</time>
      </trkpt>
      <trkpt lat="46.45756" lon="5.33457">
        <ele>237</ele>
        <time>2022-01-14T12:51:46Z</time>
      </trkpt>
      <trkpt lat="46.45747" lon="5.33479">
        <ele>237.6</ele>
        <time>2022-01-14T12:51:49Z</time>
      </trkpt>
      <trkpt lat="46.45728" lon="5.33524">
        <ele>238</ele>
        <time>2022-01-14T12:51:55Z</time>
      </trkpt>
      <trkpt lat="46.45725" lon="5.33532">
        <ele>238</ele>
        <time>2022-01-14T12:51:56Z</time>
      </trkpt>
      <trkpt lat="46.45712" lon="5.33561">
        <ele>238.6</ele>
        <time>2022-01-14T12:52:00Z</time>
      </trkpt>
      <trkpt lat="46.45692" lon="5.33609">
        <ele>239.6</ele>
        <time>2022-01-14T12:52:07Z</time>
      </trkpt>
      <trkpt lat="46.45686" lon="5.33624">
        <ele>240</ele>
        <time>2022-01-14T12:52:09Z</time>
      </trkpt>
      <trkpt lat="46.45667" lon="5.33668">
        <ele>240.6</ele>
        <time>2022-01-14T12:52:15Z</time>
      </trkpt>
      <trkpt lat="46.45665" lon="5.33675">
        <ele>241</ele>
        <time>2022-01-14T12:52:16Z</time>
      </trkpt>
      <trkpt lat="46.45647" lon="5.33716">
        <ele>241.8</ele>
        <time>2022-01-14T12:52:22Z</time>
      </trkpt>
      <trkpt lat="46.45642" lon="5.33729">
        <ele>242</ele>
        <time>2022-01-14T12:52:24Z</time>
      </trkpt>
      <trkpt lat="46.4563" lon="5.33755">
        <ele>242.6</ele>
        <time>2022-01-14T12:52:28Z</time>
      </trkpt>
      <trkpt lat="46.45625" lon="5.33767">
        <ele>243</ele>
        <time>2022-01-14T12:52:30Z</time>
      </trkpt>
      <trkpt lat="46.45623" lon="5.33774">
        <ele>243</ele>
        <time>2022-01-14T12:52:31Z</time>
      </trkpt>
      <trkpt lat="46.45607" lon="5.33815">
        <ele>244</ele>
        <time>2022-01-14T12:52:37Z</time>
      </trkpt>
      <trkpt lat="46.45605" lon="5.33822">
        <ele>244.2</ele>
        <time>2022-01-14T12:52:38Z</time>
      </trkpt>
      <trkpt lat="46.45585" lon="5.33868">
        <ele>245.2</ele>
        <time>2022-01-14T12:52:45Z</time>
      </trkpt>
      <trkpt lat="46.45579" lon="5.33881">
        <ele>245.6</ele>
        <time>2022-01-14T12:52:47Z</time>
      </trkpt>
      <trkpt lat="46.45569" lon="5.33905">
        <ele>246.2</ele>
        <time>2022-01-14T12:52:51Z</time>
      </trkpt>
      <trkpt lat="46.45562" lon="5.33923">
        <ele>246.4</ele>
        <time>2022-01-14T12:52:54Z</time>
      </trkpt>
      <trkpt lat="46.45558" lon="5.3393">
        <ele>246.6</ele>
        <time>2022-01-14T12:52:55Z</time>
      </trkpt>
      <trkpt lat="46.45554" lon="5.33941">
        <ele>247</ele>
        <time>2022-01-14T12:52:57Z</time>
      </trkpt>
      <trkpt lat="46.45551" lon="5.33948">
        <ele>247.4</ele>
        <time>2022-01-14T12:52:58Z</time>
      </trkpt>
      <trkpt lat="46.45545" lon="5.3396">
        <ele>247.8</ele>
        <time>2022-01-14T12:53:00Z</time>
      </trkpt>
      <trkpt lat="46.45542" lon="5.33964">
        <ele>248.2</ele>
        <time>2022-01-14T12:53:01Z</time>
      </trkpt>
      <trkpt lat="46.45539" lon="5.33971">
        <ele>248.4</ele>
        <time>2022-01-14T12:53:02Z</time>
      </trkpt>
      <trkpt lat="46.45537" lon="5.33985">
        <ele>248.8</ele>
        <time>2022-01-14T12:53:04Z</time>
      </trkpt>
      <trkpt lat="46.45543" lon="5.33996">
        <ele>249.2</ele>
        <time>2022-01-14T12:53:06Z</time>
      </trkpt>
      <trkpt lat="46.45547" lon="5.34">
        <ele>249.4</ele>
        <time>2022-01-14T12:53:07Z</time>
      </trkpt>
      <trkpt lat="46.45559" lon="5.34012">
        <ele>250</ele>
        <time>2022-01-14T12:53:10Z</time>
      </trkpt>
      <trkpt lat="46.45565" lon="5.34023">
        <ele>250</ele>
        <time>2022-01-14T12:53:12Z</time>
      </trkpt>
      <trkpt lat="46.45568" lon="5.34037">
        <ele>250.2</ele>
        <time>2022-01-14T12:53:14Z</time>
      </trkpt>
      <trkpt lat="46.45569" lon="5.34051">
        <ele>250.4</ele>
        <time>2022-01-14T12:53:16Z</time>
      </trkpt>
      <trkpt lat="46.45569" lon="5.34058">
        <ele>250.8</ele>
        <time>2022-01-14T12:53:17Z</time>
      </trkpt>
      <trkpt lat="46.45569" lon="5.34064">
        <ele>250.8</ele>
        <time>2022-01-14T12:53:18Z</time>
      </trkpt>
      <trkpt lat="46.45568" lon="5.34097">
        <ele>251.8</ele>
        <time>2022-01-14T12:53:23Z</time>
      </trkpt>
      <trkpt lat="46.45567" lon="5.34103">
        <ele>252</ele>
        <time>2022-01-14T12:53:24Z</time>
      </trkpt>
      <trkpt lat="46.45567" lon="5.34142">
        <ele>253</ele>
        <time>2022-01-14T12:53:30Z</time>
      </trkpt>
      <trkpt lat="46.45566" lon="5.34155">
        <ele>253.4</ele>
        <time>2022-01-14T12:53:32Z</time>
      </trkpt>
      <trkpt lat="46.45567" lon="5.34166">
        <ele>253.8</ele>
        <time>2022-01-14T12:53:34Z</time>
      </trkpt>
      <trkpt lat="46.45567" lon="5.34178">
        <ele>254.4</ele>
        <time>2022-01-14T12:53:36Z</time>
      </trkpt>
      <trkpt lat="46.4557" lon="5.34208">
        <ele>255.8</ele>
        <time>2022-01-14T12:53:41Z</time>
      </trkpt>
      <trkpt lat="46.45572" lon="5.34239">
        <ele>256.8</ele>
        <time>2022-01-14T12:53:46Z</time>
      </trkpt>
      <trkpt lat="46.45573" lon="5.3425">
        <ele>257.2</ele>
        <time>2022-01-14T12:53:48Z</time>
      </trkpt>
      <trkpt lat="46.45573" lon="5.34261">
        <ele>258</ele>
        <time>2022-01-14T12:53:50Z</time>
      </trkpt>
      <trkpt lat="46.45574" lon="5.34275">
        <ele>258.6</ele>
        <time>2022-01-14T12:53:53Z</time>
      </trkpt>
      <trkpt lat="46.45576" lon="5.34284">
        <ele>259.6</ele>
        <time>2022-01-14T12:53:55Z</time>
      </trkpt>
      <trkpt lat="46.45579" lon="5.34303">
        <ele>260.6</ele>
        <time>2022-01-14T12:53:59Z</time>
      </trkpt>
      <trkpt lat="46.45584" lon="5.34324">
        <ele>262</ele>
        <time>2022-01-14T12:54:04Z</time>
      </trkpt>
      <trkpt lat="46.45586" lon="5.34333">
        <ele>262.6</ele>
        <time>2022-01-14T12:54:06Z</time>
      </trkpt>
      <trkpt lat="46.45589" lon="5.34343">
        <ele>263.2</ele>
        <time>2022-01-14T12:54:08Z</time>
      </trkpt>
      <trkpt lat="46.45595" lon="5.34371">
        <ele>264.6</ele>
        <time>2022-01-14T12:54:13Z</time>
      </trkpt>
      <trkpt lat="46.45596" lon="5.34377">
        <ele>264.8</ele>
        <time>2022-01-14T12:54:14Z</time>
      </trkpt>
      <trkpt lat="46.45597" lon="5.34383">
        <ele>265</ele>
        <time>2022-01-14T12:54:15Z</time>
      </trkpt>
      <trkpt lat="46.45597" lon="5.34417">
        <ele>265.6</ele>
        <time>2022-01-14T12:54:21Z</time>
      </trkpt>
      <trkpt lat="46.45592" lon="5.34464">
        <ele>265.8</ele>
        <time>2022-01-14T12:54:27Z</time>
      </trkpt>
      <trkpt lat="46.45588" lon="5.34493">
        <ele>265.4</ele>
        <time>2022-01-14T12:54:30Z</time>
      </trkpt>
      <trkpt lat="46.4559" lon="5.34512">
        <ele>265</ele>
        <time>2022-01-14T12:54:32Z</time>
      </trkpt>
      <trkpt lat="46.45596" lon="5.34529">
        <ele>264.6</ele>
        <time>2022-01-14T12:54:34Z</time>
      </trkpt>
      <trkpt lat="46.45601" lon="5.34535">
        <ele>264.6</ele>
        <time>2022-01-14T12:54:35Z</time>
      </trkpt>
      <trkpt lat="46.4561" lon="5.34547">
        <ele>264.4</ele>
        <time>2022-01-14T12:54:37Z</time>
      </trkpt>
      <trkpt lat="46.4563" lon="5.34566">
        <ele>264.2</ele>
        <time>2022-01-14T12:54:41Z</time>
      </trkpt>
      <trkpt lat="46.4566" lon="5.34595">
        <ele>265</ele>
        <time>2022-01-14T12:54:48Z</time>
      </trkpt>
      <trkpt lat="46.45665" lon="5.34598">
        <ele>265.2</ele>
        <time>2022-01-14T12:54:49Z</time>
      </trkpt>
      <trkpt lat="46.45674" lon="5.34598">
        <ele>265.6</ele>
        <time>2022-01-14T12:54:51Z</time>
      </trkpt>
      <trkpt lat="46.45678" lon="5.34594">
        <ele>265.6</ele>
        <time>2022-01-14T12:54:52Z</time>
      </trkpt>
      <trkpt lat="46.45682" lon="5.34589">
        <ele>265.6</ele>
        <time>2022-01-14T12:54:53Z</time>
      </trkpt>
      <trkpt lat="46.45691" lon="5.34578">
        <ele>265.8</ele>
        <time>2022-01-14T12:54:55Z</time>
      </trkpt>
      <trkpt lat="46.45702" lon="5.3457">
        <ele>265.8</ele>
        <time>2022-01-14T12:54:57Z</time>
      </trkpt>
      <trkpt lat="46.45714" lon="5.34567">
        <ele>265.8</ele>
        <time>2022-01-14T12:54:59Z</time>
      </trkpt>
      <trkpt lat="46.4575" lon="5.34576">
        <ele>265</ele>
        <time>2022-01-14T12:55:04Z</time>
      </trkpt>
      <trkpt lat="46.45772" lon="5.34584">
        <ele>264.6</ele>
        <time>2022-01-14T12:55:07Z</time>
      </trkpt>
      <trkpt lat="46.45794" lon="5.34592">
        <ele>263.4</ele>
        <time>2022-01-14T12:55:10Z</time>
      </trkpt>
      <trkpt lat="46.45808" lon="5.34598">
        <ele>263.2</ele>
        <time>2022-01-14T12:55:12Z</time>
      </trkpt>
      <trkpt lat="46.45851" lon="5.34613">
        <ele>262.4</ele>
        <time>2022-01-14T12:55:18Z</time>
      </trkpt>
      <trkpt lat="46.45858" lon="5.34613">
        <ele>262.4</ele>
        <time>2022-01-14T12:55:19Z</time>
      </trkpt>
      <trkpt lat="46.45865" lon="5.34611">
        <ele>262.2</ele>
        <time>2022-01-14T12:55:20Z</time>
      </trkpt>
      <trkpt lat="46.4589" lon="5.34596">
        <ele>262</ele>
        <time>2022-01-14T12:55:24Z</time>
      </trkpt>
      <trkpt lat="46.45904" lon="5.34595">
        <ele>261.8</ele>
        <time>2022-01-14T12:55:26Z</time>
      </trkpt>
      <trkpt lat="46.45919" lon="5.34598">
        <ele>261.6</ele>
        <time>2022-01-14T12:55:28Z</time>
      </trkpt>
      <trkpt lat="46.45949" lon="5.34607">
        <ele>261.4</ele>
        <time>2022-01-14T12:55:32Z</time>
      </trkpt>
      <trkpt lat="46.45979" lon="5.34614">
        <ele>260.6</ele>
        <time>2022-01-14T12:55:36Z</time>
      </trkpt>
      <trkpt lat="46.45986" lon="5.34615">
        <ele>260.4</ele>
        <time>2022-01-14T12:55:37Z</time>
      </trkpt>
      <trkpt lat="46.46037" lon="5.34622">
        <ele>259.6</ele>
        <time>2022-01-14T12:55:44Z</time>
      </trkpt>
      <trkpt lat="46.46067" lon="5.34628">
        <ele>259.8</ele>
        <time>2022-01-14T12:55:49Z</time>
      </trkpt>
      <trkpt lat="46.46078" lon="5.34626">
        <ele>260</ele>
        <time>2022-01-14T12:55:51Z</time>
      </trkpt>
      <trkpt lat="46.46094" lon="5.34626">
        <ele>260</ele>
        <time>2022-01-14T12:55:54Z</time>
      </trkpt>
      <trkpt lat="46.46099" lon="5.34626">
        <ele>260</ele>
        <time>2022-01-14T12:55:55Z</time>
      </trkpt>
      <trkpt lat="46.46123" lon="5.34634">
        <ele>260.8</ele>
        <time>2022-01-14T12:55:59Z</time>
      </trkpt>
      <trkpt lat="46.46154" lon="5.34652">
        <ele>261.2</ele>
        <time>2022-01-14T12:56:04Z</time>
      </trkpt>
      <trkpt lat="46.46195" lon="5.34674">
        <ele>260.8</ele>
        <time>2022-01-14T12:56:11Z</time>
      </trkpt>
      <trkpt lat="46.46214" lon="5.34682">
        <ele>260.6</ele>
        <time>2022-01-14T12:56:14Z</time>
      </trkpt>
      <trkpt lat="46.46226" lon="5.34689">
        <ele>260.2</ele>
        <time>2022-01-14T12:56:16Z</time>
      </trkpt>
      <trkpt lat="46.46251" lon="5.34701">
        <ele>259.2</ele>
        <time>2022-01-14T12:56:20Z</time>
      </trkpt>
      <trkpt lat="46.46258" lon="5.34705">
        <ele>259</ele>
        <time>2022-01-14T12:56:21Z</time>
      </trkpt>
      <trkpt lat="46.46288" lon="5.34715">
        <ele>257.8</ele>
        <time>2022-01-14T12:56:25Z</time>
      </trkpt>
      <trkpt lat="46.46296" lon="5.34718">
        <ele>257.4</ele>
        <time>2022-01-14T12:56:26Z</time>
      </trkpt>
      <trkpt lat="46.46321" lon="5.34734">
        <ele>256.6</ele>
        <time>2022-01-14T12:56:29Z</time>
      </trkpt>
      <trkpt lat="46.4633" lon="5.3474">
        <ele>256.6</ele>
        <time>2022-01-14T12:56:30Z</time>
      </trkpt>
      <trkpt lat="46.46339" lon="5.34747">
        <ele>255.8</ele>
        <time>2022-01-14T12:56:31Z</time>
      </trkpt>
      <trkpt lat="46.46348" lon="5.34756">
        <ele>255.4</ele>
        <time>2022-01-14T12:56:32Z</time>
      </trkpt>
      <trkpt lat="46.46356" lon="5.34768">
        <ele>255.4</ele>
        <time>2022-01-14T12:56:33Z</time>
      </trkpt>
      <trkpt lat="46.46368" lon="5.34798">
        <ele>254.2</ele>
        <time>2022-01-14T12:56:35Z</time>
      </trkpt>
      <trkpt lat="46.46373" lon="5.34814">
        <ele>253</ele>
        <time>2022-01-14T12:56:36Z</time>
      </trkpt>
      <trkpt lat="46.46383" lon="5.34846">
        <ele>251.2</ele>
        <time>2022-01-14T12:56:38Z</time>
      </trkpt>
      <trkpt lat="46.46392" lon="5.34877">
        <ele>249</ele>
        <time>2022-01-14T12:56:40Z</time>
      </trkpt>
      <trkpt lat="46.46396" lon="5.34892">
        <ele>247.8</ele>
        <time>2022-01-14T12:56:41Z</time>
      </trkpt>
      <trkpt lat="46.46401" lon="5.34907">
        <ele>247.2</ele>
        <time>2022-01-14T12:56:42Z</time>
      </trkpt>
      <trkpt lat="46.46406" lon="5.34921">
        <ele>246.6</ele>
        <time>2022-01-14T12:56:43Z</time>
      </trkpt>
      <trkpt lat="46.46416" lon="5.34947">
        <ele>245.4</ele>
        <time>2022-01-14T12:56:45Z</time>
      </trkpt>
      <trkpt lat="46.46421" lon="5.3496">
        <ele>244.8</ele>
        <time>2022-01-14T12:56:46Z</time>
      </trkpt>
      <trkpt lat="46.46428" lon="5.34971">
        <ele>243.6</ele>
        <time>2022-01-14T12:56:47Z</time>
      </trkpt>
      <trkpt lat="46.46435" lon="5.3498">
        <ele>243.2</ele>
        <time>2022-01-14T12:56:48Z</time>
      </trkpt>
      <trkpt lat="46.46442" lon="5.34987">
        <ele>242.6</ele>
        <time>2022-01-14T12:56:49Z</time>
      </trkpt>
      <trkpt lat="46.46449" lon="5.34992">
        <ele>242.2</ele>
        <time>2022-01-14T12:56:50Z</time>
      </trkpt>
      <trkpt lat="46.46471" lon="5.35002">
        <ele>242</ele>
        <time>2022-01-14T12:56:53Z</time>
      </trkpt>
      <trkpt lat="46.465" lon="5.35022">
        <ele>242.6</ele>
        <time>2022-01-14T12:56:58Z</time>
      </trkpt>
      <trkpt lat="46.4652" lon="5.35041">
        <ele>243.6</ele>
        <time>2022-01-14T12:57:02Z</time>
      </trkpt>
      <trkpt lat="46.46528" lon="5.3505">
        <ele>244</ele>
        <time>2022-01-14T12:57:04Z</time>
      </trkpt>
      <trkpt lat="46.46539" lon="5.35064">
        <ele>244.6</ele>
        <time>2022-01-14T12:57:07Z</time>
      </trkpt>
      <trkpt lat="46.46553" lon="5.35082">
        <ele>245.2</ele>
        <time>2022-01-14T12:57:10Z</time>
      </trkpt>
      <trkpt lat="46.46573" lon="5.35117">
        <ele>245.6</ele>
        <time>2022-01-14T12:57:14Z</time>
      </trkpt>
      <trkpt lat="46.46583" lon="5.35132">
        <ele>245.4</ele>
        <time>2022-01-14T12:57:16Z</time>
      </trkpt>
      <trkpt lat="46.46596" lon="5.35144">
        <ele>245.2</ele>
        <time>2022-01-14T12:57:18Z</time>
      </trkpt>
      <trkpt lat="46.46602" lon="5.3515">
        <ele>245</ele>
        <time>2022-01-14T12:57:19Z</time>
      </trkpt>
      <trkpt lat="46.46615" lon="5.3517">
        <ele>245</ele>
        <time>2022-01-14T12:57:22Z</time>
      </trkpt>
      <trkpt lat="46.46631" lon="5.35199">
        <ele>245.4</ele>
        <time>2022-01-14T12:57:27Z</time>
      </trkpt>
      <trkpt lat="46.46634" lon="5.35204">
        <ele>245.6</ele>
        <time>2022-01-14T12:57:28Z</time>
      </trkpt>
      <trkpt lat="46.46644" lon="5.35219">
        <ele>246.8</ele>
        <time>2022-01-14T12:57:32Z</time>
      </trkpt>
      <trkpt lat="46.46647" lon="5.35223">
        <ele>246.8</ele>
        <time>2022-01-14T12:57:33Z</time>
      </trkpt>
      <trkpt lat="46.46655" lon="5.35237">
        <ele>248.2</ele>
        <time>2022-01-14T12:57:37Z</time>
      </trkpt>
      <trkpt lat="46.4666" lon="5.35249">
        <ele>249.4</ele>
        <time>2022-01-14T12:57:40Z</time>
      </trkpt>
      <trkpt lat="46.46661" lon="5.35253">
        <ele>250</ele>
        <time>2022-01-14T12:57:41Z</time>
      </trkpt>
      <trkpt lat="46.46662" lon="5.35262">
        <ele>251</ele>
        <time>2022-01-14T12:57:43Z</time>
      </trkpt>
      <trkpt lat="46.4666" lon="5.35278">
        <ele>252.2</ele>
        <time>2022-01-14T12:57:46Z</time>
      </trkpt>
      <trkpt lat="46.46657" lon="5.35307">
        <ele>253.4</ele>
        <time>2022-01-14T12:57:51Z</time>
      </trkpt>
      <trkpt lat="46.46657" lon="5.35319">
        <ele>253.6</ele>
        <time>2022-01-14T12:57:53Z</time>
      </trkpt>
      <trkpt lat="46.46659" lon="5.35337">
        <ele>254</ele>
        <time>2022-01-14T12:57:56Z</time>
      </trkpt>
      <trkpt lat="46.46662" lon="5.35348">
        <ele>254.4</ele>
        <time>2022-01-14T12:57:58Z</time>
      </trkpt>
      <trkpt lat="46.46664" lon="5.35354">
        <ele>254.6</ele>
        <time>2022-01-14T12:57:59Z</time>
      </trkpt>
      <trkpt lat="46.46683" lon="5.354">
        <ele>255.4</ele>
        <time>2022-01-14T12:58:07Z</time>
      </trkpt>
      <trkpt lat="46.46686" lon="5.35406">
        <ele>255.6</ele>
        <time>2022-01-14T12:58:08Z</time>
      </trkpt>
      <trkpt lat="46.46707" lon="5.35459">
        <ele>256</ele>
        <time>2022-01-14T12:58:16Z</time>
      </trkpt>
      <trkpt lat="46.46715" lon="5.35488">
        <ele>256</ele>
        <time>2022-01-14T12:58:20Z</time>
      </trkpt>
      <trkpt lat="46.46716" lon="5.35496">
        <ele>256</ele>
        <time>2022-01-14T12:58:21Z</time>
      </trkpt>
      <trkpt lat="46.46716" lon="5.35505">
        <ele>256</ele>
        <time>2022-01-14T12:58:22Z</time>
      </trkpt>
      <trkpt lat="46.46711" lon="5.35521">
        <ele>256</ele>
        <time>2022-01-14T12:58:24Z</time>
      </trkpt>
      <trkpt lat="46.46708" lon="5.35529">
        <ele>256</ele>
        <time>2022-01-14T12:58:25Z</time>
      </trkpt>
      <trkpt lat="46.46701" lon="5.35544">
        <ele>256</ele>
        <time>2022-01-14T12:58:27Z</time>
      </trkpt>
      <trkpt lat="46.46693" lon="5.35569">
        <ele>255.6</ele>
        <time>2022-01-14T12:58:30Z</time>
      </trkpt>
      <trkpt lat="46.46695" lon="5.35587">
        <ele>255.2</ele>
        <time>2022-01-14T12:58:32Z</time>
      </trkpt>
      <trkpt lat="46.46698" lon="5.35594">
        <ele>255.2</ele>
        <time>2022-01-14T12:58:33Z</time>
      </trkpt>
      <trkpt lat="46.46701" lon="5.35601">
        <ele>255.2</ele>
        <time>2022-01-14T12:58:34Z</time>
      </trkpt>
      <trkpt lat="46.46705" lon="5.35606">
        <ele>255.2</ele>
        <time>2022-01-14T12:58:35Z</time>
      </trkpt>
      <trkpt lat="46.46712" lon="5.35617">
        <ele>255.2</ele>
        <time>2022-01-14T12:58:37Z</time>
      </trkpt>
      <trkpt lat="46.46715" lon="5.35621">
        <ele>255.2</ele>
        <time>2022-01-14T12:58:38Z</time>
      </trkpt>
      <trkpt lat="46.46729" lon="5.35636">
        <ele>256.6</ele>
        <time>2022-01-14T12:58:42Z</time>
      </trkpt>
      <trkpt lat="46.46746" lon="5.35655">
        <ele>257.8</ele>
        <time>2022-01-14T12:58:47Z</time>
      </trkpt>
      <trkpt lat="46.46755" lon="5.35666">
        <ele>258.6</ele>
        <time>2022-01-14T12:58:50Z</time>
      </trkpt>
      <trkpt lat="46.46758" lon="5.3567">
        <ele>258.8</ele>
        <time>2022-01-14T12:58:51Z</time>
      </trkpt>
      <trkpt lat="46.46768" lon="5.35686">
        <ele>260.4</ele>
        <time>2022-01-14T12:58:55Z</time>
      </trkpt>
      <trkpt lat="46.46773" lon="5.35694">
        <ele>261</ele>
        <time>2022-01-14T12:58:57Z</time>
      </trkpt>
      <trkpt lat="46.46778" lon="5.35702">
        <ele>261.6</ele>
        <time>2022-01-14T12:58:59Z</time>
      </trkpt>
      <trkpt lat="46.46786" lon="5.35722">
        <ele>263</ele>
        <time>2022-01-14T12:59:04Z</time>
      </trkpt>
      <trkpt lat="46.46792" lon="5.35739">
        <ele>264.2</ele>
        <time>2022-01-14T12:59:08Z</time>
      </trkpt>
      <trkpt lat="46.46799" lon="5.35751">
        <ele>265.4</ele>
        <time>2022-01-14T12:59:11Z</time>
      </trkpt>
      <trkpt lat="46.46812" lon="5.35764">
        <ele>266.4</ele>
        <time>2022-01-14T12:59:15Z</time>
      </trkpt>
      <trkpt lat="46.46822" lon="5.35773">
        <ele>267</ele>
        <time>2022-01-14T12:59:18Z</time>
      </trkpt>
      <trkpt lat="46.46829" lon="5.35779">
        <ele>267.6</ele>
        <time>2022-01-14T12:59:20Z</time>
      </trkpt>
      <trkpt lat="46.46862" lon="5.35813">
        <ele>268.6</ele>
        <time>2022-01-14T12:59:29Z</time>
      </trkpt>
      <trkpt lat="46.4687" lon="5.35821">
        <ele>268.8</ele>
        <time>2022-01-14T12:59:31Z</time>
      </trkpt>
      <trkpt lat="46.46879" lon="5.35825">
        <ele>269</ele>
        <time>2022-01-14T12:59:33Z</time>
      </trkpt>
      <trkpt lat="46.46884" lon="5.35825">
        <ele>269</ele>
        <time>2022-01-14T12:59:34Z</time>
      </trkpt>
      <trkpt lat="46.46889" lon="5.35822">
        <ele>269.2</ele>
        <time>2022-01-14T12:59:35Z</time>
      </trkpt>
      <trkpt lat="46.46903" lon="5.35809">
        <ele>269.2</ele>
        <time>2022-01-14T12:59:38Z</time>
      </trkpt>
      <trkpt lat="46.46917" lon="5.35791">
        <ele>269.2</ele>
        <time>2022-01-14T12:59:41Z</time>
      </trkpt>
      <trkpt lat="46.46925" lon="5.35777">
        <ele>269</ele>
        <time>2022-01-14T12:59:43Z</time>
      </trkpt>
      <trkpt lat="46.46929" lon="5.3577">
        <ele>269</ele>
        <time>2022-01-14T12:59:44Z</time>
      </trkpt>
      <trkpt lat="46.4694" lon="5.35763">
        <ele>268.8</ele>
        <time>2022-01-14T12:59:46Z</time>
      </trkpt>
      <trkpt lat="46.4695" lon="5.35762">
        <ele>268.6</ele>
        <time>2022-01-14T12:59:48Z</time>
      </trkpt>
      <trkpt lat="46.46959" lon="5.35766">
        <ele>268.6</ele>
        <time>2022-01-14T12:59:50Z</time>
      </trkpt>
      <trkpt lat="46.46966" lon="5.35774">
        <ele>268.8</ele>
        <time>2022-01-14T12:59:52Z</time>
      </trkpt>
      <trkpt lat="46.46971" lon="5.35783">
        <ele>269.2</ele>
        <time>2022-01-14T12:59:54Z</time>
      </trkpt>
      <trkpt lat="46.46975" lon="5.35788">
        <ele>269.6</ele>
        <time>2022-01-14T12:59:55Z</time>
      </trkpt>
      <trkpt lat="46.46981" lon="5.35799">
        <ele>270.8</ele>
        <time>2022-01-14T12:59:58Z</time>
      </trkpt>
      <trkpt lat="46.46983" lon="5.35802">
        <ele>271</ele>
        <time>2022-01-14T12:59:59Z</time>
      </trkpt>
      <trkpt lat="46.4699" lon="5.35815">
        <ele>272.2</ele>
        <time>2022-01-14T13:00:02Z</time>
      </trkpt>
      <trkpt lat="46.46996" lon="5.35828">
        <ele>273</ele>
        <time>2022-01-14T13:00:05Z</time>
      </trkpt>
      <trkpt lat="46.46998" lon="5.35832">
        <ele>273.2</ele>
        <time>2022-01-14T13:00:06Z</time>
      </trkpt>
      <trkpt lat="46.47002" lon="5.35847">
        <ele>274.4</ele>
        <time>2022-01-14T13:00:09Z</time>
      </trkpt>
      <trkpt lat="46.47004" lon="5.35856">
        <ele>275</ele>
        <time>2022-01-14T13:00:11Z</time>
      </trkpt>
      <trkpt lat="46.4701" lon="5.35861">
        <ele>275.6</ele>
        <time>2022-01-14T13:00:13Z</time>
      </trkpt>
      <trkpt lat="46.47014" lon="5.35861">
        <ele>275.8</ele>
        <time>2022-01-14T13:00:14Z</time>
      </trkpt>
      <trkpt lat="46.47038" lon="5.3586">
        <ele>276.6</ele>
        <time>2022-01-14T13:00:18Z</time>
      </trkpt>
      <trkpt lat="46.47051" lon="5.35863">
        <ele>276.6</ele>
        <time>2022-01-14T13:00:20Z</time>
      </trkpt>
      <trkpt lat="46.47063" lon="5.35869">
        <ele>276.6</ele>
        <time>2022-01-14T13:00:22Z</time>
      </trkpt>
      <trkpt lat="46.47107" lon="5.35899">
        <ele>275.2</ele>
        <time>2022-01-14T13:00:29Z</time>
      </trkpt>
      <trkpt lat="46.47144" lon="5.35924">
        <ele>275.4</ele>
        <time>2022-01-14T13:00:36Z</time>
      </trkpt>
      <trkpt lat="46.47182" lon="5.3595">
        <ele>276.4</ele>
        <time>2022-01-14T13:00:44Z</time>
      </trkpt>
      <trkpt lat="46.47197" lon="5.3596">
        <ele>276.8</ele>
        <time>2022-01-14T13:00:47Z</time>
      </trkpt>
      <trkpt lat="46.47239" lon="5.3599">
        <ele>277.8</ele>
        <time>2022-01-14T13:00:56Z</time>
      </trkpt>
      <trkpt lat="46.47243" lon="5.35994">
        <ele>277.8</ele>
        <time>2022-01-14T13:00:57Z</time>
      </trkpt>
      <trkpt lat="46.47266" lon="5.3601">
        <ele>278.6</ele>
        <time>2022-01-14T13:01:02Z</time>
      </trkpt>
      <trkpt lat="46.47276" lon="5.36014">
        <ele>278.8</ele>
        <time>2022-01-14T13:01:04Z</time>
      </trkpt>
      <trkpt lat="46.47281" lon="5.36016">
        <ele>278.8</ele>
        <time>2022-01-14T13:01:05Z</time>
      </trkpt>
      <trkpt lat="46.47286" lon="5.36017">
        <ele>279</ele>
        <time>2022-01-14T13:01:06Z</time>
      </trkpt>
      <trkpt lat="46.47304" lon="5.36016">
        <ele>279.6</ele>
        <time>2022-01-14T13:01:10Z</time>
      </trkpt>
      <trkpt lat="46.4732" lon="5.36009">
        <ele>280.2</ele>
        <time>2022-01-14T13:01:14Z</time>
      </trkpt>
      <trkpt lat="46.47323" lon="5.36007">
        <ele>280.2</ele>
        <time>2022-01-14T13:01:15Z</time>
      </trkpt>
      <trkpt lat="46.47341" lon="5.35996">
        <ele>281.4</ele>
        <time>2022-01-14T13:01:20Z</time>
      </trkpt>
      <trkpt lat="46.47353" lon="5.3599">
        <ele>282.2</ele>
        <time>2022-01-14T13:01:23Z</time>
      </trkpt>
      <trkpt lat="46.47361" lon="5.35987">
        <ele>282.8</ele>
        <time>2022-01-14T13:01:25Z</time>
      </trkpt>
      <trkpt lat="46.47381" lon="5.35984">
        <ele>284.2</ele>
        <time>2022-01-14T13:01:30Z</time>
      </trkpt>
      <trkpt lat="46.47407" lon="5.35991">
        <ele>285.2</ele>
        <time>2022-01-14T13:01:36Z</time>
      </trkpt>
      <trkpt lat="46.47422" lon="5.35996">
        <ele>286</ele>
        <time>2022-01-14T13:01:39Z</time>
      </trkpt>
      <trkpt lat="46.47427" lon="5.35997">
        <ele>286.2</ele>
        <time>2022-01-14T13:01:40Z</time>
      </trkpt>
      <trkpt lat="46.47446" lon="5.36003">
        <ele>286.6</ele>
        <time>2022-01-14T13:01:44Z</time>
      </trkpt>
      <trkpt lat="46.47457" lon="5.36005">
        <ele>286.8</ele>
        <time>2022-01-14T13:01:46Z</time>
      </trkpt>
      <trkpt lat="46.47467" lon="5.36005">
        <ele>287</ele>
        <time>2022-01-14T13:01:48Z</time>
      </trkpt>
      <trkpt lat="46.47476" lon="5.36002">
        <ele>287</ele>
        <time>2022-01-14T13:01:50Z</time>
      </trkpt>
      <trkpt lat="46.4748" lon="5.35999">
        <ele>287</ele>
        <time>2022-01-14T13:01:51Z</time>
      </trkpt>
      <trkpt lat="46.47482" lon="5.35994">
        <ele>287.2</ele>
        <time>2022-01-14T13:01:52Z</time>
      </trkpt>
      <trkpt lat="46.47484" lon="5.35989">
        <ele>287.2</ele>
        <time>2022-01-14T13:01:53Z</time>
      </trkpt>
      <trkpt lat="46.47485" lon="5.35982">
        <ele>287.2</ele>
        <time>2022-01-14T13:01:54Z</time>
      </trkpt>
      <trkpt lat="46.47494" lon="5.35945">
        <ele>287.6</ele>
        <time>2022-01-14T13:01:59Z</time>
      </trkpt>
      <trkpt lat="46.47494" lon="5.35938">
        <ele>287.6</ele>
        <time>2022-01-14T13:02:00Z</time>
      </trkpt>
      <trkpt lat="46.47494" lon="5.35909">
        <ele>287.6</ele>
        <time>2022-01-14T13:02:03Z</time>
      </trkpt>
      <trkpt lat="46.47497" lon="5.35889">
        <ele>287.4</ele>
        <time>2022-01-14T13:02:05Z</time>
      </trkpt>
      <trkpt lat="46.4751" lon="5.35839">
        <ele>285.8</ele>
        <time>2022-01-14T13:02:10Z</time>
      </trkpt>
      <trkpt lat="46.47515" lon="5.35832">
        <ele>285.6</ele>
        <time>2022-01-14T13:02:11Z</time>
      </trkpt>
      <trkpt lat="46.47521" lon="5.35828">
        <ele>285</ele>
        <time>2022-01-14T13:02:12Z</time>
      </trkpt>
      <trkpt lat="46.47528" lon="5.35824">
        <ele>284.6</ele>
        <time>2022-01-14T13:02:13Z</time>
      </trkpt>
      <trkpt lat="46.47535" lon="5.35823">
        <ele>284.2</ele>
        <time>2022-01-14T13:02:14Z</time>
      </trkpt>
      <trkpt lat="46.47544" lon="5.35824">
        <ele>283.4</ele>
        <time>2022-01-14T13:02:15Z</time>
      </trkpt>
      <trkpt lat="46.47561" lon="5.35828">
        <ele>282</ele>
        <time>2022-01-14T13:02:17Z</time>
      </trkpt>
      <trkpt lat="46.47578" lon="5.35832">
        <ele>281</ele>
        <time>2022-01-14T13:02:19Z</time>
      </trkpt>
      <trkpt lat="46.47606" lon="5.35837">
        <ele>279.8</ele>
        <time>2022-01-14T13:02:22Z</time>
      </trkpt>
      <trkpt lat="46.4762" lon="5.35832">
        <ele>279.2</ele>
        <time>2022-01-14T13:02:24Z</time>
      </trkpt>
      <trkpt lat="46.47627" lon="5.35825">
        <ele>278</ele>
        <time>2022-01-14T13:02:25Z</time>
      </trkpt>
      <trkpt lat="46.47633" lon="5.35817">
        <ele>277</ele>
        <time>2022-01-14T13:02:26Z</time>
      </trkpt>
      <trkpt lat="46.4764" lon="5.35808">
        <ele>276.6</ele>
        <time>2022-01-14T13:02:27Z</time>
      </trkpt>
      <trkpt lat="46.47645" lon="5.35801">
        <ele>276</ele>
        <time>2022-01-14T13:02:28Z</time>
      </trkpt>
      <trkpt lat="46.47659" lon="5.35782">
        <ele>275</ele>
        <time>2022-01-14T13:02:30Z</time>
      </trkpt>
      <trkpt lat="46.47671" lon="5.35766">
        <ele>274</ele>
        <time>2022-01-14T13:02:32Z</time>
      </trkpt>
      <trkpt lat="46.47681" lon="5.35748">
        <ele>273.2</ele>
        <time>2022-01-14T13:02:34Z</time>
      </trkpt>
      <trkpt lat="46.4769" lon="5.35732">
        <ele>272.8</ele>
        <time>2022-01-14T13:02:36Z</time>
      </trkpt>
      <trkpt lat="46.47702" lon="5.35714">
        <ele>271.8</ele>
        <time>2022-01-14T13:02:38Z</time>
      </trkpt>
      <trkpt lat="46.47713" lon="5.35687">
        <ele>270.4</ele>
        <time>2022-01-14T13:02:41Z</time>
      </trkpt>
      <trkpt lat="46.47716" lon="5.35679">
        <ele>270.2</ele>
        <time>2022-01-14T13:02:42Z</time>
      </trkpt>
      <trkpt lat="46.47722" lon="5.35668">
        <ele>269.6</ele>
        <time>2022-01-14T13:02:43Z</time>
      </trkpt>
      <trkpt lat="46.47734" lon="5.35656">
        <ele>269.4</ele>
        <time>2022-01-14T13:02:45Z</time>
      </trkpt>
      <trkpt lat="46.4774" lon="5.35653">
        <ele>269</ele>
        <time>2022-01-14T13:02:46Z</time>
      </trkpt>
      <trkpt lat="46.47749" lon="5.35653">
        <ele>269</ele>
        <time>2022-01-14T13:02:47Z</time>
      </trkpt>
      <trkpt lat="46.47757" lon="5.35653">
        <ele>268.8</ele>
        <time>2022-01-14T13:02:48Z</time>
      </trkpt>
      <trkpt lat="46.47806" lon="5.35665">
        <ele>268.2</ele>
        <time>2022-01-14T13:02:55Z</time>
      </trkpt>
      <trkpt lat="46.47838" lon="5.35676">
        <ele>268</ele>
        <time>2022-01-14T13:02:59Z</time>
      </trkpt>
      <trkpt lat="46.47878" lon="5.35688">
        <ele>267.2</ele>
        <time>2022-01-14T13:03:04Z</time>
      </trkpt>
      <trkpt lat="46.47896" lon="5.35691">
        <ele>266.8</ele>
        <time>2022-01-14T13:03:06Z</time>
      </trkpt>
      <trkpt lat="46.47929" lon="5.35699">
        <ele>265.8</ele>
        <time>2022-01-14T13:03:10Z</time>
      </trkpt>
      <trkpt lat="46.47937" lon="5.35702">
        <ele>265.6</ele>
        <time>2022-01-14T13:03:11Z</time>
      </trkpt>
      <trkpt lat="46.47966" lon="5.35711">
        <ele>265.2</ele>
        <time>2022-01-14T13:03:15Z</time>
      </trkpt>
      <trkpt lat="46.47993" lon="5.35712">
        <ele>265.2</ele>
        <time>2022-01-14T13:03:19Z</time>
      </trkpt>
      <trkpt lat="46.48" lon="5.35711">
        <ele>265.4</ele>
        <time>2022-01-14T13:03:20Z</time>
      </trkpt>
      <trkpt lat="46.48056" lon="5.35693">
        <ele>265.2</ele>
        <time>2022-01-14T13:03:28Z</time>
      </trkpt>
      <trkpt lat="46.4808" lon="5.35697">
        <ele>264.8</ele>
        <time>2022-01-14T13:03:31Z</time>
      </trkpt>
      <trkpt lat="46.48086" lon="5.357">
        <ele>264.6</ele>
        <time>2022-01-14T13:03:32Z</time>
      </trkpt>
      <trkpt lat="46.48095" lon="5.35705">
        <ele>264.4</ele>
        <time>2022-01-14T13:03:33Z</time>
      </trkpt>
      <trkpt lat="46.48122" lon="5.35721">
        <ele>263.6</ele>
        <time>2022-01-14T13:03:37Z</time>
      </trkpt>
      <trkpt lat="46.48143" lon="5.35741">
        <ele>263.4</ele>
        <time>2022-01-14T13:03:40Z</time>
      </trkpt>
      <trkpt lat="46.48169" lon="5.35768">
        <ele>263</ele>
        <time>2022-01-14T13:03:44Z</time>
      </trkpt>
      <trkpt lat="46.48194" lon="5.35798">
        <ele>262.4</ele>
        <time>2022-01-14T13:03:48Z</time>
      </trkpt>
      <trkpt lat="46.48212" lon="5.35817">
        <ele>262</ele>
        <time>2022-01-14T13:03:51Z</time>
      </trkpt>
      <trkpt lat="46.48239" lon="5.35845">
        <ele>261.8</ele>
        <time>2022-01-14T13:03:56Z</time>
      </trkpt>
      <trkpt lat="46.48265" lon="5.3588">
        <ele>262.8</ele>
        <time>2022-01-14T13:04:02Z</time>
      </trkpt>
      <trkpt lat="46.48279" lon="5.35901">
        <ele>263.2</ele>
        <time>2022-01-14T13:04:06Z</time>
      </trkpt>
      <trkpt lat="46.48288" lon="5.3591">
        <ele>263.6</ele>
        <time>2022-01-14T13:04:08Z</time>
      </trkpt>
      <trkpt lat="46.48318" lon="5.35918">
        <ele>264.6</ele>
        <time>2022-01-14T13:04:13Z</time>
      </trkpt>
      <trkpt lat="46.48337" lon="5.35922">
        <ele>264.8</ele>
        <time>2022-01-14T13:04:16Z</time>
      </trkpt>
      <trkpt lat="46.48362" lon="5.35926">
        <ele>264.8</ele>
        <time>2022-01-14T13:04:20Z</time>
      </trkpt>
      <trkpt lat="46.48402" lon="5.35932">
        <ele>264</ele>
        <time>2022-01-14T13:04:25Z</time>
      </trkpt>
      <trkpt lat="46.48411" lon="5.35932">
        <ele>263.8</ele>
        <time>2022-01-14T13:04:26Z</time>
      </trkpt>
      <trkpt lat="46.48426" lon="5.35925">
        <ele>263</ele>
        <time>2022-01-14T13:04:28Z</time>
      </trkpt>
      <trkpt lat="46.48434" lon="5.35919">
        <ele>262.6</ele>
        <time>2022-01-14T13:04:29Z</time>
      </trkpt>
      <trkpt lat="46.48462" lon="5.35898">
        <ele>261.4</ele>
        <time>2022-01-14T13:04:32Z</time>
      </trkpt>
      <trkpt lat="46.48471" lon="5.35894">
        <ele>260.8</ele>
        <time>2022-01-14T13:04:33Z</time>
      </trkpt>
      <trkpt lat="46.48493" lon="5.3589">
        <ele>259.8</ele>
        <time>2022-01-14T13:04:35Z</time>
      </trkpt>
      <trkpt lat="46.48512" lon="5.35891">
        <ele>258.4</ele>
        <time>2022-01-14T13:04:37Z</time>
      </trkpt>
      <trkpt lat="46.48523" lon="5.35893">
        <ele>257.2</ele>
        <time>2022-01-14T13:04:38Z</time>
      </trkpt>
      <trkpt lat="46.48547" lon="5.35899">
        <ele>256</ele>
        <time>2022-01-14T13:04:40Z</time>
      </trkpt>
      <trkpt lat="46.48566" lon="5.35907">
        <ele>254.4</ele>
        <time>2022-01-14T13:04:42Z</time>
      </trkpt>
      <trkpt lat="46.48588" lon="5.35918">
        <ele>253</ele>
        <time>2022-01-14T13:04:44Z</time>
      </trkpt>
      <trkpt lat="46.48608" lon="5.35931">
        <ele>252</ele>
        <time>2022-01-14T13:04:46Z</time>
      </trkpt>
      <trkpt lat="46.48616" lon="5.35937">
        <ele>250.8</ele>
        <time>2022-01-14T13:04:47Z</time>
      </trkpt>
      <trkpt lat="46.48636" lon="5.35949">
        <ele>248.8</ele>
        <time>2022-01-14T13:04:49Z</time>
      </trkpt>
      <trkpt lat="46.48645" lon="5.3595">
        <ele>248</ele>
        <time>2022-01-14T13:04:50Z</time>
      </trkpt>
      <trkpt lat="46.48653" lon="5.35949">
        <ele>246.8</ele>
        <time>2022-01-14T13:04:51Z</time>
      </trkpt>
      <trkpt lat="46.48659" lon="5.35945">
        <ele>246.4</ele>
        <time>2022-01-14T13:04:52Z</time>
      </trkpt>
      <trkpt lat="46.48665" lon="5.35939">
        <ele>245.4</ele>
        <time>2022-01-14T13:04:53Z</time>
      </trkpt>
      <trkpt lat="46.48677" lon="5.35929">
        <ele>243.8</ele>
        <time>2022-01-14T13:04:55Z</time>
      </trkpt>
      <trkpt lat="46.48681" lon="5.35925">
        <ele>243</ele>
        <time>2022-01-14T13:04:56Z</time>
      </trkpt>
      <trkpt lat="46.48685" lon="5.3592">
        <ele>242.6</ele>
        <time>2022-01-14T13:04:57Z</time>
      </trkpt>
      <trkpt lat="46.48693" lon="5.35903">
        <ele>241.2</ele>
        <time>2022-01-14T13:04:59Z</time>
      </trkpt>
      <trkpt lat="46.487" lon="5.35886">
        <ele>239.8</ele>
        <time>2022-01-14T13:05:01Z</time>
      </trkpt>
      <trkpt lat="46.48708" lon="5.35864">
        <ele>238.6</ele>
        <time>2022-01-14T13:05:03Z</time>
      </trkpt>
      <trkpt lat="46.48712" lon="5.35853">
        <ele>238</ele>
        <time>2022-01-14T13:05:04Z</time>
      </trkpt>
      <trkpt lat="46.4872" lon="5.35835">
        <ele>237.6</ele>
        <time>2022-01-14T13:05:06Z</time>
      </trkpt>
      <trkpt lat="46.48742" lon="5.35787">
        <ele>236.4</ele>
        <time>2022-01-14T13:05:11Z</time>
      </trkpt>
      <trkpt lat="46.48747" lon="5.35775">
        <ele>236.4</ele>
        <time>2022-01-14T13:05:12Z</time>
      </trkpt>
      <trkpt lat="46.48776" lon="5.35711">
        <ele>235.4</ele>
        <time>2022-01-14T13:05:19Z</time>
      </trkpt>
      <trkpt lat="46.48788" lon="5.35684">
        <ele>235</ele>
        <time>2022-01-14T13:05:22Z</time>
      </trkpt>
      <trkpt lat="46.48813" lon="5.35627">
        <ele>235</ele>
        <time>2022-01-14T13:05:29Z</time>
      </trkpt>
      <trkpt lat="46.48835" lon="5.35578">
        <ele>235</ele>
        <time>2022-01-14T13:05:35Z</time>
      </trkpt>
      <trkpt lat="46.4884" lon="5.3557">
        <ele>235</ele>
        <time>2022-01-14T13:05:36Z</time>
      </trkpt>
      <trkpt lat="46.48846" lon="5.35565">
        <ele>235</ele>
        <time>2022-01-14T13:05:37Z</time>
      </trkpt>
      <trkpt lat="46.48858" lon="5.35561">
        <ele>235</ele>
        <time>2022-01-14T13:05:39Z</time>
      </trkpt>
      <trkpt lat="46.48918" lon="5.35557">
        <ele>234.4</ele>
        <time>2022-01-14T13:05:47Z</time>
      </trkpt>
      <trkpt lat="46.48924" lon="5.35557">
        <ele>234.2</ele>
        <time>2022-01-14T13:05:48Z</time>
      </trkpt>
      <trkpt lat="46.48964" lon="5.35556">
        <ele>233.2</ele>
        <time>2022-01-14T13:05:53Z</time>
      </trkpt>
      <trkpt lat="46.48973" lon="5.35555">
        <ele>232.8</ele>
        <time>2022-01-14T13:05:54Z</time>
      </trkpt>
      <trkpt lat="46.49021" lon="5.35553">
        <ele>232.2</ele>
        <time>2022-01-14T13:06:00Z</time>
      </trkpt>
      <trkpt lat="46.49049" lon="5.35551">
        <ele>232</ele>
        <time>2022-01-14T13:06:04Z</time>
      </trkpt>
      <trkpt lat="46.49081" lon="5.35549">
        <ele>232</ele>
        <time>2022-01-14T13:06:09Z</time>
      </trkpt>
      <trkpt lat="46.4911" lon="5.35549">
        <ele>232.8</ele>
        <time>2022-01-14T13:06:14Z</time>
      </trkpt>
      <trkpt lat="46.4912" lon="5.35548">
        <ele>233.2</ele>
        <time>2022-01-14T13:06:16Z</time>
      </trkpt>
      <trkpt lat="46.4914" lon="5.35548">
        <ele>233.4</ele>
        <time>2022-01-14T13:06:20Z</time>
      </trkpt>
      <trkpt lat="46.49161" lon="5.35547">
        <ele>234.2</ele>
        <time>2022-01-14T13:06:25Z</time>
      </trkpt>
      <trkpt lat="46.49165" lon="5.35547">
        <ele>234.2</ele>
        <time>2022-01-14T13:06:26Z</time>
      </trkpt>
      <trkpt lat="46.49192" lon="5.35544">
        <ele>234.8</ele>
        <time>2022-01-14T13:06:31Z</time>
      </trkpt>
      <trkpt lat="46.49214" lon="5.35544">
        <ele>235.4</ele>
        <time>2022-01-14T13:06:34Z</time>
      </trkpt>
      <trkpt lat="46.49236" lon="5.35544">
        <ele>235.8</ele>
        <time>2022-01-14T13:06:37Z</time>
      </trkpt>
      <trkpt lat="46.49288" lon="5.35536">
        <ele>236.2</ele>
        <time>2022-01-14T13:06:44Z</time>
      </trkpt>
      <trkpt lat="46.49337" lon="5.35534">
        <ele>236</ele>
        <time>2022-01-14T13:06:51Z</time>
      </trkpt>
      <trkpt lat="46.49389" lon="5.35536">
        <ele>235.2</ele>
        <time>2022-01-14T13:06:58Z</time>
      </trkpt>
      <trkpt lat="46.49432" lon="5.3555">
        <ele>234.4</ele>
        <time>2022-01-14T13:07:04Z</time>
      </trkpt>
      <trkpt lat="46.49486" lon="5.35574">
        <ele>233.6</ele>
        <time>2022-01-14T13:07:12Z</time>
      </trkpt>
      <trkpt lat="46.49535" lon="5.35594">
        <ele>233.4</ele>
        <time>2022-01-14T13:07:19Z</time>
      </trkpt>
      <trkpt lat="46.49554" lon="5.35602">
        <ele>233.2</ele>
        <time>2022-01-14T13:07:22Z</time>
      </trkpt>
      <trkpt lat="46.496" lon="5.35617">
        <ele>232.2</ele>
        <time>2022-01-14T13:07:28Z</time>
      </trkpt>
      <trkpt lat="46.4962" lon="5.35623">
        <ele>231.8</ele>
        <time>2022-01-14T13:07:31Z</time>
      </trkpt>
      <trkpt lat="46.49649" lon="5.35632">
        <ele>231.2</ele>
        <time>2022-01-14T13:07:35Z</time>
      </trkpt>
      <trkpt lat="46.4969" lon="5.35643">
        <ele>230.6</ele>
        <time>2022-01-14T13:07:41Z</time>
      </trkpt>
      <trkpt lat="46.49694" lon="5.35646">
        <ele>230.2</ele>
        <time>2022-01-14T13:07:42Z</time>
      </trkpt>
      <trkpt lat="46.49697" lon="5.35652">
        <ele>230</ele>
        <time>2022-01-14T13:07:43Z</time>
      </trkpt>
      <trkpt lat="46.49698" lon="5.35657">
        <ele>229.8</ele>
        <time>2022-01-14T13:07:44Z</time>
      </trkpt>
      <trkpt lat="46.49699" lon="5.35665">
        <ele>229.6</ele>
        <time>2022-01-14T13:07:45Z</time>
      </trkpt>
      <trkpt lat="46.49696" lon="5.35684">
        <ele>229.2</ele>
        <time>2022-01-14T13:07:47Z</time>
      </trkpt>
      <trkpt lat="46.4968" lon="5.35734">
        <ele>228.2</ele>
        <time>2022-01-14T13:07:52Z</time>
      </trkpt>
      <trkpt lat="46.4965" lon="5.35798">
        <ele>226.8</ele>
        <time>2022-01-14T13:07:59Z</time>
      </trkpt>
      <trkpt lat="46.49639" lon="5.35833">
        <ele>226.2</ele>
        <time>2022-01-14T13:08:02Z</time>
      </trkpt>
      <trkpt lat="46.49638" lon="5.35845">
        <ele>226.2</ele>
        <time>2022-01-14T13:08:03Z</time>
      </trkpt>
      <trkpt lat="46.49637" lon="5.35871">
        <ele>225.6</ele>
        <time>2022-01-14T13:08:05Z</time>
      </trkpt>
      <trkpt lat="46.49638" lon="5.3591">
        <ele>224.8</ele>
        <time>2022-01-14T13:08:08Z</time>
      </trkpt>
      <trkpt lat="46.49639" lon="5.35923">
        <ele>224.4</ele>
        <time>2022-01-14T13:08:09Z</time>
      </trkpt>
      <trkpt lat="46.4964" lon="5.35946">
        <ele>223.4</ele>
        <time>2022-01-14T13:08:11Z</time>
      </trkpt>
      <trkpt lat="46.49645" lon="5.3603">
        <ele>222.4</ele>
        <time>2022-01-14T13:08:18Z</time>
      </trkpt>
      <trkpt lat="46.49646" lon="5.36041">
        <ele>222.2</ele>
        <time>2022-01-14T13:08:19Z</time>
      </trkpt>
      <trkpt lat="46.49648" lon="5.36072">
        <ele>222</ele>
        <time>2022-01-14T13:08:22Z</time>
      </trkpt>
      <trkpt lat="46.49654" lon="5.36094">
        <ele>221.8</ele>
        <time>2022-01-14T13:08:24Z</time>
      </trkpt>
      <trkpt lat="46.49665" lon="5.3612">
        <ele>221.8</ele>
        <time>2022-01-14T13:08:27Z</time>
      </trkpt>
      <trkpt lat="46.49673" lon="5.36136">
        <ele>222.2</ele>
        <time>2022-01-14T13:08:29Z</time>
      </trkpt>
      <trkpt lat="46.49709" lon="5.36195">
        <ele>222.2</ele>
        <time>2022-01-14T13:08:37Z</time>
      </trkpt>
      <trkpt lat="46.49742" lon="5.36263">
        <ele>222.4</ele>
        <time>2022-01-14T13:08:46Z</time>
      </trkpt>
      <trkpt lat="46.49762" lon="5.36306">
        <ele>223</ele>
        <time>2022-01-14T13:08:52Z</time>
      </trkpt>
      <trkpt lat="46.49764" lon="5.36313">
        <ele>223.4</ele>
        <time>2022-01-14T13:08:53Z</time>
      </trkpt>
      <trkpt lat="46.49784" lon="5.36358">
        <ele>224.6</ele>
        <time>2022-01-14T13:09:00Z</time>
      </trkpt>
      <trkpt lat="46.49797" lon="5.3639">
        <ele>225.6</ele>
        <time>2022-01-14T13:09:05Z</time>
      </trkpt>
      <trkpt lat="46.49811" lon="5.36425">
        <ele>226.6</ele>
        <time>2022-01-14T13:09:10Z</time>
      </trkpt>
      <trkpt lat="46.49814" lon="5.36431">
        <ele>226.8</ele>
        <time>2022-01-14T13:09:11Z</time>
      </trkpt>
      <trkpt lat="46.49839" lon="5.36481">
        <ele>228</ele>
        <time>2022-01-14T13:09:19Z</time>
      </trkpt>
      <trkpt lat="46.49868" lon="5.36524">
        <ele>229</ele>
        <time>2022-01-14T13:09:27Z</time>
      </trkpt>
      <trkpt lat="46.49906" lon="5.36584">
        <ele>229.8</ele>
        <time>2022-01-14T13:09:38Z</time>
      </trkpt>
      <trkpt lat="46.49909" lon="5.3659">
        <ele>230</ele>
        <time>2022-01-14T13:09:39Z</time>
      </trkpt>
      <trkpt lat="46.49912" lon="5.36596">
        <ele>230</ele>
        <time>2022-01-14T13:09:40Z</time>
      </trkpt>
      <trkpt lat="46.49915" lon="5.36603">
        <ele>230</ele>
        <time>2022-01-14T13:09:41Z</time>
      </trkpt>
      <trkpt lat="46.49919" lon="5.36616">
        <ele>230.4</ele>
        <time>2022-01-14T13:09:43Z</time>
      </trkpt>
      <trkpt lat="46.49921" lon="5.36623">
        <ele>230.6</ele>
        <time>2022-01-14T13:09:44Z</time>
      </trkpt>
      <trkpt lat="46.4993" lon="5.3664">
        <ele>231</ele>
        <time>2022-01-14T13:09:47Z</time>
      </trkpt>
      <trkpt lat="46.49935" lon="5.36654">
        <ele>231</ele>
        <time>2022-01-14T13:09:49Z</time>
      </trkpt>
      <trkpt lat="46.4994" lon="5.36677">
        <ele>231.4</ele>
        <time>2022-01-14T13:09:52Z</time>
      </trkpt>
      <trkpt lat="46.4995" lon="5.36731">
        <ele>232.2</ele>
        <time>2022-01-14T13:09:59Z</time>
      </trkpt>
      <trkpt lat="46.49952" lon="5.36745">
        <ele>232.2</ele>
        <time>2022-01-14T13:10:01Z</time>
      </trkpt>
      <trkpt lat="46.4996" lon="5.36787">
        <ele>233</ele>
        <time>2022-01-14T13:10:07Z</time>
      </trkpt>
      <trkpt lat="46.49963" lon="5.368">
        <ele>233.6</ele>
        <time>2022-01-14T13:10:09Z</time>
      </trkpt>
      <trkpt lat="46.49969" lon="5.36834">
        <ele>234.6</ele>
        <time>2022-01-14T13:10:14Z</time>
      </trkpt>
      <trkpt lat="46.49981" lon="5.36894">
        <ele>235.6</ele>
        <time>2022-01-14T13:10:23Z</time>
      </trkpt>
      <trkpt lat="46.49983" lon="5.36908">
        <ele>236</ele>
        <time>2022-01-14T13:10:25Z</time>
      </trkpt>
      <trkpt lat="46.49991" lon="5.36948">
        <ele>236.8</ele>
        <time>2022-01-14T13:10:31Z</time>
      </trkpt>
      <trkpt lat="46.49995" lon="5.36968">
        <ele>237.4</ele>
        <time>2022-01-14T13:10:34Z</time>
      </trkpt>
      <trkpt lat="46.49999" lon="5.36994">
        <ele>238</ele>
        <time>2022-01-14T13:10:38Z</time>
      </trkpt>
      <trkpt lat="46.50006" lon="5.37028">
        <ele>238.6</ele>
        <time>2022-01-14T13:10:43Z</time>
      </trkpt>
      <trkpt lat="46.5001" lon="5.37053">
        <ele>239</ele>
        <time>2022-01-14T13:10:47Z</time>
      </trkpt>
      <trkpt lat="46.50021" lon="5.37106">
        <ele>240</ele>
        <time>2022-01-14T13:10:55Z</time>
      </trkpt>
      <trkpt lat="46.50023" lon="5.3712">
        <ele>240.4</ele>
        <time>2022-01-14T13:10:57Z</time>
      </trkpt>
      <trkpt lat="46.50033" lon="5.37165">
        <ele>241.2</ele>
        <time>2022-01-14T13:11:04Z</time>
      </trkpt>
      <trkpt lat="46.50038" lon="5.37189">
        <ele>241.6</ele>
        <time>2022-01-14T13:11:08Z</time>
      </trkpt>
      <trkpt lat="46.50045" lon="5.37229">
        <ele>242.2</ele>
        <time>2022-01-14T13:11:14Z</time>
      </trkpt>
      <trkpt lat="46.50049" lon="5.37249">
        <ele>242.6</ele>
        <time>2022-01-14T13:11:17Z</time>
      </trkpt>
      <trkpt lat="46.50057" lon="5.37293">
        <ele>243.6</ele>
        <time>2022-01-14T13:11:24Z</time>
      </trkpt>
      <trkpt lat="46.50058" lon="5.37301">
        <ele>243.8</ele>
        <time>2022-01-14T13:11:25Z</time>
      </trkpt>
      <trkpt lat="46.50068" lon="5.37353">
        <ele>244.8</ele>
        <time>2022-01-14T13:11:33Z</time>
      </trkpt>
      <trkpt lat="46.50069" lon="5.37361">
        <ele>245</ele>
        <time>2022-01-14T13:11:34Z</time>
      </trkpt>
      <trkpt lat="46.50081" lon="5.37418">
        <ele>246</ele>
        <time>2022-01-14T13:11:42Z</time>
      </trkpt>
      <trkpt lat="46.501" lon="5.37457">
        <ele>246.2</ele>
        <time>2022-01-14T13:11:48Z</time>
      </trkpt>
      <trkpt lat="46.50128" lon="5.37511">
        <ele>246.4</ele>
        <time>2022-01-14T13:11:56Z</time>
      </trkpt>
      <trkpt lat="46.50141" lon="5.37558">
        <ele>246.6</ele>
        <time>2022-01-14T13:12:02Z</time>
      </trkpt>
      <trkpt lat="46.50145" lon="5.37617">
        <ele>247</ele>
        <time>2022-01-14T13:12:09Z</time>
      </trkpt>
      <trkpt lat="46.50146" lon="5.37634">
        <ele>247.2</ele>
        <time>2022-01-14T13:12:11Z</time>
      </trkpt>
      <trkpt lat="46.50146" lon="5.37651">
        <ele>247.4</ele>
        <time>2022-01-14T13:12:13Z</time>
      </trkpt>
      <trkpt lat="46.50145" lon="5.37667">
        <ele>247.6</ele>
        <time>2022-01-14T13:12:15Z</time>
      </trkpt>
      <trkpt lat="46.50146" lon="5.37688">
        <ele>247.8</ele>
        <time>2022-01-14T13:12:18Z</time>
      </trkpt>
      <trkpt lat="46.50149" lon="5.377">
        <ele>248</ele>
        <time>2022-01-14T13:12:20Z</time>
      </trkpt>
      <trkpt lat="46.50155" lon="5.37717">
        <ele>248.2</ele>
        <time>2022-01-14T13:12:23Z</time>
      </trkpt>
      <trkpt lat="46.50156" lon="5.37723">
        <ele>248.6</ele>
        <time>2022-01-14T13:12:24Z</time>
      </trkpt>
      <trkpt lat="46.50158" lon="5.37729">
        <ele>248.6</ele>
        <time>2022-01-14T13:12:25Z</time>
      </trkpt>
      <trkpt lat="46.50163" lon="5.37741">
        <ele>249.4</ele>
        <time>2022-01-14T13:12:28Z</time>
      </trkpt>
      <trkpt lat="46.50163" lon="5.37742">
        <ele>249.8</ele>
        <time>2022-01-14T13:12:29Z</time>
      </trkpt>
      <trkpt lat="46.50163" lon="5.37742">
        <ele>250</ele>
        <time>2022-01-14T13:12:30Z</time>
      </trkpt>
      <trkpt lat="46.50168" lon="5.37744">
        <ele>251.6</ele>
        <time>2022-01-14T13:12:37Z</time>
      </trkpt>
      <trkpt lat="46.50169" lon="5.37742">
        <ele>251.8</ele>
        <time>2022-01-14T13:12:39Z</time>
      </trkpt>
      <trkpt lat="46.50166" lon="5.37742">
        <ele>251.8</ele>
        <time>2022-01-14T13:12:41Z</time>
      </trkpt>
      <trkpt lat="46.50165" lon="5.37743">
        <ele>251.8</ele>
        <time>2022-01-14T13:12:44Z</time>
      </trkpt>
      <trkpt lat="46.50164" lon="5.37743">
        <ele>251.4</ele>
        <time>2022-01-14T13:15:55Z</time>
      </trkpt>
      <trkpt lat="46.50162" lon="5.37744">
        <ele>251.4</ele>
        <time>2022-01-14T13:15:56Z</time>
      </trkpt>
      <trkpt lat="46.50161" lon="5.37747">
        <ele>251.4</ele>
        <time>2022-01-14T13:15:57Z</time>
      </trkpt>
      <trkpt lat="46.50168" lon="5.37753">
        <ele>251.4</ele>
        <time>2022-01-14T13:16:00Z</time>
      </trkpt>
      <trkpt lat="46.50178" lon="5.37755">
        <ele>251.4</ele>
        <time>2022-01-14T13:16:02Z</time>
      </trkpt>
      <trkpt lat="46.50189" lon="5.3776">
        <ele>251.4</ele>
        <time>2022-01-14T13:16:04Z</time>
      </trkpt>
      <trkpt lat="46.50215" lon="5.37773">
        <ele>251.4</ele>
        <time>2022-01-14T13:16:08Z</time>
      </trkpt>
      <trkpt lat="46.50233" lon="5.37786">
        <ele>251.4</ele>
        <time>2022-01-14T13:16:11Z</time>
      </trkpt>
      <trkpt lat="46.50249" lon="5.37798">
        <ele>251.8</ele>
        <time>2022-01-14T13:16:14Z</time>
      </trkpt>
      <trkpt lat="46.5026" lon="5.37807">
        <ele>252.2</ele>
        <time>2022-01-14T13:16:16Z</time>
      </trkpt>
      <trkpt lat="46.50282" lon="5.37826">
        <ele>253</ele>
        <time>2022-01-14T13:16:20Z</time>
      </trkpt>
      <trkpt lat="46.50323" lon="5.37872">
        <ele>253.4</ele>
        <time>2022-01-14T13:16:28Z</time>
      </trkpt>
      <trkpt lat="46.5035" lon="5.37904">
        <ele>253.4</ele>
        <time>2022-01-14T13:16:33Z</time>
      </trkpt>
      <trkpt lat="46.50353" lon="5.37913">
        <ele>253.4</ele>
        <time>2022-01-14T13:16:34Z</time>
      </trkpt>
      <trkpt lat="46.50356" lon="5.37921">
        <ele>253.4</ele>
        <time>2022-01-14T13:16:35Z</time>
      </trkpt>
      <trkpt lat="46.50362" lon="5.37947">
        <ele>253.8</ele>
        <time>2022-01-14T13:16:38Z</time>
      </trkpt>
      <trkpt lat="46.50361" lon="5.37966">
        <ele>253.8</ele>
        <time>2022-01-14T13:16:40Z</time>
      </trkpt>
      <trkpt lat="46.5036" lon="5.37984">
        <ele>254</ele>
        <time>2022-01-14T13:16:42Z</time>
      </trkpt>
      <trkpt lat="46.50357" lon="5.38011">
        <ele>254</ele>
        <time>2022-01-14T13:16:45Z</time>
      </trkpt>
      <trkpt lat="46.50358" lon="5.38027">
        <ele>254</ele>
        <time>2022-01-14T13:16:47Z</time>
      </trkpt>
      <trkpt lat="46.50364" lon="5.38039">
        <ele>253.8</ele>
        <time>2022-01-14T13:16:49Z</time>
      </trkpt>
      <trkpt lat="46.5037" lon="5.38045">
        <ele>253.8</ele>
        <time>2022-01-14T13:16:51Z</time>
      </trkpt>
      <trkpt lat="46.50383" lon="5.38046">
        <ele>253.6</ele>
        <time>2022-01-14T13:16:54Z</time>
      </trkpt>
      <trkpt lat="46.50387" lon="5.38043">
        <ele>253.4</ele>
        <time>2022-01-14T13:16:55Z</time>
      </trkpt>
      <trkpt lat="46.50392" lon="5.38036">
        <ele>253.2</ele>
        <time>2022-01-14T13:16:56Z</time>
      </trkpt>
      <trkpt lat="46.504" lon="5.3802">
        <ele>252.8</ele>
        <time>2022-01-14T13:16:58Z</time>
      </trkpt>
      <trkpt lat="46.5042" lon="5.37985">
        <ele>252.2</ele>
        <time>2022-01-14T13:17:02Z</time>
      </trkpt>
      <trkpt lat="46.5043" lon="5.37967">
        <ele>251.8</ele>
        <time>2022-01-14T13:17:04Z</time>
      </trkpt>
      <trkpt lat="46.50453" lon="5.37931">
        <ele>251</ele>
        <time>2022-01-14T13:17:08Z</time>
      </trkpt>
      <trkpt lat="46.5046" lon="5.37922">
        <ele>250.6</ele>
        <time>2022-01-14T13:17:09Z</time>
      </trkpt>
      <trkpt lat="46.50472" lon="5.37904">
        <ele>250</ele>
        <time>2022-01-14T13:17:11Z</time>
      </trkpt>
      <trkpt lat="46.5049" lon="5.37877">
        <ele>248.6</ele>
        <time>2022-01-14T13:17:14Z</time>
      </trkpt>
      <trkpt lat="46.50513" lon="5.37841">
        <ele>247.4</ele>
        <time>2022-01-14T13:17:18Z</time>
      </trkpt>
      <trkpt lat="46.50537" lon="5.37805">
        <ele>245.8</ele>
        <time>2022-01-14T13:17:22Z</time>
      </trkpt>
      <trkpt lat="46.50555" lon="5.37777">
        <ele>244.4</ele>
        <time>2022-01-14T13:17:25Z</time>
      </trkpt>
      <trkpt lat="46.50579" lon="5.3774">
        <ele>242.8</ele>
        <time>2022-01-14T13:17:29Z</time>
      </trkpt>
      <trkpt lat="46.50598" lon="5.37712">
        <ele>241.6</ele>
        <time>2022-01-14T13:17:32Z</time>
      </trkpt>
      <trkpt lat="46.50622" lon="5.37675">
        <ele>240.2</ele>
        <time>2022-01-14T13:17:36Z</time>
      </trkpt>
      <trkpt lat="46.50645" lon="5.3764">
        <ele>238.6</ele>
        <time>2022-01-14T13:17:40Z</time>
      </trkpt>
      <trkpt lat="46.50672" lon="5.37598">
        <ele>238</ele>
        <time>2022-01-14T13:17:45Z</time>
      </trkpt>
      <trkpt lat="46.50676" lon="5.3759">
        <ele>237.8</ele>
        <time>2022-01-14T13:17:46Z</time>
      </trkpt>
      <trkpt lat="46.50686" lon="5.37573">
        <ele>237.4</ele>
        <time>2022-01-14T13:17:48Z</time>
      </trkpt>
      <trkpt lat="46.50698" lon="5.37563">
        <ele>237</ele>
        <time>2022-01-14T13:17:50Z</time>
      </trkpt>
      <trkpt lat="46.50711" lon="5.37569">
        <ele>236.8</ele>
        <time>2022-01-14T13:17:52Z</time>
      </trkpt>
      <trkpt lat="46.50721" lon="5.37585">
        <ele>236.6</ele>
        <time>2022-01-14T13:17:54Z</time>
      </trkpt>
      <trkpt lat="46.5073" lon="5.37602">
        <ele>236</ele>
        <time>2022-01-14T13:17:56Z</time>
      </trkpt>
      <trkpt lat="46.50735" lon="5.3762">
        <ele>236</ele>
        <time>2022-01-14T13:17:58Z</time>
      </trkpt>
      <trkpt lat="46.50736" lon="5.37629">
        <ele>236</ele>
        <time>2022-01-14T13:17:59Z</time>
      </trkpt>
      <trkpt lat="46.5074" lon="5.37673">
        <ele>236.4</ele>
        <time>2022-01-14T13:18:04Z</time>
      </trkpt>
      <trkpt lat="46.50742" lon="5.37697">
        <ele>237.6</ele>
        <time>2022-01-14T13:18:07Z</time>
      </trkpt>
      <trkpt lat="46.50743" lon="5.3772">
        <ele>238.8</ele>
        <time>2022-01-14T13:18:10Z</time>
      </trkpt>
      <trkpt lat="46.50744" lon="5.37735">
        <ele>239.4</ele>
        <time>2022-01-14T13:18:12Z</time>
      </trkpt>
      <trkpt lat="46.50746" lon="5.37752">
        <ele>240</ele>
        <time>2022-01-14T13:18:14Z</time>
      </trkpt>
      <trkpt lat="46.50752" lon="5.37783">
        <ele>240.8</ele>
        <time>2022-01-14T13:18:18Z</time>
      </trkpt>
      <trkpt lat="46.50756" lon="5.37798">
        <ele>241</ele>
        <time>2022-01-14T13:18:20Z</time>
      </trkpt>
      <trkpt lat="46.50771" lon="5.37832">
        <ele>241.6</ele>
        <time>2022-01-14T13:18:25Z</time>
      </trkpt>
      <trkpt lat="46.50778" lon="5.37842">
        <ele>241.8</ele>
        <time>2022-01-14T13:18:27Z</time>
      </trkpt>
      <trkpt lat="46.50782" lon="5.37848">
        <ele>242</ele>
        <time>2022-01-14T13:18:28Z</time>
      </trkpt>
      <trkpt lat="46.50804" lon="5.37875">
        <ele>242.8</ele>
        <time>2022-01-14T13:18:33Z</time>
      </trkpt>
      <trkpt lat="46.50814" lon="5.37884">
        <ele>243</ele>
        <time>2022-01-14T13:18:35Z</time>
      </trkpt>
      <trkpt lat="46.50825" lon="5.37892">
        <ele>243.2</ele>
        <time>2022-01-14T13:18:37Z</time>
      </trkpt>
      <trkpt lat="46.50831" lon="5.37895">
        <ele>243.2</ele>
        <time>2022-01-14T13:18:38Z</time>
      </trkpt>
      <trkpt lat="46.50837" lon="5.37896">
        <ele>243.2</ele>
        <time>2022-01-14T13:18:39Z</time>
      </trkpt>
      <trkpt lat="46.50869" lon="5.37899">
        <ele>243.4</ele>
        <time>2022-01-14T13:18:44Z</time>
      </trkpt>
      <trkpt lat="46.50925" lon="5.37897">
        <ele>243.6</ele>
        <time>2022-01-14T13:18:53Z</time>
      </trkpt>
      <trkpt lat="46.50973" lon="5.37884">
        <ele>244</ele>
        <time>2022-01-14T13:19:01Z</time>
      </trkpt>
      <trkpt lat="46.51033" lon="5.37873">
        <ele>243.8</ele>
        <time>2022-01-14T13:19:10Z</time>
      </trkpt>
      <trkpt lat="46.51079" lon="5.37869">
        <ele>243.2</ele>
        <time>2022-01-14T13:19:16Z</time>
      </trkpt>
      <trkpt lat="46.51118" lon="5.37855">
        <ele>242</ele>
        <time>2022-01-14T13:19:21Z</time>
      </trkpt>
      <trkpt lat="46.5114" lon="5.3784">
        <ele>241</ele>
        <time>2022-01-14T13:19:24Z</time>
      </trkpt>
      <trkpt lat="46.51161" lon="5.37823">
        <ele>240.2</ele>
        <time>2022-01-14T13:19:27Z</time>
      </trkpt>
      <trkpt lat="46.51168" lon="5.37818">
        <ele>239.6</ele>
        <time>2022-01-14T13:19:28Z</time>
      </trkpt>
      <trkpt lat="46.51175" lon="5.37814">
        <ele>239.2</ele>
        <time>2022-01-14T13:19:29Z</time>
      </trkpt>
      <trkpt lat="46.5119" lon="5.37809">
        <ele>238.4</ele>
        <time>2022-01-14T13:19:31Z</time>
      </trkpt>
      <trkpt lat="46.51231" lon="5.37803">
        <ele>237.4</ele>
        <time>2022-01-14T13:19:36Z</time>
      </trkpt>
      <trkpt lat="46.5124" lon="5.37801">
        <ele>237</ele>
        <time>2022-01-14T13:19:37Z</time>
      </trkpt>
      <trkpt lat="46.51263" lon="5.37794">
        <ele>236.2</ele>
        <time>2022-01-14T13:19:40Z</time>
      </trkpt>
      <trkpt lat="46.51278" lon="5.37787">
        <ele>235.4</ele>
        <time>2022-01-14T13:19:42Z</time>
      </trkpt>
      <trkpt lat="46.513" lon="5.37776">
        <ele>235.2</ele>
        <time>2022-01-14T13:19:45Z</time>
      </trkpt>
      <trkpt lat="46.51338" lon="5.37757">
        <ele>234.4</ele>
        <time>2022-01-14T13:19:50Z</time>
      </trkpt>
      <trkpt lat="46.51353" lon="5.37749">
        <ele>234</ele>
        <time>2022-01-14T13:19:52Z</time>
      </trkpt>
      <trkpt lat="46.51392" lon="5.37729">
        <ele>232.8</ele>
        <time>2022-01-14T13:19:57Z</time>
      </trkpt>
      <trkpt lat="46.51408" lon="5.37723">
        <ele>232.2</ele>
        <time>2022-01-14T13:19:59Z</time>
      </trkpt>
      <trkpt lat="46.51432" lon="5.37715">
        <ele>231.6</ele>
        <time>2022-01-14T13:20:02Z</time>
      </trkpt>
      <trkpt lat="46.51479" lon="5.37704">
        <ele>230.4</ele>
        <time>2022-01-14T13:20:08Z</time>
      </trkpt>
      <trkpt lat="46.51527" lon="5.37692">
        <ele>229.4</ele>
        <time>2022-01-14T13:20:14Z</time>
      </trkpt>
      <trkpt lat="46.51567" lon="5.37685">
        <ele>228.6</ele>
        <time>2022-01-14T13:20:19Z</time>
      </trkpt>
      <trkpt lat="46.51575" lon="5.37684">
        <ele>228.4</ele>
        <time>2022-01-14T13:20:20Z</time>
      </trkpt>
      <trkpt lat="46.51623" lon="5.37675">
        <ele>227</ele>
        <time>2022-01-14T13:20:26Z</time>
      </trkpt>
      <trkpt lat="46.51631" lon="5.37672">
        <ele>226.8</ele>
        <time>2022-01-14T13:20:27Z</time>
      </trkpt>
      <trkpt lat="46.51662" lon="5.37658">
        <ele>226</ele>
        <time>2022-01-14T13:20:31Z</time>
      </trkpt>
      <trkpt lat="46.51676" lon="5.3765">
        <ele>225.6</ele>
        <time>2022-01-14T13:20:33Z</time>
      </trkpt>
      <trkpt lat="46.51682" lon="5.37645">
        <ele>225.4</ele>
        <time>2022-01-14T13:20:34Z</time>
      </trkpt>
      <trkpt lat="46.51695" lon="5.37635">
        <ele>225.2</ele>
        <time>2022-01-14T13:20:36Z</time>
      </trkpt>
      <trkpt lat="46.51709" lon="5.37631">
        <ele>225</ele>
        <time>2022-01-14T13:20:38Z</time>
      </trkpt>
      <trkpt lat="46.51751" lon="5.37639">
        <ele>225.2</ele>
        <time>2022-01-14T13:20:44Z</time>
      </trkpt>
      <trkpt lat="46.51785" lon="5.3765">
        <ele>225.6</ele>
        <time>2022-01-14T13:20:49Z</time>
      </trkpt>
      <trkpt lat="46.51805" lon="5.3765">
        <ele>226.2</ele>
        <time>2022-01-14T13:20:52Z</time>
      </trkpt>
      <trkpt lat="46.51825" lon="5.37647">
        <ele>226.8</ele>
        <time>2022-01-14T13:20:55Z</time>
      </trkpt>
      <trkpt lat="46.51837" lon="5.37646">
        <ele>227.4</ele>
        <time>2022-01-14T13:20:57Z</time>
      </trkpt>
      <trkpt lat="46.51869" lon="5.37644">
        <ele>228.6</ele>
        <time>2022-01-14T13:21:02Z</time>
      </trkpt>
      <trkpt lat="46.51875" lon="5.37645">
        <ele>228.8</ele>
        <time>2022-01-14T13:21:03Z</time>
      </trkpt>
      <trkpt lat="46.51888" lon="5.37646">
        <ele>228.8</ele>
        <time>2022-01-14T13:21:05Z</time>
      </trkpt>
      <trkpt lat="46.51921" lon="5.37643">
        <ele>229.4</ele>
        <time>2022-01-14T13:21:10Z</time>
      </trkpt>
      <trkpt lat="46.51976" lon="5.37633">
        <ele>229</ele>
        <time>2022-01-14T13:21:19Z</time>
      </trkpt>
      <trkpt lat="46.52014" lon="5.37628">
        <ele>228.4</ele>
        <time>2022-01-14T13:21:26Z</time>
      </trkpt>
      <trkpt lat="46.52021" lon="5.37622">
        <ele>228.6</ele>
        <time>2022-01-14T13:21:28Z</time>
      </trkpt>
      <trkpt lat="46.52027" lon="5.37609">
        <ele>228.6</ele>
        <time>2022-01-14T13:21:30Z</time>
      </trkpt>
      <trkpt lat="46.52035" lon="5.37575">
        <ele>228.2</ele>
        <time>2022-01-14T13:21:34Z</time>
      </trkpt>
      <trkpt lat="46.52052" lon="5.37501">
        <ele>227.8</ele>
        <time>2022-01-14T13:21:42Z</time>
      </trkpt>
      <trkpt lat="46.52069" lon="5.37424">
        <ele>227.8</ele>
        <time>2022-01-14T13:21:51Z</time>
      </trkpt>
      <trkpt lat="46.52073" lon="5.37408">
        <ele>227.8</ele>
        <time>2022-01-14T13:21:53Z</time>
      </trkpt>
      <trkpt lat="46.52084" lon="5.37364">
        <ele>227.8</ele>
        <time>2022-01-14T13:21:58Z</time>
      </trkpt>
      <trkpt lat="46.52091" lon="5.3735">
        <ele>227.8</ele>
        <time>2022-01-14T13:22:00Z</time>
      </trkpt>
      <trkpt lat="46.52102" lon="5.37338">
        <ele>227.8</ele>
        <time>2022-01-14T13:22:02Z</time>
      </trkpt>
      <trkpt lat="46.52109" lon="5.37333">
        <ele>227.6</ele>
        <time>2022-01-14T13:22:03Z</time>
      </trkpt>
      <trkpt lat="46.52116" lon="5.37328">
        <ele>227.4</ele>
        <time>2022-01-14T13:22:04Z</time>
      </trkpt>
      <trkpt lat="46.52136" lon="5.37314">
        <ele>226.2</ele>
        <time>2022-01-14T13:22:07Z</time>
      </trkpt>
      <trkpt lat="46.52159" lon="5.37298">
        <ele>225</ele>
        <time>2022-01-14T13:22:10Z</time>
      </trkpt>
      <trkpt lat="46.52175" lon="5.37287">
        <ele>223.8</ele>
        <time>2022-01-14T13:22:12Z</time>
      </trkpt>
      <trkpt lat="46.52207" lon="5.37263">
        <ele>222.4</ele>
        <time>2022-01-14T13:22:16Z</time>
      </trkpt>
      <trkpt lat="46.52222" lon="5.3725">
        <ele>221.6</ele>
        <time>2022-01-14T13:22:18Z</time>
      </trkpt>
      <trkpt lat="46.5223" lon="5.37244">
        <ele>221.4</ele>
        <time>2022-01-14T13:22:19Z</time>
      </trkpt>
      <trkpt lat="46.52252" lon="5.37222">
        <ele>220</ele>
        <time>2022-01-14T13:22:22Z</time>
      </trkpt>
      <trkpt lat="46.52273" lon="5.372">
        <ele>219</ele>
        <time>2022-01-14T13:22:25Z</time>
      </trkpt>
      <trkpt lat="46.5228" lon="5.37192">
        <ele>218.8</ele>
        <time>2022-01-14T13:22:26Z</time>
      </trkpt>
      <trkpt lat="46.52302" lon="5.37169">
        <ele>217.8</ele>
        <time>2022-01-14T13:22:29Z</time>
      </trkpt>
      <trkpt lat="46.52324" lon="5.37146">
        <ele>215.2</ele>
        <time>2022-01-14T13:22:32Z</time>
      </trkpt>
      <trkpt lat="46.52338" lon="5.37132">
        <ele>214</ele>
        <time>2022-01-14T13:22:34Z</time>
      </trkpt>
      <trkpt lat="46.52354" lon="5.37115">
        <ele>213.4</ele>
        <time>2022-01-14T13:22:36Z</time>
      </trkpt>
      <trkpt lat="46.52367" lon="5.37101">
        <ele>212.6</ele>
        <time>2022-01-14T13:22:38Z</time>
      </trkpt>
      <trkpt lat="46.52402" lon="5.3706">
        <ele>211.6</ele>
        <time>2022-01-14T13:22:43Z</time>
      </trkpt>
      <trkpt lat="46.52408" lon="5.37051">
        <ele>211.6</ele>
        <time>2022-01-14T13:22:44Z</time>
      </trkpt>
      <trkpt lat="46.52428" lon="5.37014">
        <ele>210.6</ele>
        <time>2022-01-14T13:22:48Z</time>
      </trkpt>
      <trkpt lat="46.52432" lon="5.37005">
        <ele>210.4</ele>
        <time>2022-01-14T13:22:49Z</time>
      </trkpt>
      <trkpt lat="46.52443" lon="5.36976">
        <ele>210</ele>
        <time>2022-01-14T13:22:52Z</time>
      </trkpt>
      <trkpt lat="46.52445" lon="5.36966">
        <ele>209.8</ele>
        <time>2022-01-14T13:22:53Z</time>
      </trkpt>
      <trkpt lat="46.52455" lon="5.36903">
        <ele>209.4</ele>
        <time>2022-01-14T13:22:59Z</time>
      </trkpt>
      <trkpt lat="46.52456" lon="5.36893">
        <ele>209.4</ele>
        <time>2022-01-14T13:23:00Z</time>
      </trkpt>
      <trkpt lat="46.52465" lon="5.36815">
        <ele>209.2</ele>
        <time>2022-01-14T13:23:08Z</time>
      </trkpt>
      <trkpt lat="46.52467" lon="5.36747">
        <ele>209</ele>
        <time>2022-01-14T13:23:15Z</time>
      </trkpt>
      <trkpt lat="46.52468" lon="5.36718">
        <ele>208.8</ele>
        <time>2022-01-14T13:23:18Z</time>
      </trkpt>
      <trkpt lat="46.52469" lon="5.3669">
        <ele>208.6</ele>
        <time>2022-01-14T13:23:21Z</time>
      </trkpt>
      <trkpt lat="46.52472" lon="5.36636">
        <ele>208.2</ele>
        <time>2022-01-14T13:23:27Z</time>
      </trkpt>
      <trkpt lat="46.52476" lon="5.36569">
        <ele>207.8</ele>
        <time>2022-01-14T13:23:34Z</time>
      </trkpt>
      <trkpt lat="46.52483" lon="5.36493">
        <ele>207.4</ele>
        <time>2022-01-14T13:23:42Z</time>
      </trkpt>
      <trkpt lat="46.52484" lon="5.36484">
        <ele>207.2</ele>
        <time>2022-01-14T13:23:43Z</time>
      </trkpt>
      <trkpt lat="46.52493" lon="5.3641">
        <ele>206.4</ele>
        <time>2022-01-14T13:23:51Z</time>
      </trkpt>
      <trkpt lat="46.52504" lon="5.36352">
        <ele>206.4</ele>
        <time>2022-01-14T13:23:57Z</time>
      </trkpt>
      <trkpt lat="46.5251" lon="5.36339">
        <ele>206.4</ele>
        <time>2022-01-14T13:23:59Z</time>
      </trkpt>
      <trkpt lat="46.52515" lon="5.36331">
        <ele>206.2</ele>
        <time>2022-01-14T13:24:00Z</time>
      </trkpt>
      <trkpt lat="46.52521" lon="5.36325">
        <ele>206.2</ele>
        <time>2022-01-14T13:24:01Z</time>
      </trkpt>
      <trkpt lat="46.52533" lon="5.36317">
        <ele>206</ele>
        <time>2022-01-14T13:24:03Z</time>
      </trkpt>
      <trkpt lat="46.5254" lon="5.36314">
        <ele>206</ele>
        <time>2022-01-14T13:24:04Z</time>
      </trkpt>
      <trkpt lat="46.52547" lon="5.36312">
        <ele>205.8</ele>
        <time>2022-01-14T13:24:05Z</time>
      </trkpt>
      <trkpt lat="46.52558" lon="5.36312">
        <ele>205.8</ele>
        <time>2022-01-14T13:24:07Z</time>
      </trkpt>
      <trkpt lat="46.52571" lon="5.36314">
        <ele>205.8</ele>
        <time>2022-01-14T13:24:09Z</time>
      </trkpt>
      <trkpt lat="46.52581" lon="5.36307">
        <ele>205.8</ele>
        <time>2022-01-14T13:24:11Z</time>
      </trkpt>
      <trkpt lat="46.52595" lon="5.3629">
        <ele>205.8</ele>
        <time>2022-01-14T13:24:14Z</time>
      </trkpt>
      <trkpt lat="46.52602" lon="5.36284">
        <ele>205.8</ele>
        <time>2022-01-14T13:24:15Z</time>
      </trkpt>
      <trkpt lat="46.52643" lon="5.36256">
        <ele>205.6</ele>
        <time>2022-01-14T13:24:22Z</time>
      </trkpt>
      <trkpt lat="46.52674" lon="5.36237">
        <ele>205.4</ele>
        <time>2022-01-14T13:24:27Z</time>
      </trkpt>
      <trkpt lat="46.5269" lon="5.36224">
        <ele>205.4</ele>
        <time>2022-01-14T13:24:30Z</time>
      </trkpt>
      <trkpt lat="46.52701" lon="5.36211">
        <ele>205.2</ele>
        <time>2022-01-14T13:24:32Z</time>
      </trkpt>
      <trkpt lat="46.52709" lon="5.36197">
        <ele>205.2</ele>
        <time>2022-01-14T13:24:34Z</time>
      </trkpt>
      <trkpt lat="46.52712" lon="5.36191">
        <ele>205.2</ele>
        <time>2022-01-14T13:24:35Z</time>
      </trkpt>
      <trkpt lat="46.52721" lon="5.36166">
        <ele>205.2</ele>
        <time>2022-01-14T13:24:38Z</time>
      </trkpt>
      <trkpt lat="46.52728" lon="5.36142">
        <ele>205</ele>
        <time>2022-01-14T13:24:41Z</time>
      </trkpt>
      <trkpt lat="46.52748" lon="5.36081">
        <ele>205.4</ele>
        <time>2022-01-14T13:24:49Z</time>
      </trkpt>
      <trkpt lat="46.52751" lon="5.36072">
        <ele>205.4</ele>
        <time>2022-01-14T13:24:50Z</time>
      </trkpt>
      <trkpt lat="46.52757" lon="5.36058">
        <ele>205.8</ele>
        <time>2022-01-14T13:24:52Z</time>
      </trkpt>
      <trkpt lat="46.52765" lon="5.36049">
        <ele>205.8</ele>
        <time>2022-01-14T13:24:54Z</time>
      </trkpt>
      <trkpt lat="46.52776" lon="5.36045">
        <ele>206</ele>
        <time>2022-01-14T13:24:56Z</time>
      </trkpt>
      <trkpt lat="46.52782" lon="5.36046">
        <ele>206.2</ele>
        <time>2022-01-14T13:24:57Z</time>
      </trkpt>
      <trkpt lat="46.52815" lon="5.36057">
        <ele>207.2</ele>
        <time>2022-01-14T13:25:04Z</time>
      </trkpt>
      <trkpt lat="46.52819" lon="5.36058">
        <ele>207.4</ele>
        <time>2022-01-14T13:25:05Z</time>
      </trkpt>
      <trkpt lat="46.52832" lon="5.36063">
        <ele>207.8</ele>
        <time>2022-01-14T13:25:09Z</time>
      </trkpt>
      <trkpt lat="46.52836" lon="5.36066">
        <ele>208.4</ele>
        <time>2022-01-14T13:25:11Z</time>
      </trkpt>
      <trkpt lat="46.52843" lon="5.36065">
        <ele>208.8</ele>
        <time>2022-01-14T13:25:13Z</time>
      </trkpt>
      <trkpt lat="46.52852" lon="5.36065">
        <ele>209.2</ele>
        <time>2022-01-14T13:25:15Z</time>
      </trkpt>
      <trkpt lat="46.52868" lon="5.36067">
        <ele>209.4</ele>
        <time>2022-01-14T13:25:18Z</time>
      </trkpt>
      <trkpt lat="46.52878" lon="5.36067">
        <ele>209.4</ele>
        <time>2022-01-14T13:25:20Z</time>
      </trkpt>
      <trkpt lat="46.52898" lon="5.36069">
        <ele>209.6</ele>
        <time>2022-01-14T13:25:24Z</time>
      </trkpt>
      <trkpt lat="46.52926" lon="5.36073">
        <ele>210.4</ele>
        <time>2022-01-14T13:25:30Z</time>
      </trkpt>
      <trkpt lat="46.52936" lon="5.36076">
        <ele>210.8</ele>
        <time>2022-01-14T13:25:32Z</time>
      </trkpt>
      <trkpt lat="46.52941" lon="5.36078">
        <ele>211.2</ele>
        <time>2022-01-14T13:25:33Z</time>
      </trkpt>
      <trkpt lat="46.52949" lon="5.36082">
        <ele>211.6</ele>
        <time>2022-01-14T13:25:35Z</time>
      </trkpt>
      <trkpt lat="46.52957" lon="5.3609">
        <ele>212</ele>
        <time>2022-01-14T13:25:37Z</time>
      </trkpt>
      <trkpt lat="46.5296" lon="5.36095">
        <ele>212.4</ele>
        <time>2022-01-14T13:25:38Z</time>
      </trkpt>
      <trkpt lat="46.52965" lon="5.36103">
        <ele>212.8</ele>
        <time>2022-01-14T13:25:40Z</time>
      </trkpt>
      <trkpt lat="46.52971" lon="5.36114">
        <ele>213</ele>
        <time>2022-01-14T13:25:42Z</time>
      </trkpt>
      <trkpt lat="46.5298" lon="5.36126">
        <ele>213.6</ele>
        <time>2022-01-14T13:25:45Z</time>
      </trkpt>
      <trkpt lat="46.52985" lon="5.36131">
        <ele>214</ele>
        <time>2022-01-14T13:25:46Z</time>
      </trkpt>
      <trkpt lat="46.5299" lon="5.36133">
        <ele>214.2</ele>
        <time>2022-01-14T13:25:47Z</time>
      </trkpt>
      <trkpt lat="46.52998" lon="5.36136">
        <ele>214.6</ele>
        <time>2022-01-14T13:25:49Z</time>
      </trkpt>
      <trkpt lat="46.53014" lon="5.36138">
        <ele>215.2</ele>
        <time>2022-01-14T13:25:53Z</time>
      </trkpt>
      <trkpt lat="46.53021" lon="5.36139">
        <ele>215.6</ele>
        <time>2022-01-14T13:25:55Z</time>
      </trkpt>
      <trkpt lat="46.53031" lon="5.36141">
        <ele>216</ele>
        <time>2022-01-14T13:25:57Z</time>
      </trkpt>
      <trkpt lat="46.53034" lon="5.36141">
        <ele>216.4</ele>
        <time>2022-01-14T13:25:58Z</time>
      </trkpt>
      <trkpt lat="46.53048" lon="5.36141">
        <ele>217</ele>
        <time>2022-01-14T13:26:01Z</time>
      </trkpt>
      <trkpt lat="46.53052" lon="5.3614">
        <ele>217.2</ele>
        <time>2022-01-14T13:26:02Z</time>
      </trkpt>
      <trkpt lat="46.53068" lon="5.36131">
        <ele>217.8</ele>
        <time>2022-01-14T13:26:06Z</time>
      </trkpt>
      <trkpt lat="46.53072" lon="5.36128">
        <ele>218</ele>
        <time>2022-01-14T13:26:07Z</time>
      </trkpt>
      <trkpt lat="46.53075" lon="5.36125">
        <ele>218</ele>
        <time>2022-01-14T13:26:08Z</time>
      </trkpt>
      <trkpt lat="46.53095" lon="5.36104">
        <ele>218.8</ele>
        <time>2022-01-14T13:26:14Z</time>
      </trkpt>
      <trkpt lat="46.53097" lon="5.361">
        <ele>219</ele>
        <time>2022-01-14T13:26:15Z</time>
      </trkpt>
      <trkpt lat="46.53103" lon="5.36087">
        <ele>219.8</ele>
        <time>2022-01-14T13:26:18Z</time>
      </trkpt>
      <trkpt lat="46.53117" lon="5.36059">
        <ele>220.8</ele>
        <time>2022-01-14T13:26:24Z</time>
      </trkpt>
      <trkpt lat="46.5312" lon="5.36053">
        <ele>221</ele>
        <time>2022-01-14T13:26:25Z</time>
      </trkpt>
      <trkpt lat="46.53132" lon="5.36032">
        <ele>221.8</ele>
        <time>2022-01-14T13:26:29Z</time>
      </trkpt>
      <trkpt lat="46.53145" lon="5.36012">
        <ele>222.2</ele>
        <time>2022-01-14T13:26:33Z</time>
      </trkpt>
      <trkpt lat="46.53148" lon="5.36007">
        <ele>222.4</ele>
        <time>2022-01-14T13:26:34Z</time>
      </trkpt>
      <trkpt lat="46.53162" lon="5.3598">
        <ele>222.8</ele>
        <time>2022-01-14T13:26:39Z</time>
      </trkpt>
      <trkpt lat="46.53165" lon="5.35975">
        <ele>222.8</ele>
        <time>2022-01-14T13:26:40Z</time>
      </trkpt>
      <trkpt lat="46.53188" lon="5.35933">
        <ele>224</ele>
        <time>2022-01-14T13:26:48Z</time>
      </trkpt>
      <trkpt lat="46.53192" lon="5.3593">
        <ele>224</ele>
        <time>2022-01-14T13:26:49Z</time>
      </trkpt>
      <trkpt lat="46.53197" lon="5.35926">
        <ele>224.2</ele>
        <time>2022-01-14T13:26:50Z</time>
      </trkpt>
      <trkpt lat="46.53213" lon="5.35918">
        <ele>224.4</ele>
        <time>2022-01-14T13:26:53Z</time>
      </trkpt>
      <trkpt lat="46.53266" lon="5.35896">
        <ele>224.4</ele>
        <time>2022-01-14T13:27:02Z</time>
      </trkpt>
      <trkpt lat="46.53313" lon="5.35875">
        <ele>224.2</ele>
        <time>2022-01-14T13:27:10Z</time>
      </trkpt>
      <trkpt lat="46.53351" lon="5.35863">
        <ele>224.6</ele>
        <time>2022-01-14T13:27:17Z</time>
      </trkpt>
      <trkpt lat="46.53367" lon="5.35861">
        <ele>225</ele>
        <time>2022-01-14T13:27:20Z</time>
      </trkpt>
      <trkpt lat="46.53388" lon="5.35861">
        <ele>225.6</ele>
        <time>2022-01-14T13:27:24Z</time>
      </trkpt>
      <trkpt lat="46.53394" lon="5.35861">
        <ele>225.6</ele>
        <time>2022-01-14T13:27:25Z</time>
      </trkpt>
      <trkpt lat="46.5341" lon="5.35864">
        <ele>226</ele>
        <time>2022-01-14T13:27:28Z</time>
      </trkpt>
      <trkpt lat="46.53415" lon="5.35865">
        <ele>226.2</ele>
        <time>2022-01-14T13:27:29Z</time>
      </trkpt>
      <trkpt lat="46.53445" lon="5.35869">
        <ele>227.2</ele>
        <time>2022-01-14T13:27:35Z</time>
      </trkpt>
      <trkpt lat="46.5345" lon="5.3587">
        <ele>227.6</ele>
        <time>2022-01-14T13:27:36Z</time>
      </trkpt>
      <trkpt lat="46.53456" lon="5.3587">
        <ele>227.6</ele>
        <time>2022-01-14T13:27:37Z</time>
      </trkpt>
      <trkpt lat="46.53475" lon="5.35865">
        <ele>228.2</ele>
        <time>2022-01-14T13:27:41Z</time>
      </trkpt>
      <trkpt lat="46.53494" lon="5.35855">
        <ele>229.6</ele>
        <time>2022-01-14T13:27:45Z</time>
      </trkpt>
      <trkpt lat="46.5351" lon="5.3585">
        <ele>230</ele>
        <time>2022-01-14T13:27:48Z</time>
      </trkpt>
      <trkpt lat="46.5352" lon="5.3585">
        <ele>230.4</ele>
        <time>2022-01-14T13:27:50Z</time>
      </trkpt>
      <trkpt lat="46.53532" lon="5.35852">
        <ele>230.6</ele>
        <time>2022-01-14T13:27:52Z</time>
      </trkpt>
      <trkpt lat="46.53561" lon="5.35857">
        <ele>230.6</ele>
        <time>2022-01-14T13:27:57Z</time>
      </trkpt>
      <trkpt lat="46.536" lon="5.35867">
        <ele>230.6</ele>
        <time>2022-01-14T13:28:04Z</time>
      </trkpt>
      <trkpt lat="46.53639" lon="5.35882">
        <ele>230</ele>
        <time>2022-01-14T13:28:11Z</time>
      </trkpt>
      <trkpt lat="46.53648" lon="5.35881">
        <ele>229.2</ele>
        <time>2022-01-14T13:28:14Z</time>
      </trkpt>
      <trkpt lat="46.53654" lon="5.35877">
        <ele>229</ele>
        <time>2022-01-14T13:28:15Z</time>
      </trkpt>
      <trkpt lat="46.53662" lon="5.35866">
        <ele>228.6</ele>
        <time>2022-01-14T13:28:17Z</time>
      </trkpt>
      <trkpt lat="46.53673" lon="5.35849">
        <ele>227.8</ele>
        <time>2022-01-14T13:28:19Z</time>
      </trkpt>
      <trkpt lat="46.5369" lon="5.35824">
        <ele>227.2</ele>
        <time>2022-01-14T13:28:22Z</time>
      </trkpt>
      <trkpt lat="46.53704" lon="5.35804">
        <ele>226.6</ele>
        <time>2022-01-14T13:28:24Z</time>
      </trkpt>
      <trkpt lat="46.53722" lon="5.35776">
        <ele>225</ele>
        <time>2022-01-14T13:28:27Z</time>
      </trkpt>
      <trkpt lat="46.53733" lon="5.35756">
        <ele>224</ele>
        <time>2022-01-14T13:28:29Z</time>
      </trkpt>
      <trkpt lat="46.53748" lon="5.35715">
        <ele>222.8</ele>
        <time>2022-01-14T13:28:33Z</time>
      </trkpt>
      <trkpt lat="46.53751" lon="5.35704">
        <ele>222.6</ele>
        <time>2022-01-14T13:28:34Z</time>
      </trkpt>
      <trkpt lat="46.53757" lon="5.35662">
        <ele>222.4</ele>
        <time>2022-01-14T13:28:38Z</time>
      </trkpt>
      <trkpt lat="46.53758" lon="5.35619">
        <ele>222</ele>
        <time>2022-01-14T13:28:42Z</time>
      </trkpt>
      <trkpt lat="46.53756" lon="5.35609">
        <ele>222</ele>
        <time>2022-01-14T13:28:43Z</time>
      </trkpt>
      <trkpt lat="46.53754" lon="5.35598">
        <ele>222</ele>
        <time>2022-01-14T13:28:44Z</time>
      </trkpt>
      <trkpt lat="46.53746" lon="5.35569">
        <ele>221.8</ele>
        <time>2022-01-14T13:28:47Z</time>
      </trkpt>
      <trkpt lat="46.53743" lon="5.35559">
        <ele>221.8</ele>
        <time>2022-01-14T13:28:48Z</time>
      </trkpt>
      <trkpt lat="46.53729" lon="5.35494">
        <ele>221.6</ele>
        <time>2022-01-14T13:28:55Z</time>
      </trkpt>
      <trkpt lat="46.53728" lon="5.35483">
        <ele>221.6</ele>
        <time>2022-01-14T13:28:56Z</time>
      </trkpt>
      <trkpt lat="46.53728" lon="5.35448">
        <ele>222</ele>
        <time>2022-01-14T13:29:00Z</time>
      </trkpt>
      <trkpt lat="46.53735" lon="5.3539">
        <ele>222.4</ele>
        <time>2022-01-14T13:29:07Z</time>
      </trkpt>
      <trkpt lat="46.53739" lon="5.35367">
        <ele>223</ele>
        <time>2022-01-14T13:29:10Z</time>
      </trkpt>
      <trkpt lat="46.53746" lon="5.35338">
        <ele>223.8</ele>
        <time>2022-01-14T13:29:14Z</time>
      </trkpt>
      <trkpt lat="46.53748" lon="5.35333">
        <ele>224.2</ele>
        <time>2022-01-14T13:29:15Z</time>
      </trkpt>
      <trkpt lat="46.53761" lon="5.35306">
        <ele>225.4</ele>
        <time>2022-01-14T13:29:20Z</time>
      </trkpt>
      <trkpt lat="46.53774" lon="5.35286">
        <ele>226.6</ele>
        <time>2022-01-14T13:29:24Z</time>
      </trkpt>
      <trkpt lat="46.53793" lon="5.35259">
        <ele>227.2</ele>
        <time>2022-01-14T13:29:29Z</time>
      </trkpt>
      <trkpt lat="46.53806" lon="5.35243">
        <ele>227.6</ele>
        <time>2022-01-14T13:29:32Z</time>
      </trkpt>
      <trkpt lat="46.53816" lon="5.35233">
        <ele>227.6</ele>
        <time>2022-01-14T13:29:34Z</time>
      </trkpt>
      <trkpt lat="46.53859" lon="5.35202">
        <ele>227.6</ele>
        <time>2022-01-14T13:29:41Z</time>
      </trkpt>
      <trkpt lat="46.53908" lon="5.35167">
        <ele>226.8</ele>
        <time>2022-01-14T13:29:49Z</time>
      </trkpt>
      <trkpt lat="46.53914" lon="5.35163">
        <ele>226.6</ele>
        <time>2022-01-14T13:29:50Z</time>
      </trkpt>
      <trkpt lat="46.53954" lon="5.35128">
        <ele>225.8</ele>
        <time>2022-01-14T13:29:57Z</time>
      </trkpt>
      <trkpt lat="46.5396" lon="5.3512">
        <ele>225.6</ele>
        <time>2022-01-14T13:29:58Z</time>
      </trkpt>
      <trkpt lat="46.5399" lon="5.35083">
        <ele>225</ele>
        <time>2022-01-14T13:30:04Z</time>
      </trkpt>
      <trkpt lat="46.54018" lon="5.35053">
        <ele>224.4</ele>
        <time>2022-01-14T13:30:09Z</time>
      </trkpt>
      <trkpt lat="46.54037" lon="5.35037">
        <ele>224</ele>
        <time>2022-01-14T13:30:12Z</time>
      </trkpt>
      <trkpt lat="46.54063" lon="5.35021">
        <ele>223.4</ele>
        <time>2022-01-14T13:30:16Z</time>
      </trkpt>
      <trkpt lat="46.54087" lon="5.3501">
        <ele>222.8</ele>
        <time>2022-01-14T13:30:19Z</time>
      </trkpt>
      <trkpt lat="46.54102" lon="5.35004">
        <ele>222.2</ele>
        <time>2022-01-14T13:30:21Z</time>
      </trkpt>
      <trkpt lat="46.54139" lon="5.34985">
        <ele>221.2</ele>
        <time>2022-01-14T13:30:26Z</time>
      </trkpt>
      <trkpt lat="46.54145" lon="5.34979">
        <ele>221</ele>
        <time>2022-01-14T13:30:27Z</time>
      </trkpt>
      <trkpt lat="46.54176" lon="5.34943">
        <ele>220</ele>
        <time>2022-01-14T13:30:32Z</time>
      </trkpt>
      <trkpt lat="46.54216" lon="5.34904">
        <ele>219</ele>
        <time>2022-01-14T13:30:38Z</time>
      </trkpt>
      <trkpt lat="46.54229" lon="5.3489">
        <ele>218.4</ele>
        <time>2022-01-14T13:30:40Z</time>
      </trkpt>
      <trkpt lat="46.5424" lon="5.34875">
        <ele>217.8</ele>
        <time>2022-01-14T13:30:42Z</time>
      </trkpt>
      <trkpt lat="46.54244" lon="5.34866">
        <ele>217.8</ele>
        <time>2022-01-14T13:30:43Z</time>
      </trkpt>
      <trkpt lat="46.54275" lon="5.34817">
        <ele>216.8</ele>
        <time>2022-01-14T13:30:49Z</time>
      </trkpt>
      <trkpt lat="46.54323" lon="5.34768">
        <ele>216.2</ele>
        <time>2022-01-14T13:30:57Z</time>
      </trkpt>
      <trkpt lat="46.54329" lon="5.34762">
        <ele>216.2</ele>
        <time>2022-01-14T13:30:58Z</time>
      </trkpt>
      <trkpt lat="46.54354" lon="5.34746">
        <ele>216</ele>
        <time>2022-01-14T13:31:02Z</time>
      </trkpt>
      <trkpt lat="46.5436" lon="5.34744">
        <ele>216.2</ele>
        <time>2022-01-14T13:31:03Z</time>
      </trkpt>
      <trkpt lat="46.54396" lon="5.34732">
        <ele>216.6</ele>
        <time>2022-01-14T13:31:09Z</time>
      </trkpt>
      <trkpt lat="46.54402" lon="5.34729">
        <ele>216.6</ele>
        <time>2022-01-14T13:31:10Z</time>
      </trkpt>
      <trkpt lat="46.54431" lon="5.34713">
        <ele>217.2</ele>
        <time>2022-01-14T13:31:15Z</time>
      </trkpt>
      <trkpt lat="46.54472" lon="5.34687">
        <ele>217.4</ele>
        <time>2022-01-14T13:31:22Z</time>
      </trkpt>
      <trkpt lat="46.54501" lon="5.34655">
        <ele>217.2</ele>
        <time>2022-01-14T13:31:28Z</time>
      </trkpt>
      <trkpt lat="46.54531" lon="5.34611">
        <ele>217.4</ele>
        <time>2022-01-14T13:31:35Z</time>
      </trkpt>
      <trkpt lat="46.54555" lon="5.3459">
        <ele>217.8</ele>
        <time>2022-01-14T13:31:40Z</time>
      </trkpt>
      <trkpt lat="46.5456" lon="5.34585">
        <ele>217.8</ele>
        <time>2022-01-14T13:31:41Z</time>
      </trkpt>
      <trkpt lat="46.54585" lon="5.34561">
        <ele>218.8</ele>
        <time>2022-01-14T13:31:47Z</time>
      </trkpt>
      <trkpt lat="46.54588" lon="5.34558">
        <ele>219</ele>
        <time>2022-01-14T13:31:48Z</time>
      </trkpt>
      <trkpt lat="46.54604" lon="5.34544">
        <ele>220.6</ele>
        <time>2022-01-14T13:31:52Z</time>
      </trkpt>
      <trkpt lat="46.54608" lon="5.3454">
        <ele>220.8</ele>
        <time>2022-01-14T13:31:53Z</time>
      </trkpt>
      <trkpt lat="46.54621" lon="5.34529">
        <ele>221.8</ele>
        <time>2022-01-14T13:31:56Z</time>
      </trkpt>
      <trkpt lat="46.54642" lon="5.34511">
        <ele>222.8</ele>
        <time>2022-01-14T13:32:00Z</time>
      </trkpt>
      <trkpt lat="46.54646" lon="5.34508">
        <ele>223.2</ele>
        <time>2022-01-14T13:32:01Z</time>
      </trkpt>
      <trkpt lat="46.54684" lon="5.3448">
        <ele>224.2</ele>
        <time>2022-01-14T13:32:08Z</time>
      </trkpt>
      <trkpt lat="46.5469" lon="5.34477">
        <ele>224.2</ele>
        <time>2022-01-14T13:32:09Z</time>
      </trkpt>
      <trkpt lat="46.54725" lon="5.34465">
        <ele>224.4</ele>
        <time>2022-01-14T13:32:15Z</time>
      </trkpt>
      <trkpt lat="46.5478" lon="5.34449">
        <ele>223.8</ele>
        <time>2022-01-14T13:32:23Z</time>
      </trkpt>
      <trkpt lat="46.54786" lon="5.34447">
        <ele>223.6</ele>
        <time>2022-01-14T13:32:24Z</time>
      </trkpt>
      <trkpt lat="46.5481" lon="5.34438">
        <ele>223.2</ele>
        <time>2022-01-14T13:32:28Z</time>
      </trkpt>
      <trkpt lat="46.54821" lon="5.34434">
        <ele>223.2</ele>
        <time>2022-01-14T13:32:30Z</time>
      </trkpt>
      <trkpt lat="46.54833" lon="5.34429">
        <ele>223.2</ele>
        <time>2022-01-14T13:32:32Z</time>
      </trkpt>
      <trkpt lat="46.54865" lon="5.34412">
        <ele>223.4</ele>
        <time>2022-01-14T13:32:38Z</time>
      </trkpt>
      <trkpt lat="46.54905" lon="5.34379">
        <ele>224.2</ele>
        <time>2022-01-14T13:32:46Z</time>
      </trkpt>
      <trkpt lat="46.5491" lon="5.34375">
        <ele>224.2</ele>
        <time>2022-01-14T13:32:47Z</time>
      </trkpt>
      <trkpt lat="46.54935" lon="5.34352">
        <ele>224.4</ele>
        <time>2022-01-14T13:32:52Z</time>
      </trkpt>
      <trkpt lat="46.54961" lon="5.34327">
        <ele>224.6</ele>
        <time>2022-01-14T13:32:57Z</time>
      </trkpt>
      <trkpt lat="46.54971" lon="5.34315">
        <ele>224.6</ele>
        <time>2022-01-14T13:32:59Z</time>
      </trkpt>
      <trkpt lat="46.5501" lon="5.34264">
        <ele>224.2</ele>
        <time>2022-01-14T13:33:07Z</time>
      </trkpt>
      <trkpt lat="46.55045" lon="5.3422">
        <ele>223.8</ele>
        <time>2022-01-14T13:33:14Z</time>
      </trkpt>
      <trkpt lat="46.5506" lon="5.34203">
        <ele>223.6</ele>
        <time>2022-01-14T13:33:17Z</time>
      </trkpt>
      <trkpt lat="46.55076" lon="5.34188">
        <ele>223.4</ele>
        <time>2022-01-14T13:33:20Z</time>
      </trkpt>
      <trkpt lat="46.55081" lon="5.34183">
        <ele>223.2</ele>
        <time>2022-01-14T13:33:21Z</time>
      </trkpt>
      <trkpt lat="46.5511" lon="5.34151">
        <ele>222.8</ele>
        <time>2022-01-14T13:33:27Z</time>
      </trkpt>
      <trkpt lat="46.55149" lon="5.34102">
        <ele>222.8</ele>
        <time>2022-01-14T13:33:35Z</time>
      </trkpt>
      <trkpt lat="46.55179" lon="5.34065">
        <ele>222.4</ele>
        <time>2022-01-14T13:33:42Z</time>
      </trkpt>
      <trkpt lat="46.55182" lon="5.3406">
        <ele>222.4</ele>
        <time>2022-01-14T13:33:43Z</time>
      </trkpt>
      <trkpt lat="46.55186" lon="5.3405">
        <ele>222.2</ele>
        <time>2022-01-14T13:33:45Z</time>
      </trkpt>
      <trkpt lat="46.55187" lon="5.34042">
        <ele>222</ele>
        <time>2022-01-14T13:33:46Z</time>
      </trkpt>
      <trkpt lat="46.55192" lon="5.34018">
        <ele>221.6</ele>
        <time>2022-01-14T13:33:49Z</time>
      </trkpt>
      <trkpt lat="46.55195" lon="5.34012">
        <ele>221.2</ele>
        <time>2022-01-14T13:33:50Z</time>
      </trkpt>
      <trkpt lat="46.55199" lon="5.34004">
        <ele>221.2</ele>
        <time>2022-01-14T13:33:51Z</time>
      </trkpt>
      <trkpt lat="46.55208" lon="5.33992">
        <ele>220.8</ele>
        <time>2022-01-14T13:33:53Z</time>
      </trkpt>
      <trkpt lat="46.55216" lon="5.33979">
        <ele>220.6</ele>
        <time>2022-01-14T13:33:55Z</time>
      </trkpt>
      <trkpt lat="46.55243" lon="5.33944">
        <ele>220.6</ele>
        <time>2022-01-14T13:34:01Z</time>
      </trkpt>
      <trkpt lat="46.55251" lon="5.33932">
        <ele>220.6</ele>
        <time>2022-01-14T13:34:03Z</time>
      </trkpt>
      <trkpt lat="46.55275" lon="5.33886">
        <ele>221.2</ele>
        <time>2022-01-14T13:34:09Z</time>
      </trkpt>
      <trkpt lat="46.5531" lon="5.33833">
        <ele>221.8</ele>
        <time>2022-01-14T13:34:17Z</time>
      </trkpt>
      <trkpt lat="46.55356" lon="5.33783">
        <ele>221.4</ele>
        <time>2022-01-14T13:34:26Z</time>
      </trkpt>
      <trkpt lat="46.55368" lon="5.33772">
        <ele>221</ele>
        <time>2022-01-14T13:34:28Z</time>
      </trkpt>
      <trkpt lat="46.55408" lon="5.33741">
        <ele>220.6</ele>
        <time>2022-01-14T13:34:35Z</time>
      </trkpt>
      <trkpt lat="46.55442" lon="5.33698">
        <ele>220.6</ele>
        <time>2022-01-14T13:34:42Z</time>
      </trkpt>
      <trkpt lat="46.55484" lon="5.33638">
        <ele>220.2</ele>
        <time>2022-01-14T13:34:51Z</time>
      </trkpt>
      <trkpt lat="46.55489" lon="5.33632">
        <ele>220</ele>
        <time>2022-01-14T13:34:52Z</time>
      </trkpt>
      <trkpt lat="46.55518" lon="5.33592">
        <ele>219.4</ele>
        <time>2022-01-14T13:34:58Z</time>
      </trkpt>
      <trkpt lat="46.55528" lon="5.33579">
        <ele>219.2</ele>
        <time>2022-01-14T13:35:00Z</time>
      </trkpt>
      <trkpt lat="46.55549" lon="5.3355">
        <ele>218.6</ele>
        <time>2022-01-14T13:35:04Z</time>
      </trkpt>
      <trkpt lat="46.55567" lon="5.33525">
        <ele>218</ele>
        <time>2022-01-14T13:35:07Z</time>
      </trkpt>
      <trkpt lat="46.55576" lon="5.33511">
        <ele>217.2</ele>
        <time>2022-01-14T13:35:09Z</time>
      </trkpt>
      <trkpt lat="46.55586" lon="5.33489">
        <ele>216.6</ele>
        <time>2022-01-14T13:35:11Z</time>
      </trkpt>
      <trkpt lat="46.55589" lon="5.33478">
        <ele>216.4</ele>
        <time>2022-01-14T13:35:12Z</time>
      </trkpt>
      <trkpt lat="46.55592" lon="5.33466">
        <ele>215.8</ele>
        <time>2022-01-14T13:35:13Z</time>
      </trkpt>
      <trkpt lat="46.55596" lon="5.3343">
        <ele>215.2</ele>
        <time>2022-01-14T13:35:16Z</time>
      </trkpt>
      <trkpt lat="46.55596" lon="5.33418">
        <ele>214.6</ele>
        <time>2022-01-14T13:35:17Z</time>
      </trkpt>
      <trkpt lat="46.55599" lon="5.33382">
        <ele>213.2</ele>
        <time>2022-01-14T13:35:20Z</time>
      </trkpt>
      <trkpt lat="46.55604" lon="5.3335">
        <ele>212.2</ele>
        <time>2022-01-14T13:35:23Z</time>
      </trkpt>
      <trkpt lat="46.55608" lon="5.33337">
        <ele>211.6</ele>
        <time>2022-01-14T13:35:24Z</time>
      </trkpt>
      <trkpt lat="46.55623" lon="5.33287">
        <ele>210.8</ele>
        <time>2022-01-14T13:35:29Z</time>
      </trkpt>
      <trkpt lat="46.55626" lon="5.33277">
        <ele>210.6</ele>
        <time>2022-01-14T13:35:30Z</time>
      </trkpt>
      <trkpt lat="46.55645" lon="5.33212">
        <ele>210.2</ele>
        <time>2022-01-14T13:35:37Z</time>
      </trkpt>
      <trkpt lat="46.55664" lon="5.33138">
        <ele>210</ele>
        <time>2022-01-14T13:35:45Z</time>
      </trkpt>
      <trkpt lat="46.55681" lon="5.33065">
        <ele>209.6</ele>
        <time>2022-01-14T13:35:53Z</time>
      </trkpt>
      <trkpt lat="46.55683" lon="5.33056">
        <ele>209.6</ele>
        <time>2022-01-14T13:35:54Z</time>
      </trkpt>
      <trkpt lat="46.55698" lon="5.32977">
        <ele>209.4</ele>
        <time>2022-01-14T13:36:03Z</time>
      </trkpt>
      <trkpt lat="46.55701" lon="5.3296">
        <ele>209.6</ele>
        <time>2022-01-14T13:36:05Z</time>
      </trkpt>
      <trkpt lat="46.55715" lon="5.32881">
        <ele>210.2</ele>
        <time>2022-01-14T13:36:15Z</time>
      </trkpt>
      <trkpt lat="46.55729" lon="5.32803">
        <ele>210.4</ele>
        <time>2022-01-14T13:36:25Z</time>
      </trkpt>
      <trkpt lat="46.55746" lon="5.32724">
        <ele>210.4</ele>
        <time>2022-01-14T13:36:35Z</time>
      </trkpt>
      <trkpt lat="46.55754" lon="5.32701">
        <ele>210.4</ele>
        <time>2022-01-14T13:36:38Z</time>
      </trkpt>
      <trkpt lat="46.55762" lon="5.32687">
        <ele>210.4</ele>
        <time>2022-01-14T13:36:40Z</time>
      </trkpt>
      <trkpt lat="46.55771" lon="5.32678">
        <ele>210.2</ele>
        <time>2022-01-14T13:36:42Z</time>
      </trkpt>
      <trkpt lat="46.55783" lon="5.3267">
        <ele>210.2</ele>
        <time>2022-01-14T13:36:44Z</time>
      </trkpt>
      <trkpt lat="46.55795" lon="5.32665">
        <ele>210.2</ele>
        <time>2022-01-14T13:36:46Z</time>
      </trkpt>
      <trkpt lat="46.55815" lon="5.32662">
        <ele>210.2</ele>
        <time>2022-01-14T13:36:49Z</time>
      </trkpt>
      <trkpt lat="46.55867" lon="5.32653">
        <ele>210.4</ele>
        <time>2022-01-14T13:36:57Z</time>
      </trkpt>
      <trkpt lat="46.55885" lon="5.32643">
        <ele>210.6</ele>
        <time>2022-01-14T13:37:00Z</time>
      </trkpt>
      <trkpt lat="46.55896" lon="5.32633">
        <ele>210.8</ele>
        <time>2022-01-14T13:37:02Z</time>
      </trkpt>
      <trkpt lat="46.55915" lon="5.32607">
        <ele>210.8</ele>
        <time>2022-01-14T13:37:06Z</time>
      </trkpt>
      <trkpt lat="46.55919" lon="5.326">
        <ele>210.8</ele>
        <time>2022-01-14T13:37:07Z</time>
      </trkpt>
      <trkpt lat="46.55948" lon="5.3253">
        <ele>210.8</ele>
        <time>2022-01-14T13:37:16Z</time>
      </trkpt>
      <trkpt lat="46.55952" lon="5.32522">
        <ele>210.8</ele>
        <time>2022-01-14T13:37:17Z</time>
      </trkpt>
      <trkpt lat="46.5598" lon="5.32456">
        <ele>211.2</ele>
        <time>2022-01-14T13:37:26Z</time>
      </trkpt>
      <trkpt lat="46.56009" lon="5.32388">
        <ele>211.6</ele>
        <time>2022-01-14T13:37:36Z</time>
      </trkpt>
      <trkpt lat="46.56013" lon="5.32381">
        <ele>211.6</ele>
        <time>2022-01-14T13:37:37Z</time>
      </trkpt>
      <trkpt lat="46.56024" lon="5.32364">
        <ele>211.8</ele>
        <time>2022-01-14T13:37:40Z</time>
      </trkpt>
      <trkpt lat="46.56031" lon="5.32354">
        <ele>211.8</ele>
        <time>2022-01-14T13:37:42Z</time>
      </trkpt>
      <trkpt lat="46.56061" lon="5.32312">
        <ele>212.8</ele>
        <time>2022-01-14T13:37:50Z</time>
      </trkpt>
      <trkpt lat="46.56092" lon="5.32276">
        <ele>214</ele>
        <time>2022-01-14T13:37:58Z</time>
      </trkpt>
      <trkpt lat="46.56096" lon="5.32272">
        <ele>214.2</ele>
        <time>2022-01-14T13:37:59Z</time>
      </trkpt>
      <trkpt lat="46.561" lon="5.32267">
        <ele>214.4</ele>
        <time>2022-01-14T13:38:00Z</time>
      </trkpt>
      <trkpt lat="46.56112" lon="5.32254">
        <ele>215</ele>
        <time>2022-01-14T13:38:03Z</time>
      </trkpt>
      <trkpt lat="46.56133" lon="5.32229">
        <ele>215.6</ele>
        <time>2022-01-14T13:38:08Z</time>
      </trkpt>
      <trkpt lat="46.56136" lon="5.32225">
        <ele>216</ele>
        <time>2022-01-14T13:38:09Z</time>
      </trkpt>
      <trkpt lat="46.56156" lon="5.32201">
        <ele>217</ele>
        <time>2022-01-14T13:38:14Z</time>
      </trkpt>
      <trkpt lat="46.56168" lon="5.32185">
        <ele>217.4</ele>
        <time>2022-01-14T13:38:17Z</time>
      </trkpt>
      <trkpt lat="46.56188" lon="5.3216">
        <ele>218</ele>
        <time>2022-01-14T13:38:22Z</time>
      </trkpt>
      <trkpt lat="46.56192" lon="5.32154">
        <ele>218</ele>
        <time>2022-01-14T13:38:23Z</time>
      </trkpt>
      <trkpt lat="46.56195" lon="5.32149">
        <ele>218</ele>
        <time>2022-01-14T13:38:24Z</time>
      </trkpt>
      <trkpt lat="46.56226" lon="5.3211">
        <ele>218.8</ele>
        <time>2022-01-14T13:38:32Z</time>
      </trkpt>
      <trkpt lat="46.56246" lon="5.32083">
        <ele>219</ele>
        <time>2022-01-14T13:38:37Z</time>
      </trkpt>
      <trkpt lat="46.56261" lon="5.32067">
        <ele>219.2</ele>
        <time>2022-01-14T13:38:40Z</time>
      </trkpt>
      <trkpt lat="46.56298" lon="5.32037">
        <ele>219.4</ele>
        <time>2022-01-14T13:38:47Z</time>
      </trkpt>
      <trkpt lat="46.5635" lon="5.32">
        <ele>218.8</ele>
        <time>2022-01-14T13:38:56Z</time>
      </trkpt>
      <trkpt lat="46.56356" lon="5.31995">
        <ele>218.6</ele>
        <time>2022-01-14T13:38:57Z</time>
      </trkpt>
      <trkpt lat="46.5641" lon="5.31964">
        <ele>218.6</ele>
        <time>2022-01-14T13:39:06Z</time>
      </trkpt>
      <trkpt lat="46.56446" lon="5.3196">
        <ele>218.8</ele>
        <time>2022-01-14T13:39:12Z</time>
      </trkpt>
      <trkpt lat="46.56502" lon="5.31957">
        <ele>219.2</ele>
        <time>2022-01-14T13:39:21Z</time>
      </trkpt>
      <trkpt lat="46.56514" lon="5.31956">
        <ele>219.2</ele>
        <time>2022-01-14T13:39:23Z</time>
      </trkpt>
      <trkpt lat="46.56561" lon="5.31948">
        <ele>219</ele>
        <time>2022-01-14T13:39:30Z</time>
      </trkpt>
      <trkpt lat="46.56598" lon="5.31931">
        <ele>218.8</ele>
        <time>2022-01-14T13:39:36Z</time>
      </trkpt>
      <trkpt lat="46.56632" lon="5.319">
        <ele>218.8</ele>
        <time>2022-01-14T13:39:42Z</time>
      </trkpt>
      <trkpt lat="46.56682" lon="5.31852">
        <ele>218.4</ele>
        <time>2022-01-14T13:39:51Z</time>
      </trkpt>
      <trkpt lat="46.56687" lon="5.31846">
        <ele>218.4</ele>
        <time>2022-01-14T13:39:52Z</time>
      </trkpt>
      <trkpt lat="46.56734" lon="5.318">
        <ele>218.8</ele>
        <time>2022-01-14T13:40:01Z</time>
      </trkpt>
      <trkpt lat="46.56739" lon="5.31795">
        <ele>219</ele>
        <time>2022-01-14T13:40:02Z</time>
      </trkpt>
      <trkpt lat="46.56786" lon="5.31751">
        <ele>219.6</ele>
        <time>2022-01-14T13:40:11Z</time>
      </trkpt>
      <trkpt lat="46.56797" lon="5.3174">
        <ele>219.6</ele>
        <time>2022-01-14T13:40:13Z</time>
      </trkpt>
      <trkpt lat="46.56847" lon="5.31693">
        <ele>219.2</ele>
        <time>2022-01-14T13:40:22Z</time>
      </trkpt>
      <trkpt lat="46.56858" lon="5.31687">
        <ele>219.2</ele>
        <time>2022-01-14T13:40:24Z</time>
      </trkpt>
      <trkpt lat="46.56872" lon="5.31684">
        <ele>219</ele>
        <time>2022-01-14T13:40:26Z</time>
      </trkpt>
      <trkpt lat="46.56919" lon="5.31684">
        <ele>218.6</ele>
        <time>2022-01-14T13:40:33Z</time>
      </trkpt>
      <trkpt lat="46.56977" lon="5.3168">
        <ele>218.4</ele>
        <time>2022-01-14T13:40:42Z</time>
      </trkpt>
      <trkpt lat="46.56998" lon="5.31676">
        <ele>218.2</ele>
        <time>2022-01-14T13:40:45Z</time>
      </trkpt>
      <trkpt lat="46.57034" lon="5.31671">
        <ele>218.2</ele>
        <time>2022-01-14T13:40:51Z</time>
      </trkpt>
      <trkpt lat="46.57093" lon="5.31662">
        <ele>218.2</ele>
        <time>2022-01-14T13:41:00Z</time>
      </trkpt>
      <trkpt lat="46.57105" lon="5.31662">
        <ele>218.2</ele>
        <time>2022-01-14T13:41:02Z</time>
      </trkpt>
      <trkpt lat="46.5716" lon="5.3166">
        <ele>218.6</ele>
        <time>2022-01-14T13:41:11Z</time>
      </trkpt>
      <trkpt lat="46.5719" lon="5.31657">
        <ele>218.8</ele>
        <time>2022-01-14T13:41:16Z</time>
      </trkpt>
      <trkpt lat="46.57203" lon="5.31657">
        <ele>218.8</ele>
        <time>2022-01-14T13:41:18Z</time>
      </trkpt>
      <trkpt lat="46.57241" lon="5.31655">
        <ele>219.6</ele>
        <time>2022-01-14T13:41:24Z</time>
      </trkpt>
      <trkpt lat="46.57253" lon="5.31654">
        <ele>219.6</ele>
        <time>2022-01-14T13:41:26Z</time>
      </trkpt>
      <trkpt lat="46.57304" lon="5.31646">
        <ele>219.4</ele>
        <time>2022-01-14T13:41:34Z</time>
      </trkpt>
      <trkpt lat="46.57362" lon="5.3163">
        <ele>219.2</ele>
        <time>2022-01-14T13:41:44Z</time>
      </trkpt>
      <trkpt lat="46.57373" lon="5.31626">
        <ele>219</ele>
        <time>2022-01-14T13:41:46Z</time>
      </trkpt>
      <trkpt lat="46.57381" lon="5.31623">
        <ele>219</ele>
        <time>2022-01-14T13:41:48Z</time>
      </trkpt>
      <trkpt lat="46.57384" lon="5.31619">
        <ele>219</ele>
        <time>2022-01-14T13:41:49Z</time>
      </trkpt>
      <trkpt lat="46.57382" lon="5.31611">
        <ele>218.8</ele>
        <time>2022-01-14T13:41:51Z</time>
      </trkpt>
      <trkpt lat="46.57379" lon="5.31609">
        <ele>218.6</ele>
        <time>2022-01-14T13:41:52Z</time>
      </trkpt>
      <trkpt lat="46.57364" lon="5.31604">
        <ele>218.4</ele>
        <time>2022-01-14T13:41:55Z</time>
      </trkpt>
      <trkpt lat="46.57359" lon="5.31601">
        <ele>218.4</ele>
        <time>2022-01-14T13:41:56Z</time>
      </trkpt>
      <trkpt lat="46.57347" lon="5.31593">
        <ele>218.4</ele>
        <time>2022-01-14T13:41:58Z</time>
      </trkpt>
      <trkpt lat="46.57336" lon="5.31582">
        <ele>218.6</ele>
        <time>2022-01-14T13:42:00Z</time>
      </trkpt>
      <trkpt lat="46.57331" lon="5.31576">
        <ele>218.6</ele>
        <time>2022-01-14T13:42:01Z</time>
      </trkpt>
      <trkpt lat="46.57312" lon="5.3155">
        <ele>218.8</ele>
        <time>2022-01-14T13:42:05Z</time>
      </trkpt>
      <trkpt lat="46.57307" lon="5.31542">
        <ele>219</ele>
        <time>2022-01-14T13:42:06Z</time>
      </trkpt>
      <trkpt lat="46.57283" lon="5.31508">
        <ele>219.6</ele>
        <time>2022-01-14T13:42:11Z</time>
      </trkpt>
      <trkpt lat="46.57273" lon="5.31494">
        <ele>219.6</ele>
        <time>2022-01-14T13:42:13Z</time>
      </trkpt>
      <trkpt lat="46.57246" lon="5.31447">
        <ele>219.6</ele>
        <time>2022-01-14T13:42:19Z</time>
      </trkpt>
      <trkpt lat="46.57243" lon="5.3144">
        <ele>219.6</ele>
        <time>2022-01-14T13:42:20Z</time>
      </trkpt>
      <trkpt lat="46.57227" lon="5.3138">
        <ele>219.2</ele>
        <time>2022-01-14T13:42:26Z</time>
      </trkpt>
      <trkpt lat="46.5722" lon="5.31362">
        <ele>219</ele>
        <time>2022-01-14T13:42:28Z</time>
      </trkpt>
      <trkpt lat="46.5721" lon="5.31346">
        <ele>218.8</ele>
        <time>2022-01-14T13:42:30Z</time>
      </trkpt>
      <trkpt lat="46.57188" lon="5.31316">
        <ele>218.2</ele>
        <time>2022-01-14T13:42:34Z</time>
      </trkpt>
      <trkpt lat="46.57174" lon="5.31304">
        <ele>218</ele>
        <time>2022-01-14T13:42:36Z</time>
      </trkpt>
      <trkpt lat="46.57159" lon="5.31297">
        <ele>217.8</ele>
        <time>2022-01-14T13:42:38Z</time>
      </trkpt>
      <trkpt lat="46.57143" lon="5.31294">
        <ele>217</ele>
        <time>2022-01-14T13:42:40Z</time>
      </trkpt>
      <trkpt lat="46.57108" lon="5.31293">
        <ele>215.8</ele>
        <time>2022-01-14T13:42:44Z</time>
      </trkpt>
      <trkpt lat="46.57099" lon="5.31292">
        <ele>215.4</ele>
        <time>2022-01-14T13:42:45Z</time>
      </trkpt>
      <trkpt lat="46.5708" lon="5.31286">
        <ele>214.6</ele>
        <time>2022-01-14T13:42:47Z</time>
      </trkpt>
      <trkpt lat="46.57063" lon="5.31276">
        <ele>214</ele>
        <time>2022-01-14T13:42:49Z</time>
      </trkpt>
      <trkpt lat="46.57041" lon="5.31257">
        <ele>213.6</ele>
        <time>2022-01-14T13:42:52Z</time>
      </trkpt>
      <trkpt lat="46.5701" lon="5.31229">
        <ele>212.8</ele>
        <time>2022-01-14T13:42:56Z</time>
      </trkpt>
      <trkpt lat="46.56996" lon="5.31215">
        <ele>212.4</ele>
        <time>2022-01-14T13:42:58Z</time>
      </trkpt>
      <trkpt lat="46.56946" lon="5.31171">
        <ele>211.8</ele>
        <time>2022-01-14T13:43:05Z</time>
      </trkpt>
      <trkpt lat="46.56931" lon="5.31161">
        <ele>211.6</ele>
        <time>2022-01-14T13:43:07Z</time>
      </trkpt>
      <trkpt lat="46.56915" lon="5.31155">
        <ele>211.4</ele>
        <time>2022-01-14T13:43:09Z</time>
      </trkpt>
      <trkpt lat="46.56907" lon="5.31154">
        <ele>211.4</ele>
        <time>2022-01-14T13:43:10Z</time>
      </trkpt>
      <trkpt lat="46.56875" lon="5.31149">
        <ele>211</ele>
        <time>2022-01-14T13:43:14Z</time>
      </trkpt>
      <trkpt lat="46.56868" lon="5.31147">
        <ele>211</ele>
        <time>2022-01-14T13:43:15Z</time>
      </trkpt>
      <trkpt lat="46.5686" lon="5.31142">
        <ele>210.8</ele>
        <time>2022-01-14T13:43:16Z</time>
      </trkpt>
      <trkpt lat="46.56837" lon="5.31122">
        <ele>210.6</ele>
        <time>2022-01-14T13:43:19Z</time>
      </trkpt>
      <trkpt lat="46.56831" lon="5.31114">
        <ele>210.4</ele>
        <time>2022-01-14T13:43:20Z</time>
      </trkpt>
      <trkpt lat="46.56826" lon="5.31105">
        <ele>210.4</ele>
        <time>2022-01-14T13:43:21Z</time>
      </trkpt>
      <trkpt lat="46.56817" lon="5.31085">
        <ele>210.2</ele>
        <time>2022-01-14T13:43:23Z</time>
      </trkpt>
      <trkpt lat="46.56809" lon="5.31054">
        <ele>209.8</ele>
        <time>2022-01-14T13:43:26Z</time>
      </trkpt>
      <trkpt lat="46.56807" lon="5.31043">
        <ele>209.8</ele>
        <time>2022-01-14T13:43:27Z</time>
      </trkpt>
      <trkpt lat="46.56806" lon="5.31033">
        <ele>209.8</ele>
        <time>2022-01-14T13:43:28Z</time>
      </trkpt>
      <trkpt lat="46.56807" lon="5.31001">
        <ele>209.6</ele>
        <time>2022-01-14T13:43:31Z</time>
      </trkpt>
      <trkpt lat="46.56808" lon="5.30982">
        <ele>209.4</ele>
        <time>2022-01-14T13:43:33Z</time>
      </trkpt>
      <trkpt lat="46.56809" lon="5.30928">
        <ele>209.2</ele>
        <time>2022-01-14T13:43:38Z</time>
      </trkpt>
      <trkpt lat="46.56802" lon="5.30866">
        <ele>208.8</ele>
        <time>2022-01-14T13:43:44Z</time>
      </trkpt>
      <trkpt lat="46.56788" lon="5.30802">
        <ele>209</ele>
        <time>2022-01-14T13:43:51Z</time>
      </trkpt>
      <trkpt lat="46.56768" lon="5.3076">
        <ele>209.4</ele>
        <time>2022-01-14T13:43:57Z</time>
      </trkpt>
      <trkpt lat="46.56745" lon="5.30714">
        <ele>210.4</ele>
        <time>2022-01-14T13:44:04Z</time>
      </trkpt>
      <trkpt lat="46.56711" lon="5.30658">
        <ele>211.6</ele>
        <time>2022-01-14T13:44:13Z</time>
      </trkpt>
      <trkpt lat="46.56685" lon="5.30631">
        <ele>212.8</ele>
        <time>2022-01-14T13:44:19Z</time>
      </trkpt>
      <trkpt lat="46.56676" lon="5.30624">
        <ele>213.2</ele>
        <time>2022-01-14T13:44:21Z</time>
      </trkpt>
      <trkpt lat="46.56644" lon="5.30605">
        <ele>213.6</ele>
        <time>2022-01-14T13:44:27Z</time>
      </trkpt>
      <trkpt lat="46.56639" lon="5.30603">
        <ele>213.6</ele>
        <time>2022-01-14T13:44:28Z</time>
      </trkpt>
      <trkpt lat="46.56586" lon="5.30595">
        <ele>213.8</ele>
        <time>2022-01-14T13:44:37Z</time>
      </trkpt>
      <trkpt lat="46.56544" lon="5.30598">
        <ele>213.8</ele>
        <time>2022-01-14T13:44:44Z</time>
      </trkpt>
      <trkpt lat="46.56527" lon="5.30601">
        <ele>213.8</ele>
        <time>2022-01-14T13:44:47Z</time>
      </trkpt>
      <trkpt lat="46.56491" lon="5.30607">
        <ele>214</ele>
        <time>2022-01-14T13:44:53Z</time>
      </trkpt>
      <trkpt lat="46.56453" lon="5.30616">
        <ele>214.4</ele>
        <time>2022-01-14T13:45:00Z</time>
      </trkpt>
      <trkpt lat="46.56443" lon="5.30619">
        <ele>214.4</ele>
        <time>2022-01-14T13:45:02Z</time>
      </trkpt>
      <trkpt lat="46.56435" lon="5.30617">
        <ele>214.4</ele>
        <time>2022-01-14T13:45:04Z</time>
      </trkpt>
      <trkpt lat="46.5643" lon="5.30612">
        <ele>214.4</ele>
        <time>2022-01-14T13:45:07Z</time>
      </trkpt>
      <trkpt lat="46.5643" lon="5.30612">
        <ele>214.4</ele>
        <time>2022-01-14T13:45:08Z</time>
      </trkpt>
      <trkpt lat="46.56427" lon="5.30608">
        <ele>214.4</ele>
        <time>2022-01-14T13:45:13Z</time>
      </trkpt>
      <trkpt lat="46.56425" lon="5.30607">
        <ele>214.4</ele>
        <time>2022-01-14T13:45:14Z</time>
      </trkpt>
      <trkpt lat="46.56423" lon="5.30608">
        <ele>214.4</ele>
        <time>2022-01-14T13:45:15Z</time>
      </trkpt>
      <trkpt lat="46.56411" lon="5.30609">
        <ele>214.4</ele>
        <time>2022-01-14T13:45:18Z</time>
      </trkpt>
      <trkpt lat="46.56407" lon="5.30605">
        <ele>214</ele>
        <time>2022-01-14T13:45:19Z</time>
      </trkpt>
      <trkpt lat="46.56403" lon="5.306">
        <ele>214</ele>
        <time>2022-01-14T13:45:20Z</time>
      </trkpt>
      <trkpt lat="46.56387" lon="5.30578">
        <ele>214</ele>
        <time>2022-01-14T13:45:24Z</time>
      </trkpt>
      <trkpt lat="46.56353" lon="5.30532">
        <ele>215</ele>
        <time>2022-01-14T13:45:32Z</time>
      </trkpt>
      <trkpt lat="46.56348" lon="5.30526">
        <ele>215.2</ele>
        <time>2022-01-14T13:45:33Z</time>
      </trkpt>
      <trkpt lat="46.56327" lon="5.30497">
        <ele>216</ele>
        <time>2022-01-14T13:45:38Z</time>
      </trkpt>
      <trkpt lat="46.56304" lon="5.30466">
        <ele>216.4</ele>
        <time>2022-01-14T13:45:43Z</time>
      </trkpt>
      <trkpt lat="46.56263" lon="5.30411">
        <ele>216</ele>
        <time>2022-01-14T13:45:52Z</time>
      </trkpt>
      <trkpt lat="46.5626" lon="5.30406">
        <ele>216</ele>
        <time>2022-01-14T13:45:53Z</time>
      </trkpt>
      <trkpt lat="46.56229" lon="5.3036">
        <ele>215.8</ele>
        <time>2022-01-14T13:46:00Z</time>
      </trkpt>
      <trkpt lat="46.56198" lon="5.30304">
        <ele>215.4</ele>
        <time>2022-01-14T13:46:08Z</time>
      </trkpt>
      <trkpt lat="46.56162" lon="5.30255">
        <ele>215.4</ele>
        <time>2022-01-14T13:46:16Z</time>
      </trkpt>
      <trkpt lat="46.56122" lon="5.30201">
        <ele>215.4</ele>
        <time>2022-01-14T13:46:25Z</time>
      </trkpt>
      <trkpt lat="46.56118" lon="5.30195">
        <ele>215.4</ele>
        <time>2022-01-14T13:46:26Z</time>
      </trkpt>
      <trkpt lat="46.56076" lon="5.30138">
        <ele>215.2</ele>
        <time>2022-01-14T13:46:35Z</time>
      </trkpt>
      <trkpt lat="46.56036" lon="5.30083">
        <ele>215</ele>
        <time>2022-01-14T13:46:43Z</time>
      </trkpt>
      <trkpt lat="46.56" lon="5.30036">
        <ele>213.8</ele>
        <time>2022-01-14T13:46:49Z</time>
      </trkpt>
      <trkpt lat="46.55994" lon="5.30027">
        <ele>213.2</ele>
        <time>2022-01-14T13:46:50Z</time>
      </trkpt>
      <trkpt lat="46.55981" lon="5.30011">
        <ele>212.6</ele>
        <time>2022-01-14T13:46:52Z</time>
      </trkpt>
      <trkpt lat="46.55956" lon="5.29977">
        <ele>211.4</ele>
        <time>2022-01-14T13:46:56Z</time>
      </trkpt>
      <trkpt lat="46.55944" lon="5.29961">
        <ele>210.6</ele>
        <time>2022-01-14T13:46:58Z</time>
      </trkpt>
      <trkpt lat="46.55938" lon="5.29953">
        <ele>210.4</ele>
        <time>2022-01-14T13:46:59Z</time>
      </trkpt>
      <trkpt lat="46.55913" lon="5.29919">
        <ele>209.6</ele>
        <time>2022-01-14T13:47:04Z</time>
      </trkpt>
      <trkpt lat="46.55888" lon="5.29885">
        <ele>210.4</ele>
        <time>2022-01-14T13:47:10Z</time>
      </trkpt>
      <trkpt lat="46.55862" lon="5.2985">
        <ele>211.4</ele>
        <time>2022-01-14T13:47:17Z</time>
      </trkpt>
      <trkpt lat="46.55848" lon="5.2983">
        <ele>212.6</ele>
        <time>2022-01-14T13:47:21Z</time>
      </trkpt>
      <trkpt lat="46.55829" lon="5.29805">
        <ele>213.6</ele>
        <time>2022-01-14T13:47:26Z</time>
      </trkpt>
      <trkpt lat="46.55794" lon="5.29759">
        <ele>213.8</ele>
        <time>2022-01-14T13:47:34Z</time>
      </trkpt>
      <trkpt lat="46.55782" lon="5.29741">
        <ele>213.8</ele>
        <time>2022-01-14T13:47:37Z</time>
      </trkpt>
      <trkpt lat="46.55777" lon="5.29728">
        <ele>213.4</ele>
        <time>2022-01-14T13:47:39Z</time>
      </trkpt>
      <trkpt lat="46.55769" lon="5.29719">
        <ele>213.4</ele>
        <time>2022-01-14T13:47:41Z</time>
      </trkpt>
      <trkpt lat="46.55758" lon="5.29711">
        <ele>213.2</ele>
        <time>2022-01-14T13:47:43Z</time>
      </trkpt>
      <trkpt lat="46.55732" lon="5.29696">
        <ele>212.8</ele>
        <time>2022-01-14T13:47:47Z</time>
      </trkpt>
      <trkpt lat="46.55724" lon="5.29694">
        <ele>212.6</ele>
        <time>2022-01-14T13:47:48Z</time>
      </trkpt>
      <trkpt lat="46.55709" lon="5.29689">
        <ele>212.6</ele>
        <time>2022-01-14T13:47:50Z</time>
      </trkpt>
      <trkpt lat="46.55684" lon="5.29687">
        <ele>211.4</ele>
        <time>2022-01-14T13:47:53Z</time>
      </trkpt>
      <trkpt lat="46.55676" lon="5.29687">
        <ele>211.2</ele>
        <time>2022-01-14T13:47:54Z</time>
      </trkpt>
      <trkpt lat="46.55659" lon="5.29685">
        <ele>210.2</ele>
        <time>2022-01-14T13:47:56Z</time>
      </trkpt>
      <trkpt lat="46.55641" lon="5.29679">
        <ele>209.4</ele>
        <time>2022-01-14T13:47:58Z</time>
      </trkpt>
      <trkpt lat="46.55633" lon="5.29675">
        <ele>209.2</ele>
        <time>2022-01-14T13:47:59Z</time>
      </trkpt>
      <trkpt lat="46.55594" lon="5.29656">
        <ele>208</ele>
        <time>2022-01-14T13:48:04Z</time>
      </trkpt>
      <trkpt lat="46.55579" lon="5.29647">
        <ele>207.6</ele>
        <time>2022-01-14T13:48:06Z</time>
      </trkpt>
      <trkpt lat="46.55557" lon="5.29632">
        <ele>207.2</ele>
        <time>2022-01-14T13:48:09Z</time>
      </trkpt>
      <trkpt lat="46.55515" lon="5.29602">
        <ele>206.2</ele>
        <time>2022-01-14T13:48:15Z</time>
      </trkpt>
      <trkpt lat="46.55495" lon="5.29587">
        <ele>206.2</ele>
        <time>2022-01-14T13:48:18Z</time>
      </trkpt>
      <trkpt lat="46.5545" lon="5.29554">
        <ele>205.6</ele>
        <time>2022-01-14T13:48:25Z</time>
      </trkpt>
      <trkpt lat="46.55437" lon="5.29545">
        <ele>205.6</ele>
        <time>2022-01-14T13:48:27Z</time>
      </trkpt>
      <trkpt lat="46.554" lon="5.29522">
        <ele>205.4</ele>
        <time>2022-01-14T13:48:33Z</time>
      </trkpt>
      <trkpt lat="46.55362" lon="5.29509">
        <ele>205</ele>
        <time>2022-01-14T13:48:39Z</time>
      </trkpt>
      <trkpt lat="46.55315" lon="5.29503">
        <ele>205.4</ele>
        <time>2022-01-14T13:48:46Z</time>
      </trkpt>
      <trkpt lat="46.55297" lon="5.29496">
        <ele>205.6</ele>
        <time>2022-01-14T13:48:49Z</time>
      </trkpt>
      <trkpt lat="46.55286" lon="5.29488">
        <ele>206</ele>
        <time>2022-01-14T13:48:51Z</time>
      </trkpt>
      <trkpt lat="46.55277" lon="5.29478">
        <ele>206</ele>
        <time>2022-01-14T13:48:53Z</time>
      </trkpt>
      <trkpt lat="46.55271" lon="5.29465">
        <ele>206.2</ele>
        <time>2022-01-14T13:48:55Z</time>
      </trkpt>
      <trkpt lat="46.55262" lon="5.29428">
        <ele>207.4</ele>
        <time>2022-01-14T13:49:00Z</time>
      </trkpt>
      <trkpt lat="46.55255" lon="5.29402">
        <ele>208.8</ele>
        <time>2022-01-14T13:49:04Z</time>
      </trkpt>
      <trkpt lat="46.55251" lon="5.29382">
        <ele>210</ele>
        <time>2022-01-14T13:49:07Z</time>
      </trkpt>
      <trkpt lat="46.55249" lon="5.2936">
        <ele>210.6</ele>
        <time>2022-01-14T13:49:10Z</time>
      </trkpt>
      <trkpt lat="46.55252" lon="5.29345">
        <ele>210.6</ele>
        <time>2022-01-14T13:49:12Z</time>
      </trkpt>
      <trkpt lat="46.55265" lon="5.29298">
        <ele>210.6</ele>
        <time>2022-01-14T13:49:17Z</time>
      </trkpt>
      <trkpt lat="46.55284" lon="5.29231">
        <ele>209</ele>
        <time>2022-01-14T13:49:23Z</time>
      </trkpt>
      <trkpt lat="46.55287" lon="5.2922">
        <ele>208.6</ele>
        <time>2022-01-14T13:49:24Z</time>
      </trkpt>
      <trkpt lat="46.55289" lon="5.29209">
        <ele>208.2</ele>
        <time>2022-01-14T13:49:25Z</time>
      </trkpt>
      <trkpt lat="46.55289" lon="5.29184">
        <ele>207.2</ele>
        <time>2022-01-14T13:49:27Z</time>
      </trkpt>
      <trkpt lat="46.55282" lon="5.29162">
        <ele>206.6</ele>
        <time>2022-01-14T13:49:29Z</time>
      </trkpt>
      <trkpt lat="46.55277" lon="5.29154">
        <ele>206.2</ele>
        <time>2022-01-14T13:49:30Z</time>
      </trkpt>
      <trkpt lat="46.55251" lon="5.29121">
        <ele>205</ele>
        <time>2022-01-14T13:49:34Z</time>
      </trkpt>
      <trkpt lat="46.55244" lon="5.29112">
        <ele>204.6</ele>
        <time>2022-01-14T13:49:35Z</time>
      </trkpt>
      <trkpt lat="46.55231" lon="5.29093">
        <ele>203.8</ele>
        <time>2022-01-14T13:49:37Z</time>
      </trkpt>
      <trkpt lat="46.55213" lon="5.2906">
        <ele>202.2</ele>
        <time>2022-01-14T13:49:40Z</time>
      </trkpt>
      <trkpt lat="46.552" lon="5.29037">
        <ele>201</ele>
        <time>2022-01-14T13:49:42Z</time>
      </trkpt>
      <trkpt lat="46.55187" lon="5.29014">
        <ele>199.8</ele>
        <time>2022-01-14T13:49:44Z</time>
      </trkpt>
      <trkpt lat="46.55173" lon="5.2899">
        <ele>198.6</ele>
        <time>2022-01-14T13:49:46Z</time>
      </trkpt>
      <trkpt lat="46.55166" lon="5.28977">
        <ele>197.4</ele>
        <time>2022-01-14T13:49:47Z</time>
      </trkpt>
      <trkpt lat="46.55154" lon="5.28952">
        <ele>196.4</ele>
        <time>2022-01-14T13:49:49Z</time>
      </trkpt>
      <trkpt lat="46.55149" lon="5.28938">
        <ele>195.8</ele>
        <time>2022-01-14T13:49:50Z</time>
      </trkpt>
      <trkpt lat="46.55146" lon="5.28923">
        <ele>195.2</ele>
        <time>2022-01-14T13:49:51Z</time>
      </trkpt>
      <trkpt lat="46.55145" lon="5.28909">
        <ele>194.4</ele>
        <time>2022-01-14T13:49:52Z</time>
      </trkpt>
      <trkpt lat="46.55145" lon="5.28895">
        <ele>193.6</ele>
        <time>2022-01-14T13:49:53Z</time>
      </trkpt>
      <trkpt lat="46.55146" lon="5.28882">
        <ele>193.2</ele>
        <time>2022-01-14T13:49:54Z</time>
      </trkpt>
      <trkpt lat="46.55151" lon="5.28831">
        <ele>192</ele>
        <time>2022-01-14T13:49:58Z</time>
      </trkpt>
      <trkpt lat="46.55153" lon="5.28796">
        <ele>191.6</ele>
        <time>2022-01-14T13:50:01Z</time>
      </trkpt>
      <trkpt lat="46.55151" lon="5.28786">
        <ele>191.6</ele>
        <time>2022-01-14T13:50:02Z</time>
      </trkpt>
      <trkpt lat="46.55149" lon="5.28776">
        <ele>191.4</ele>
        <time>2022-01-14T13:50:03Z</time>
      </trkpt>
      <trkpt lat="46.55141" lon="5.28758">
        <ele>191.4</ele>
        <time>2022-01-14T13:50:05Z</time>
      </trkpt>
      <trkpt lat="46.55121" lon="5.28729">
        <ele>191.2</ele>
        <time>2022-01-14T13:50:09Z</time>
      </trkpt>
      <trkpt lat="46.55116" lon="5.28722">
        <ele>191.2</ele>
        <time>2022-01-14T13:50:10Z</time>
      </trkpt>
      <trkpt lat="46.55085" lon="5.28668">
        <ele>191</ele>
        <time>2022-01-14T13:50:17Z</time>
      </trkpt>
      <trkpt lat="46.55055" lon="5.28617">
        <ele>191.2</ele>
        <time>2022-01-14T13:50:24Z</time>
      </trkpt>
      <trkpt lat="46.55052" lon="5.28609">
        <ele>191.4</ele>
        <time>2022-01-14T13:50:25Z</time>
      </trkpt>
      <trkpt lat="46.55026" lon="5.28561">
        <ele>192</ele>
        <time>2022-01-14T13:50:32Z</time>
      </trkpt>
      <trkpt lat="46.55022" lon="5.28555">
        <ele>192.2</ele>
        <time>2022-01-14T13:50:33Z</time>
      </trkpt>
      <trkpt lat="46.54996" lon="5.28507">
        <ele>193.4</ele>
        <time>2022-01-14T13:50:41Z</time>
      </trkpt>
      <trkpt lat="46.54986" lon="5.2849">
        <ele>193.8</ele>
        <time>2022-01-14T13:50:44Z</time>
      </trkpt>
      <trkpt lat="46.54976" lon="5.28475">
        <ele>194.4</ele>
        <time>2022-01-14T13:50:47Z</time>
      </trkpt>
      <trkpt lat="46.54972" lon="5.2847">
        <ele>194.4</ele>
        <time>2022-01-14T13:50:48Z</time>
      </trkpt>
      <trkpt lat="46.54961" lon="5.28459">
        <ele>194.8</ele>
        <time>2022-01-14T13:50:51Z</time>
      </trkpt>
      <trkpt lat="46.54948" lon="5.28452">
        <ele>195.6</ele>
        <time>2022-01-14T13:50:54Z</time>
      </trkpt>
      <trkpt lat="46.54934" lon="5.28447">
        <ele>196</ele>
        <time>2022-01-14T13:50:57Z</time>
      </trkpt>
      <trkpt lat="46.54922" lon="5.2844">
        <ele>196.8</ele>
        <time>2022-01-14T13:51:00Z</time>
      </trkpt>
      <trkpt lat="46.54917" lon="5.28438">
        <ele>197</ele>
        <time>2022-01-14T13:51:01Z</time>
      </trkpt>
      <trkpt lat="46.54913" lon="5.28435">
        <ele>197.2</ele>
        <time>2022-01-14T13:51:02Z</time>
      </trkpt>
      <trkpt lat="46.54891" lon="5.28418">
        <ele>198</ele>
        <time>2022-01-14T13:51:07Z</time>
      </trkpt>
      <trkpt lat="46.54887" lon="5.28414">
        <ele>198</ele>
        <time>2022-01-14T13:51:08Z</time>
      </trkpt>
      <trkpt lat="46.54851" lon="5.2839">
        <ele>198.8</ele>
        <time>2022-01-14T13:51:16Z</time>
      </trkpt>
      <trkpt lat="46.54847" lon="5.28387">
        <ele>199</ele>
        <time>2022-01-14T13:51:17Z</time>
      </trkpt>
      <trkpt lat="46.54825" lon="5.28375">
        <ele>199.8</ele>
        <time>2022-01-14T13:51:22Z</time>
      </trkpt>
      <trkpt lat="46.54813" lon="5.28367">
        <ele>200.8</ele>
        <time>2022-01-14T13:51:25Z</time>
      </trkpt>
      <trkpt lat="46.54809" lon="5.28364">
        <ele>201</ele>
        <time>2022-01-14T13:51:26Z</time>
      </trkpt>
      <trkpt lat="46.54796" lon="5.28357">
        <ele>201.6</ele>
        <time>2022-01-14T13:51:29Z</time>
      </trkpt>
      <trkpt lat="46.54785" lon="5.28357">
        <ele>202</ele>
        <time>2022-01-14T13:51:31Z</time>
      </trkpt>
      <trkpt lat="46.5478" lon="5.28359">
        <ele>202.2</ele>
        <time>2022-01-14T13:51:32Z</time>
      </trkpt>
      <trkpt lat="46.54775" lon="5.28363">
        <ele>202.2</ele>
        <time>2022-01-14T13:51:33Z</time>
      </trkpt>
      <trkpt lat="46.54771" lon="5.28368">
        <ele>202.2</ele>
        <time>2022-01-14T13:51:34Z</time>
      </trkpt>
      <trkpt lat="46.54752" lon="5.2839">
        <ele>202.2</ele>
        <time>2022-01-14T13:51:38Z</time>
      </trkpt>
      <trkpt lat="46.54746" lon="5.28394">
        <ele>202.2</ele>
        <time>2022-01-14T13:51:39Z</time>
      </trkpt>
      <trkpt lat="46.5474" lon="5.28398">
        <ele>202.2</ele>
        <time>2022-01-14T13:51:40Z</time>
      </trkpt>
      <trkpt lat="46.54712" lon="5.28411">
        <ele>202.2</ele>
        <time>2022-01-14T13:51:44Z</time>
      </trkpt>
      <trkpt lat="46.54689" lon="5.28423">
        <ele>201</ele>
        <time>2022-01-14T13:51:47Z</time>
      </trkpt>
      <trkpt lat="46.5466" lon="5.28439">
        <ele>200</ele>
        <time>2022-01-14T13:51:51Z</time>
      </trkpt>
      <trkpt lat="46.54652" lon="5.28443">
        <ele>199.4</ele>
        <time>2022-01-14T13:51:52Z</time>
      </trkpt>
      <trkpt lat="46.54618" lon="5.28451">
        <ele>198.6</ele>
        <time>2022-01-14T13:51:56Z</time>
      </trkpt>
      <trkpt lat="46.54601" lon="5.28453">
        <ele>198</ele>
        <time>2022-01-14T13:51:58Z</time>
      </trkpt>
      <trkpt lat="46.54576" lon="5.28451">
        <ele>197.4</ele>
        <time>2022-01-14T13:52:01Z</time>
      </trkpt>
      <trkpt lat="46.54559" lon="5.28447">
        <ele>197</ele>
        <time>2022-01-14T13:52:03Z</time>
      </trkpt>
      <trkpt lat="46.54519" lon="5.28447">
        <ele>196.4</ele>
        <time>2022-01-14T13:52:08Z</time>
      </trkpt>
      <trkpt lat="46.54511" lon="5.28448">
        <ele>196.2</ele>
        <time>2022-01-14T13:52:09Z</time>
      </trkpt>
      <trkpt lat="46.54472" lon="5.28448">
        <ele>196</ele>
        <time>2022-01-14T13:52:14Z</time>
      </trkpt>
      <trkpt lat="46.54436" lon="5.2845">
        <ele>195.8</ele>
        <time>2022-01-14T13:52:19Z</time>
      </trkpt>
      <trkpt lat="46.54429" lon="5.28453">
        <ele>195.8</ele>
        <time>2022-01-14T13:52:20Z</time>
      </trkpt>
      <trkpt lat="46.54423" lon="5.28457">
        <ele>196</ele>
        <time>2022-01-14T13:52:21Z</time>
      </trkpt>
      <trkpt lat="46.54405" lon="5.28473">
        <ele>196</ele>
        <time>2022-01-14T13:52:24Z</time>
      </trkpt>
      <trkpt lat="46.54355" lon="5.28515">
        <ele>196.6</ele>
        <time>2022-01-14T13:52:33Z</time>
      </trkpt>
      <trkpt lat="46.5433" lon="5.28534">
        <ele>197.4</ele>
        <time>2022-01-14T13:52:38Z</time>
      </trkpt>
      <trkpt lat="46.5432" lon="5.28541">
        <ele>197.8</ele>
        <time>2022-01-14T13:52:40Z</time>
      </trkpt>
      <trkpt lat="46.54302" lon="5.28554">
        <ele>198.6</ele>
        <time>2022-01-14T13:52:44Z</time>
      </trkpt>
      <trkpt lat="46.54293" lon="5.2856">
        <ele>199</ele>
        <time>2022-01-14T13:52:46Z</time>
      </trkpt>
      <trkpt lat="46.54289" lon="5.28563">
        <ele>199.6</ele>
        <time>2022-01-14T13:52:47Z</time>
      </trkpt>
      <trkpt lat="46.54264" lon="5.28582">
        <ele>200.6</ele>
        <time>2022-01-14T13:52:53Z</time>
      </trkpt>
      <trkpt lat="46.54244" lon="5.28595">
        <ele>201.6</ele>
        <time>2022-01-14T13:52:58Z</time>
      </trkpt>
      <trkpt lat="46.54236" lon="5.286">
        <ele>202</ele>
        <time>2022-01-14T13:53:00Z</time>
      </trkpt>
      <trkpt lat="46.54227" lon="5.28606">
        <ele>202.6</ele>
        <time>2022-01-14T13:53:02Z</time>
      </trkpt>
      <trkpt lat="46.54223" lon="5.28609">
        <ele>202.8</ele>
        <time>2022-01-14T13:53:03Z</time>
      </trkpt>
      <trkpt lat="46.5421" lon="5.28615">
        <ele>203.4</ele>
        <time>2022-01-14T13:53:06Z</time>
      </trkpt>
      <trkpt lat="46.54207" lon="5.28617">
        <ele>203.8</ele>
        <time>2022-01-14T13:53:07Z</time>
      </trkpt>
      <trkpt lat="46.54203" lon="5.28619">
        <ele>203.8</ele>
        <time>2022-01-14T13:53:08Z</time>
      </trkpt>
      <trkpt lat="46.54184" lon="5.28628">
        <ele>204.8</ele>
        <time>2022-01-14T13:53:13Z</time>
      </trkpt>
      <trkpt lat="46.5418" lon="5.2863">
        <ele>205</ele>
        <time>2022-01-14T13:53:14Z</time>
      </trkpt>
      <trkpt lat="46.54172" lon="5.28634">
        <ele>205.6</ele>
        <time>2022-01-14T13:53:16Z</time>
      </trkpt>
      <trkpt lat="46.54164" lon="5.28636">
        <ele>206.4</ele>
        <time>2022-01-14T13:53:18Z</time>
      </trkpt>
      <trkpt lat="46.54161" lon="5.28637">
        <ele>206.8</ele>
        <time>2022-01-14T13:53:19Z</time>
      </trkpt>
      <trkpt lat="46.54154" lon="5.28639">
        <ele>207.6</ele>
        <time>2022-01-14T13:53:21Z</time>
      </trkpt>
      <trkpt lat="46.54138" lon="5.28641">
        <ele>208.6</ele>
        <time>2022-01-14T13:53:25Z</time>
      </trkpt>
      <trkpt lat="46.54129" lon="5.28642">
        <ele>208.8</ele>
        <time>2022-01-14T13:53:27Z</time>
      </trkpt>
      <trkpt lat="46.54125" lon="5.28643">
        <ele>209.2</ele>
        <time>2022-01-14T13:53:28Z</time>
      </trkpt>
      <trkpt lat="46.54111" lon="5.28644">
        <ele>209.4</ele>
        <time>2022-01-14T13:53:31Z</time>
      </trkpt>
      <trkpt lat="46.54089" lon="5.28641">
        <ele>210.6</ele>
        <time>2022-01-14T13:53:36Z</time>
      </trkpt>
      <trkpt lat="46.54048" lon="5.28637">
        <ele>211.4</ele>
        <time>2022-01-14T13:53:44Z</time>
      </trkpt>
      <trkpt lat="46.54031" lon="5.28636">
        <ele>211.8</ele>
        <time>2022-01-14T13:53:47Z</time>
      </trkpt>
      <trkpt lat="46.54" lon="5.28633">
        <ele>212</ele>
        <time>2022-01-14T13:53:53Z</time>
      </trkpt>
      <trkpt lat="46.53948" lon="5.28631">
        <ele>212.6</ele>
        <time>2022-01-14T13:54:03Z</time>
      </trkpt>
      <trkpt lat="46.53943" lon="5.28631">
        <ele>212.8</ele>
        <time>2022-01-14T13:54:04Z</time>
      </trkpt>
      <trkpt lat="46.5391" lon="5.28628">
        <ele>213.4</ele>
        <time>2022-01-14T13:54:11Z</time>
      </trkpt>
      <trkpt lat="46.53886" lon="5.28627">
        <ele>213.8</ele>
        <time>2022-01-14T13:54:16Z</time>
      </trkpt>
      <trkpt lat="46.53861" lon="5.28625">
        <ele>214.6</ele>
        <time>2022-01-14T13:54:21Z</time>
      </trkpt>
      <trkpt lat="46.53821" lon="5.28623">
        <ele>215.2</ele>
        <time>2022-01-14T13:54:28Z</time>
      </trkpt>
      <trkpt lat="46.53803" lon="5.28621">
        <ele>215.2</ele>
        <time>2022-01-14T13:54:31Z</time>
      </trkpt>
      <trkpt lat="46.53747" lon="5.28617">
        <ele>215.2</ele>
        <time>2022-01-14T13:54:40Z</time>
      </trkpt>
      <trkpt lat="46.5369" lon="5.28615">
        <ele>215.2</ele>
        <time>2022-01-14T13:54:48Z</time>
      </trkpt>
      <trkpt lat="46.5363" lon="5.2861">
        <ele>215</ele>
        <time>2022-01-14T13:54:57Z</time>
      </trkpt>
      <trkpt lat="46.53587" lon="5.28607">
        <ele>213.8</ele>
        <time>2022-01-14T13:55:03Z</time>
      </trkpt>
      <trkpt lat="46.53573" lon="5.28605">
        <ele>213.8</ele>
        <time>2022-01-14T13:55:05Z</time>
      </trkpt>
      <trkpt lat="46.5352" lon="5.28602">
        <ele>212.8</ele>
        <time>2022-01-14T13:55:12Z</time>
      </trkpt>
      <trkpt lat="46.53464" lon="5.28598">
        <ele>211.8</ele>
        <time>2022-01-14T13:55:19Z</time>
      </trkpt>
      <trkpt lat="46.53455" lon="5.28597">
        <ele>211.8</ele>
        <time>2022-01-14T13:55:20Z</time>
      </trkpt>
      <trkpt lat="46.53418" lon="5.28584">
        <ele>210.6</ele>
        <time>2022-01-14T13:55:24Z</time>
      </trkpt>
      <trkpt lat="46.53409" lon="5.28579">
        <ele>210.2</ele>
        <time>2022-01-14T13:55:25Z</time>
      </trkpt>
      <trkpt lat="46.53391" lon="5.28568">
        <ele>209.4</ele>
        <time>2022-01-14T13:55:27Z</time>
      </trkpt>
      <trkpt lat="46.53364" lon="5.2855">
        <ele>207.8</ele>
        <time>2022-01-14T13:55:30Z</time>
      </trkpt>
      <trkpt lat="46.53347" lon="5.28537">
        <ele>206.8</ele>
        <time>2022-01-14T13:55:32Z</time>
      </trkpt>
      <trkpt lat="46.53338" lon="5.28531">
        <ele>206.6</ele>
        <time>2022-01-14T13:55:33Z</time>
      </trkpt>
      <trkpt lat="46.5332" lon="5.28523">
        <ele>205.4</ele>
        <time>2022-01-14T13:55:35Z</time>
      </trkpt>
      <trkpt lat="46.533" lon="5.28519">
        <ele>204.2</ele>
        <time>2022-01-14T13:55:37Z</time>
      </trkpt>
      <trkpt lat="46.53273" lon="5.28518">
        <ele>203</ele>
        <time>2022-01-14T13:55:40Z</time>
      </trkpt>
      <trkpt lat="46.53256" lon="5.28519">
        <ele>202.4</ele>
        <time>2022-01-14T13:55:42Z</time>
      </trkpt>
      <trkpt lat="46.53221" lon="5.28519">
        <ele>202.2</ele>
        <time>2022-01-14T13:55:47Z</time>
      </trkpt>
      <trkpt lat="46.53215" lon="5.28519">
        <ele>202.2</ele>
        <time>2022-01-14T13:55:48Z</time>
      </trkpt>
      <trkpt lat="46.53197" lon="5.28521">
        <ele>202.8</ele>
        <time>2022-01-14T13:55:51Z</time>
      </trkpt>
      <trkpt lat="46.53185" lon="5.28522">
        <ele>203.2</ele>
        <time>2022-01-14T13:55:53Z</time>
      </trkpt>
      <trkpt lat="46.53173" lon="5.28524">
        <ele>203.6</ele>
        <time>2022-01-14T13:55:55Z</time>
      </trkpt>
      <trkpt lat="46.53169" lon="5.28525">
        <ele>204.2</ele>
        <time>2022-01-14T13:55:56Z</time>
      </trkpt>
      <trkpt lat="46.53153" lon="5.28526">
        <ele>205</ele>
        <time>2022-01-14T13:55:59Z</time>
      </trkpt>
      <trkpt lat="46.53139" lon="5.2853">
        <ele>205.8</ele>
        <time>2022-01-14T13:56:02Z</time>
      </trkpt>
      <trkpt lat="46.53134" lon="5.28531">
        <ele>206.4</ele>
        <time>2022-01-14T13:56:03Z</time>
      </trkpt>
      <trkpt lat="46.53128" lon="5.28534">
        <ele>206.6</ele>
        <time>2022-01-14T13:56:04Z</time>
      </trkpt>
      <trkpt lat="46.53122" lon="5.28537">
        <ele>207</ele>
        <time>2022-01-14T13:56:05Z</time>
      </trkpt>
      <trkpt lat="46.5311" lon="5.28541">
        <ele>207.8</ele>
        <time>2022-01-14T13:56:07Z</time>
      </trkpt>
      <trkpt lat="46.53082" lon="5.28547">
        <ele>208.6</ele>
        <time>2022-01-14T13:56:12Z</time>
      </trkpt>
      <trkpt lat="46.5307" lon="5.28548">
        <ele>209</ele>
        <time>2022-01-14T13:56:14Z</time>
      </trkpt>
      <trkpt lat="46.53042" lon="5.28554">
        <ele>209.8</ele>
        <time>2022-01-14T13:56:19Z</time>
      </trkpt>
      <trkpt lat="46.53037" lon="5.28554">
        <ele>210</ele>
        <time>2022-01-14T13:56:21Z</time>
      </trkpt>
      <trkpt lat="46.53029" lon="5.28556">
        <ele>210.2</ele>
        <time>2022-01-14T13:56:22Z</time>
      </trkpt>
      <trkpt lat="46.53021" lon="5.28557">
        <ele>210.6</ele>
        <time>2022-01-14T13:56:25Z</time>
      </trkpt>
      <trkpt lat="46.53002" lon="5.28561">
        <ele>211.2</ele>
        <time>2022-01-14T13:56:28Z</time>
      </trkpt>
      <trkpt lat="46.52992" lon="5.28562">
        <ele>211.6</ele>
        <time>2022-01-14T13:56:31Z</time>
      </trkpt>
      <trkpt lat="46.5297" lon="5.28566">
        <ele>212.2</ele>
        <time>2022-01-14T13:56:34Z</time>
      </trkpt>
      <trkpt lat="46.52953" lon="5.28569">
        <ele>212.6</ele>
        <time>2022-01-14T13:56:38Z</time>
      </trkpt>
      <trkpt lat="46.52932" lon="5.28574">
        <ele>213.2</ele>
        <time>2022-01-14T13:56:42Z</time>
      </trkpt>
      <trkpt lat="46.52909" lon="5.28579">
        <ele>213.4</ele>
        <time>2022-01-14T13:56:46Z</time>
      </trkpt>
      <trkpt lat="46.5289" lon="5.28582">
        <ele>213.6</ele>
        <time>2022-01-14T13:56:48Z</time>
      </trkpt>
      <trkpt lat="46.52878" lon="5.28583">
        <ele>213.6</ele>
        <time>2022-01-14T13:56:50Z</time>
      </trkpt>
      <trkpt lat="46.52872" lon="5.28585">
        <ele>213.6</ele>
        <time>2022-01-14T13:56:51Z</time>
      </trkpt>
      <trkpt lat="46.52828" lon="5.28596">
        <ele>213.6</ele>
        <time>2022-01-14T13:56:58Z</time>
      </trkpt>
      <trkpt lat="46.52821" lon="5.28596">
        <ele>213.6</ele>
        <time>2022-01-14T13:56:59Z</time>
      </trkpt>
      <trkpt lat="46.52814" lon="5.28598">
        <ele>213.6</ele>
        <time>2022-01-14T13:57:01Z</time>
      </trkpt>
      <trkpt lat="46.52795" lon="5.286">
        <ele>213.4</ele>
        <time>2022-01-14T13:57:03Z</time>
      </trkpt>
      <trkpt lat="46.52734" lon="5.28613">
        <ele>212.6</ele>
        <time>2022-01-14T13:57:12Z</time>
      </trkpt>
      <trkpt lat="46.5272" lon="5.28615">
        <ele>212.6</ele>
        <time>2022-01-14T13:57:14Z</time>
      </trkpt>
      <trkpt lat="46.52684" lon="5.28621">
        <ele>212</ele>
        <time>2022-01-14T13:57:19Z</time>
      </trkpt>
      <trkpt lat="46.5267" lon="5.28621">
        <ele>211.8</ele>
        <time>2022-01-14T13:57:21Z</time>
      </trkpt>
      <trkpt lat="46.52663" lon="5.28621">
        <ele>211.6</ele>
        <time>2022-01-14T13:57:22Z</time>
      </trkpt>
      <trkpt lat="46.52642" lon="5.28616">
        <ele>211.4</ele>
        <time>2022-01-14T13:57:25Z</time>
      </trkpt>
      <trkpt lat="46.52619" lon="5.28608">
        <ele>211</ele>
        <time>2022-01-14T13:57:29Z</time>
      </trkpt>
      <trkpt lat="46.52606" lon="5.28604">
        <ele>211</ele>
        <time>2022-01-14T13:57:30Z</time>
      </trkpt>
      <trkpt lat="46.52591" lon="5.28603">
        <ele>211</ele>
        <time>2022-01-14T13:57:32Z</time>
      </trkpt>
      <trkpt lat="46.52575" lon="5.28605">
        <ele>210.8</ele>
        <time>2022-01-14T13:57:34Z</time>
      </trkpt>
      <trkpt lat="46.52537" lon="5.28613">
        <ele>210</ele>
        <time>2022-01-14T13:57:39Z</time>
      </trkpt>
      <trkpt lat="46.52513" lon="5.28617">
        <ele>209</ele>
        <time>2022-01-14T13:57:42Z</time>
      </trkpt>
      <trkpt lat="46.52504" lon="5.28618">
        <ele>208.4</ele>
        <time>2022-01-14T13:57:43Z</time>
      </trkpt>
      <trkpt lat="46.52477" lon="5.28623">
        <ele>207</ele>
        <time>2022-01-14T13:57:46Z</time>
      </trkpt>
      <trkpt lat="46.52459" lon="5.28626">
        <ele>206.6</ele>
        <time>2022-01-14T13:57:48Z</time>
      </trkpt>
      <trkpt lat="46.52433" lon="5.28631">
        <ele>205.8</ele>
        <time>2022-01-14T13:57:51Z</time>
      </trkpt>
      <trkpt lat="46.52411" lon="5.28635">
        <ele>204.8</ele>
        <time>2022-01-14T13:57:53Z</time>
      </trkpt>
      <trkpt lat="46.52404" lon="5.28636">
        <ele>203.6</ele>
        <time>2022-01-14T13:57:55Z</time>
      </trkpt>
      <trkpt lat="46.52362" lon="5.28645">
        <ele>202.4</ele>
        <time>2022-01-14T13:57:58Z</time>
      </trkpt>
      <trkpt lat="46.52354" lon="5.28646">
        <ele>201.4</ele>
        <time>2022-01-14T13:58:00Z</time>
      </trkpt>
      <trkpt lat="46.52312" lon="5.28652">
        <ele>199.8</ele>
        <time>2022-01-14T13:58:03Z</time>
      </trkpt>
      <trkpt lat="46.52302" lon="5.28653">
        <ele>198.6</ele>
        <time>2022-01-14T13:58:05Z</time>
      </trkpt>
      <trkpt lat="46.5227" lon="5.28655">
        <ele>197</ele>
        <time>2022-01-14T13:58:08Z</time>
      </trkpt>
      <trkpt lat="46.52232" lon="5.28658">
        <ele>195.8</ele>
        <time>2022-01-14T13:58:11Z</time>
      </trkpt>
      <trkpt lat="46.52223" lon="5.2866">
        <ele>195.4</ele>
        <time>2022-01-14T13:58:12Z</time>
      </trkpt>
      <trkpt lat="46.52197" lon="5.28668">
        <ele>194.4</ele>
        <time>2022-01-14T13:58:15Z</time>
      </trkpt>
      <trkpt lat="46.52162" lon="5.28681">
        <ele>193.4</ele>
        <time>2022-01-14T13:58:19Z</time>
      </trkpt>
      <trkpt lat="46.52105" lon="5.28701">
        <ele>192.8</ele>
        <time>2022-01-14T13:58:26Z</time>
      </trkpt>
      <trkpt lat="46.52099" lon="5.28703">
        <ele>192.6</ele>
        <time>2022-01-14T13:58:27Z</time>
      </trkpt>
      <trkpt lat="46.52055" lon="5.28712">
        <ele>192.8</ele>
        <time>2022-01-14T13:58:33Z</time>
      </trkpt>
      <trkpt lat="46.52041" lon="5.28715">
        <ele>192.8</ele>
        <time>2022-01-14T13:58:35Z</time>
      </trkpt>
      <trkpt lat="46.5202" lon="5.28724">
        <ele>192.8</ele>
        <time>2022-01-14T13:58:38Z</time>
      </trkpt>
      <trkpt lat="46.51982" lon="5.28744">
        <ele>193.2</ele>
        <time>2022-01-14T13:58:44Z</time>
      </trkpt>
      <trkpt lat="46.51964" lon="5.28748">
        <ele>193.6</ele>
        <time>2022-01-14T13:58:47Z</time>
      </trkpt>
      <trkpt lat="46.51951" lon="5.28747">
        <ele>193.8</ele>
        <time>2022-01-14T13:58:49Z</time>
      </trkpt>
      <trkpt lat="46.51921" lon="5.28746">
        <ele>194.4</ele>
        <time>2022-01-14T13:58:54Z</time>
      </trkpt>
      <trkpt lat="46.51915" lon="5.28744">
        <ele>194.6</ele>
        <time>2022-01-14T13:58:55Z</time>
      </trkpt>
      <trkpt lat="46.51911" lon="5.28743">
        <ele>194.6</ele>
        <time>2022-01-14T13:58:56Z</time>
      </trkpt>
      <trkpt lat="46.51905" lon="5.28741">
        <ele>194.8</ele>
        <time>2022-01-14T13:58:57Z</time>
      </trkpt>
      <trkpt lat="46.51882" lon="5.28727">
        <ele>195.4</ele>
        <time>2022-01-14T13:59:01Z</time>
      </trkpt>
      <trkpt lat="46.51866" lon="5.28713">
        <ele>195.8</ele>
        <time>2022-01-14T13:59:04Z</time>
      </trkpt>
      <trkpt lat="46.51846" lon="5.287">
        <ele>196.2</ele>
        <time>2022-01-14T13:59:08Z</time>
      </trkpt>
      <trkpt lat="46.5183" lon="5.28693">
        <ele>197</ele>
        <time>2022-01-14T13:59:11Z</time>
      </trkpt>
      <trkpt lat="46.51806" lon="5.28688">
        <ele>197.4</ele>
        <time>2022-01-14T13:59:15Z</time>
      </trkpt>
      <trkpt lat="46.51802" lon="5.28688">
        <ele>197.6</ele>
        <time>2022-01-14T13:59:16Z</time>
      </trkpt>
      <trkpt lat="46.5179" lon="5.28691">
        <ele>197.8</ele>
        <time>2022-01-14T13:59:18Z</time>
      </trkpt>
      <trkpt lat="46.51774" lon="5.28696">
        <ele>198</ele>
        <time>2022-01-14T13:59:21Z</time>
      </trkpt>
      <trkpt lat="46.5174" lon="5.28711">
        <ele>198.8</ele>
        <time>2022-01-14T13:59:28Z</time>
      </trkpt>
      <trkpt lat="46.51736" lon="5.28714">
        <ele>199</ele>
        <time>2022-01-14T13:59:29Z</time>
      </trkpt>
      <trkpt lat="46.5172" lon="5.28728">
        <ele>200.2</ele>
        <time>2022-01-14T13:59:34Z</time>
      </trkpt>
      <trkpt lat="46.5172" lon="5.28728">
        <ele>200.4</ele>
        <time>2022-01-14T13:59:35Z</time>
      </trkpt>
      <trkpt lat="46.51707" lon="5.28744">
        <ele>201.2</ele>
        <time>2022-01-14T13:59:39Z</time>
      </trkpt>
      <trkpt lat="46.51705" lon="5.28747">
        <ele>201.6</ele>
        <time>2022-01-14T13:59:40Z</time>
      </trkpt>
      <trkpt lat="46.51703" lon="5.28751">
        <ele>202.4</ele>
        <time>2022-01-14T13:59:42Z</time>
      </trkpt>
      <trkpt lat="46.51698" lon="5.28762">
        <ele>203.2</ele>
        <time>2022-01-14T13:59:45Z</time>
      </trkpt>
      <trkpt lat="46.51695" lon="5.28767">
        <ele>203.6</ele>
        <time>2022-01-14T13:59:46Z</time>
      </trkpt>
      <trkpt lat="46.51691" lon="5.28775">
        <ele>204.6</ele>
        <time>2022-01-14T13:59:50Z</time>
      </trkpt>
      <trkpt lat="46.51684" lon="5.28786">
        <ele>205.8</ele>
        <time>2022-01-14T13:59:53Z</time>
      </trkpt>
      <trkpt lat="46.51678" lon="5.28799">
        <ele>207.2</ele>
        <time>2022-01-14T13:59:57Z</time>
      </trkpt>
      <trkpt lat="46.51675" lon="5.28805">
        <ele>208.2</ele>
        <time>2022-01-14T14:00:00Z</time>
      </trkpt>
      <trkpt lat="46.51666" lon="5.28824">
        <ele>209.2</ele>
        <time>2022-01-14T14:00:04Z</time>
      </trkpt>
      <trkpt lat="46.51659" lon="5.28843">
        <ele>210.4</ele>
        <time>2022-01-14T14:00:08Z</time>
      </trkpt>
      <trkpt lat="46.51649" lon="5.28876">
        <ele>211.6</ele>
        <time>2022-01-14T14:00:14Z</time>
      </trkpt>
      <trkpt lat="46.51644" lon="5.28893">
        <ele>212.2</ele>
        <time>2022-01-14T14:00:17Z</time>
      </trkpt>
      <trkpt lat="46.51643" lon="5.28898">
        <ele>212.6</ele>
        <time>2022-01-14T14:00:19Z</time>
      </trkpt>
      <trkpt lat="46.51642" lon="5.28912">
        <ele>212.8</ele>
        <time>2022-01-14T14:00:20Z</time>
      </trkpt>
      <trkpt lat="46.51641" lon="5.28921">
        <ele>213</ele>
        <time>2022-01-14T14:00:22Z</time>
      </trkpt>
      <trkpt lat="46.51638" lon="5.2898">
        <ele>212.6</ele>
        <time>2022-01-14T14:00:28Z</time>
      </trkpt>
      <trkpt lat="46.51635" lon="5.29012">
        <ele>212</ele>
        <time>2022-01-14T14:00:31Z</time>
      </trkpt>
      <trkpt lat="46.51633" lon="5.29019">
        <ele>211.6</ele>
        <time>2022-01-14T14:00:33Z</time>
      </trkpt>
      <trkpt lat="46.51627" lon="5.2904">
        <ele>211.4</ele>
        <time>2022-01-14T14:00:34Z</time>
      </trkpt>
      <trkpt lat="46.51607" lon="5.29086">
        <ele>210.4</ele>
        <time>2022-01-14T14:00:39Z</time>
      </trkpt>
      <trkpt lat="46.51604" lon="5.29095">
        <ele>210</ele>
        <time>2022-01-14T14:00:40Z</time>
      </trkpt>
      <trkpt lat="46.51602" lon="5.29105">
        <ele>210</ele>
        <time>2022-01-14T14:00:41Z</time>
      </trkpt>
      <trkpt lat="46.51601" lon="5.29127">
        <ele>209.4</ele>
        <time>2022-01-14T14:00:43Z</time>
      </trkpt>
      <trkpt lat="46.51602" lon="5.29137">
        <ele>209.4</ele>
        <time>2022-01-14T14:00:44Z</time>
      </trkpt>
      <trkpt lat="46.5161" lon="5.2918">
        <ele>209.4</ele>
        <time>2022-01-14T14:00:49Z</time>
      </trkpt>
      <trkpt lat="46.51611" lon="5.29215">
        <ele>210.2</ele>
        <time>2022-01-14T14:00:53Z</time>
      </trkpt>
      <trkpt lat="46.51611" lon="5.29224">
        <ele>210.2</ele>
        <time>2022-01-14T14:00:54Z</time>
      </trkpt>
      <trkpt lat="46.5161" lon="5.29232">
        <ele>210.4</ele>
        <time>2022-01-14T14:00:55Z</time>
      </trkpt>
      <trkpt lat="46.51606" lon="5.29265">
        <ele>211.8</ele>
        <time>2022-01-14T14:00:59Z</time>
      </trkpt>
      <trkpt lat="46.51602" lon="5.29298">
        <ele>212.4</ele>
        <time>2022-01-14T14:01:03Z</time>
      </trkpt>
      <trkpt lat="46.51601" lon="5.29315">
        <ele>212.8</ele>
        <time>2022-01-14T14:01:05Z</time>
      </trkpt>
      <trkpt lat="46.51598" lon="5.29348">
        <ele>214</ele>
        <time>2022-01-14T14:01:09Z</time>
      </trkpt>
      <trkpt lat="46.51596" lon="5.29386">
        <ele>214.4</ele>
        <time>2022-01-14T14:01:13Z</time>
      </trkpt>
      <trkpt lat="46.51598" lon="5.29453">
        <ele>215</ele>
        <time>2022-01-14T14:01:20Z</time>
      </trkpt>
      <trkpt lat="46.51598" lon="5.29463">
        <ele>215.2</ele>
        <time>2022-01-14T14:01:21Z</time>
      </trkpt>
      <trkpt lat="46.51596" lon="5.29504">
        <ele>215</ele>
        <time>2022-01-14T14:01:25Z</time>
      </trkpt>
      <trkpt lat="46.51595" lon="5.29514">
        <ele>214.8</ele>
        <time>2022-01-14T14:01:26Z</time>
      </trkpt>
      <trkpt lat="46.51581" lon="5.29566">
        <ele>214.2</ele>
        <time>2022-01-14T14:01:31Z</time>
      </trkpt>
      <trkpt lat="46.51575" lon="5.29587">
        <ele>214</ele>
        <time>2022-01-14T14:01:33Z</time>
      </trkpt>
      <trkpt lat="46.51573" lon="5.29599">
        <ele>214</ele>
        <time>2022-01-14T14:01:34Z</time>
      </trkpt>
      <trkpt lat="46.51571" lon="5.29623">
        <ele>213.6</ele>
        <time>2022-01-14T14:01:36Z</time>
      </trkpt>
      <trkpt lat="46.5157" lon="5.29661">
        <ele>212.8</ele>
        <time>2022-01-14T14:01:39Z</time>
      </trkpt>
      <trkpt lat="46.51566" lon="5.29688">
        <ele>212.4</ele>
        <time>2022-01-14T14:01:41Z</time>
      </trkpt>
      <trkpt lat="46.51563" lon="5.29699">
        <ele>211.8</ele>
        <time>2022-01-14T14:01:42Z</time>
      </trkpt>
      <trkpt lat="46.51545" lon="5.29755">
        <ele>210.2</ele>
        <time>2022-01-14T14:01:46Z</time>
      </trkpt>
      <trkpt lat="46.51535" lon="5.2979">
        <ele>209</ele>
        <time>2022-01-14T14:01:49Z</time>
      </trkpt>
      <trkpt lat="46.5153" lon="5.29811">
        <ele>208.6</ele>
        <time>2022-01-14T14:01:51Z</time>
      </trkpt>
      <trkpt lat="46.51521" lon="5.29843">
        <ele>208.2</ele>
        <time>2022-01-14T14:01:55Z</time>
      </trkpt>
      <trkpt lat="46.51506" lon="5.2989">
        <ele>209.4</ele>
        <time>2022-01-14T14:02:01Z</time>
      </trkpt>
      <trkpt lat="46.51489" lon="5.29934">
        <ele>210</ele>
        <time>2022-01-14T14:02:06Z</time>
      </trkpt>
      <trkpt lat="46.5148" lon="5.29962">
        <ele>210.4</ele>
        <time>2022-01-14T14:02:09Z</time>
      </trkpt>
      <trkpt lat="46.51454" lon="5.30042">
        <ele>210.8</ele>
        <time>2022-01-14T14:02:17Z</time>
      </trkpt>
      <trkpt lat="46.51433" lon="5.30113">
        <ele>209.8</ele>
        <time>2022-01-14T14:02:23Z</time>
      </trkpt>
      <trkpt lat="46.5142" lon="5.30153">
        <ele>208.4</ele>
        <time>2022-01-14T14:02:26Z</time>
      </trkpt>
      <trkpt lat="46.51411" lon="5.3018">
        <ele>207.4</ele>
        <time>2022-01-14T14:02:28Z</time>
      </trkpt>
      <trkpt lat="46.51406" lon="5.30194">
        <ele>206.6</ele>
        <time>2022-01-14T14:02:29Z</time>
      </trkpt>
      <trkpt lat="46.51406" lon="5.30194">
        <ele>206.4</ele>
        <time>2022-01-14T14:02:30Z</time>
      </trkpt>
      <trkpt lat="46.5139" lon="5.30235">
        <ele>205.4</ele>
        <time>2022-01-14T14:02:32Z</time>
      </trkpt>
      <trkpt lat="46.51388" lon="5.30249">
        <ele>204.4</ele>
        <time>2022-01-14T14:02:33Z</time>
      </trkpt>
      <trkpt lat="46.51388" lon="5.30264">
        <ele>204</ele>
        <time>2022-01-14T14:02:34Z</time>
      </trkpt>
      <trkpt lat="46.51391" lon="5.30278">
        <ele>203.2</ele>
        <time>2022-01-14T14:02:35Z</time>
      </trkpt>
      <trkpt lat="46.51399" lon="5.30303">
        <ele>202</ele>
        <time>2022-01-14T14:02:37Z</time>
      </trkpt>
      <trkpt lat="46.51416" lon="5.3035">
        <ele>201</ele>
        <time>2022-01-14T14:02:41Z</time>
      </trkpt>
      <trkpt lat="46.51424" lon="5.30372">
        <ele>201</ele>
        <time>2022-01-14T14:02:44Z</time>
      </trkpt>
      <trkpt lat="46.51451" lon="5.30446">
        <ele>201</ele>
        <time>2022-01-14T14:02:50Z</time>
      </trkpt>
      <trkpt lat="46.51473" lon="5.3052">
        <ele>200.6</ele>
        <time>2022-01-14T14:02:57Z</time>
      </trkpt>
      <trkpt lat="46.51483" lon="5.30586">
        <ele>200.4</ele>
        <time>2022-01-14T14:03:03Z</time>
      </trkpt>
      <trkpt lat="46.51501" lon="5.30635">
        <ele>200.6</ele>
        <time>2022-01-14T14:03:08Z</time>
      </trkpt>
      <trkpt lat="46.51537" lon="5.30693">
        <ele>200.6</ele>
        <time>2022-01-14T14:03:15Z</time>
      </trkpt>
      <trkpt lat="46.51578" lon="5.30757">
        <ele>200.2</ele>
        <time>2022-01-14T14:03:23Z</time>
      </trkpt>
      <trkpt lat="46.51583" lon="5.30765">
        <ele>200.2</ele>
        <time>2022-01-14T14:03:24Z</time>
      </trkpt>
      <trkpt lat="46.51607" lon="5.3081">
        <ele>200.8</ele>
        <time>2022-01-14T14:03:30Z</time>
      </trkpt>
      <trkpt lat="46.51623" lon="5.30851">
        <ele>201.2</ele>
        <time>2022-01-14T14:03:35Z</time>
      </trkpt>
      <trkpt lat="46.51631" lon="5.3088">
        <ele>201.2</ele>
        <time>2022-01-14T14:03:39Z</time>
      </trkpt>
      <trkpt lat="46.51633" lon="5.30889">
        <ele>201.4</ele>
        <time>2022-01-14T14:03:41Z</time>
      </trkpt>
      <trkpt lat="46.51642" lon="5.30938">
        <ele>202.2</ele>
        <time>2022-01-14T14:03:47Z</time>
      </trkpt>
      <trkpt lat="46.51643" lon="5.30945">
        <ele>202.6</ele>
        <time>2022-01-14T14:03:48Z</time>
      </trkpt>
      <trkpt lat="46.51645" lon="5.30958">
        <ele>203.4</ele>
        <time>2022-01-14T14:03:50Z</time>
      </trkpt>
      <trkpt lat="46.51649" lon="5.3098">
        <ele>204</ele>
        <time>2022-01-14T14:03:53Z</time>
      </trkpt>
      <trkpt lat="46.51653" lon="5.31">
        <ele>204.6</ele>
        <time>2022-01-14T14:03:56Z</time>
      </trkpt>
      <trkpt lat="46.51659" lon="5.31029">
        <ele>205.6</ele>
        <time>2022-01-14T14:04:00Z</time>
      </trkpt>
      <trkpt lat="46.51663" lon="5.31051">
        <ele>206.6</ele>
        <time>2022-01-14T14:04:03Z</time>
      </trkpt>
      <trkpt lat="46.51666" lon="5.3107">
        <ele>207</ele>
        <time>2022-01-14T14:04:06Z</time>
      </trkpt>
      <trkpt lat="46.51664" lon="5.31085">
        <ele>207.4</ele>
        <time>2022-01-14T14:04:08Z</time>
      </trkpt>
      <trkpt lat="46.51657" lon="5.31095">
        <ele>207.4</ele>
        <time>2022-01-14T14:04:10Z</time>
      </trkpt>
      <trkpt lat="46.51653" lon="5.31098">
        <ele>207.6</ele>
        <time>2022-01-14T14:04:11Z</time>
      </trkpt>
      <trkpt lat="46.51648" lon="5.31099">
        <ele>207.6</ele>
        <time>2022-01-14T14:04:12Z</time>
      </trkpt>
      <trkpt lat="46.51636" lon="5.31098">
        <ele>207.6</ele>
        <time>2022-01-14T14:04:14Z</time>
      </trkpt>
      <trkpt lat="46.51603" lon="5.31082">
        <ele>207.4</ele>
        <time>2022-01-14T14:04:19Z</time>
      </trkpt>
      <trkpt lat="46.51566" lon="5.31072">
        <ele>206.6</ele>
        <time>2022-01-14T14:04:24Z</time>
      </trkpt>
      <trkpt lat="46.51539" lon="5.3107">
        <ele>206</ele>
        <time>2022-01-14T14:04:28Z</time>
      </trkpt>
      <trkpt lat="46.51511" lon="5.31067">
        <ele>205.6</ele>
        <time>2022-01-14T14:04:32Z</time>
      </trkpt>
      <trkpt lat="46.51456" lon="5.31065">
        <ele>205.4</ele>
        <time>2022-01-14T14:04:40Z</time>
      </trkpt>
      <trkpt lat="46.51448" lon="5.31065">
        <ele>205.4</ele>
        <time>2022-01-14T14:04:41Z</time>
      </trkpt>
      <trkpt lat="46.51396" lon="5.31068">
        <ele>205.2</ele>
        <time>2022-01-14T14:04:49Z</time>
      </trkpt>
      <trkpt lat="46.51337" lon="5.31071">
        <ele>205.4</ele>
        <time>2022-01-14T14:04:58Z</time>
      </trkpt>
      <trkpt lat="46.51282" lon="5.31074">
        <ele>205.4</ele>
        <time>2022-01-14T14:05:06Z</time>
      </trkpt>
      <trkpt lat="46.51255" lon="5.3108">
        <ele>205.2</ele>
        <time>2022-01-14T14:05:10Z</time>
      </trkpt>
      <trkpt lat="46.51249" lon="5.31084">
        <ele>205</ele>
        <time>2022-01-14T14:05:11Z</time>
      </trkpt>
      <trkpt lat="46.51243" lon="5.31089">
        <ele>205</ele>
        <time>2022-01-14T14:05:12Z</time>
      </trkpt>
      <trkpt lat="46.51222" lon="5.3111">
        <ele>204.8</ele>
        <time>2022-01-14T14:05:16Z</time>
      </trkpt>
      <trkpt lat="46.51214" lon="5.31119">
        <ele>204.8</ele>
        <time>2022-01-14T14:05:18Z</time>
      </trkpt>
      <trkpt lat="46.51205" lon="5.3113">
        <ele>205</ele>
        <time>2022-01-14T14:05:20Z</time>
      </trkpt>
      <trkpt lat="46.51181" lon="5.31158">
        <ele>206</ele>
        <time>2022-01-14T14:05:26Z</time>
      </trkpt>
      <trkpt lat="46.51172" lon="5.31168">
        <ele>206.4</ele>
        <time>2022-01-14T14:05:28Z</time>
      </trkpt>
      <trkpt lat="46.51141" lon="5.31209">
        <ele>207.2</ele>
        <time>2022-01-14T14:05:35Z</time>
      </trkpt>
      <trkpt lat="46.51113" lon="5.31244">
        <ele>207.6</ele>
        <time>2022-01-14T14:05:41Z</time>
      </trkpt>
      <trkpt lat="46.51109" lon="5.31249">
        <ele>207.6</ele>
        <time>2022-01-14T14:05:42Z</time>
      </trkpt>
      <trkpt lat="46.51102" lon="5.31259">
        <ele>207.8</ele>
        <time>2022-01-14T14:05:44Z</time>
      </trkpt>
      <trkpt lat="46.51092" lon="5.3127">
        <ele>208</ele>
        <time>2022-01-14T14:05:46Z</time>
      </trkpt>
      <trkpt lat="46.51083" lon="5.3128">
        <ele>208.2</ele>
        <time>2022-01-14T14:05:48Z</time>
      </trkpt>
      <trkpt lat="46.51069" lon="5.313">
        <ele>208.8</ele>
        <time>2022-01-14T14:05:52Z</time>
      </trkpt>
      <trkpt lat="46.51065" lon="5.31312">
        <ele>209.2</ele>
        <time>2022-01-14T14:05:54Z</time>
      </trkpt>
      <trkpt lat="46.51062" lon="5.31322">
        <ele>209.6</ele>
        <time>2022-01-14T14:05:55Z</time>
      </trkpt>
      <trkpt lat="46.5106" lon="5.31336">
        <ele>209.8</ele>
        <time>2022-01-14T14:05:56Z</time>
      </trkpt>
      <trkpt lat="46.5106" lon="5.31336">
        <ele>210</ele>
        <time>2022-01-14T14:05:57Z</time>
      </trkpt>
      <trkpt lat="46.5106" lon="5.31349">
        <ele>210.2</ele>
        <time>2022-01-14T14:05:58Z</time>
      </trkpt>
      <trkpt lat="46.51061" lon="5.31354">
        <ele>210.6</ele>
        <time>2022-01-14T14:05:59Z</time>
      </trkpt>
      <trkpt lat="46.51064" lon="5.31357">
        <ele>210.8</ele>
        <time>2022-01-14T14:06:00Z</time>
      </trkpt>
      <trkpt lat="46.51065" lon="5.31374">
        <ele>211.4</ele>
        <time>2022-01-14T14:06:03Z</time>
      </trkpt>
      <trkpt lat="46.51065" lon="5.31381">
        <ele>211.8</ele>
        <time>2022-01-14T14:06:04Z</time>
      </trkpt>
      <trkpt lat="46.51064" lon="5.31393">
        <ele>212</ele>
        <time>2022-01-14T14:06:06Z</time>
      </trkpt>
      <trkpt lat="46.5106" lon="5.31415">
        <ele>212.6</ele>
        <time>2022-01-14T14:06:09Z</time>
      </trkpt>
      <trkpt lat="46.51057" lon="5.31429">
        <ele>213.2</ele>
        <time>2022-01-14T14:06:11Z</time>
      </trkpt>
      <trkpt lat="46.51053" lon="5.31447">
        <ele>213.8</ele>
        <time>2022-01-14T14:06:14Z</time>
      </trkpt>
      <trkpt lat="46.51043" lon="5.31491">
        <ele>214.8</ele>
        <time>2022-01-14T14:06:21Z</time>
      </trkpt>
      <trkpt lat="46.51042" lon="5.31497">
        <ele>215</ele>
        <time>2022-01-14T14:06:22Z</time>
      </trkpt>
      <trkpt lat="46.51036" lon="5.31522">
        <ele>216</ele>
        <time>2022-01-14T14:06:26Z</time>
      </trkpt>
      <trkpt lat="46.51029" lon="5.31539">
        <ele>216.8</ele>
        <time>2022-01-14T14:06:29Z</time>
      </trkpt>
      <trkpt lat="46.51026" lon="5.31545">
        <ele>216.8</ele>
        <time>2022-01-14T14:06:30Z</time>
      </trkpt>
      <trkpt lat="46.51021" lon="5.31551">
        <ele>217</ele>
        <time>2022-01-14T14:06:31Z</time>
      </trkpt>
      <trkpt lat="46.51009" lon="5.31565">
        <ele>217.4</ele>
        <time>2022-01-14T14:06:34Z</time>
      </trkpt>
      <trkpt lat="46.5098" lon="5.316">
        <ele>218</ele>
        <time>2022-01-14T14:06:40Z</time>
      </trkpt>
      <trkpt lat="46.50939" lon="5.31644">
        <ele>217.6</ele>
        <time>2022-01-14T14:06:47Z</time>
      </trkpt>
      <trkpt lat="46.50904" lon="5.31678">
        <ele>217.6</ele>
        <time>2022-01-14T14:06:54Z</time>
      </trkpt>
      <trkpt lat="46.50882" lon="5.317">
        <ele>218.2</ele>
        <time>2022-01-14T14:06:59Z</time>
      </trkpt>
      <trkpt lat="46.50863" lon="5.31719">
        <ele>218.8</ele>
        <time>2022-01-14T14:07:03Z</time>
      </trkpt>
      <trkpt lat="46.50849" lon="5.31731">
        <ele>219</ele>
        <time>2022-01-14T14:07:06Z</time>
      </trkpt>
      <trkpt lat="46.50837" lon="5.31736">
        <ele>219.2</ele>
        <time>2022-01-14T14:07:08Z</time>
      </trkpt>
      <trkpt lat="46.5083" lon="5.31737">
        <ele>219.2</ele>
        <time>2022-01-14T14:07:09Z</time>
      </trkpt>
      <trkpt lat="46.50823" lon="5.31735">
        <ele>219.2</ele>
        <time>2022-01-14T14:07:10Z</time>
      </trkpt>
      <trkpt lat="46.50811" lon="5.31727">
        <ele>219.2</ele>
        <time>2022-01-14T14:07:12Z</time>
      </trkpt>
      <trkpt lat="46.50766" lon="5.31697">
        <ele>218.8</ele>
        <time>2022-01-14T14:07:19Z</time>
      </trkpt>
      <trkpt lat="46.50733" lon="5.31698">
        <ele>218.4</ele>
        <time>2022-01-14T14:07:24Z</time>
      </trkpt>
      <trkpt lat="46.50712" lon="5.31701">
        <ele>218.2</ele>
        <time>2022-01-14T14:07:27Z</time>
      </trkpt>
      <trkpt lat="46.50673" lon="5.31705">
        <ele>218</ele>
        <time>2022-01-14T14:07:33Z</time>
      </trkpt>
      <trkpt lat="46.50667" lon="5.31707">
        <ele>218</ele>
        <time>2022-01-14T14:07:34Z</time>
      </trkpt>
      <trkpt lat="46.50655" lon="5.31714">
        <ele>218</ele>
        <time>2022-01-14T14:07:36Z</time>
      </trkpt>
      <trkpt lat="46.5065" lon="5.31719">
        <ele>218</ele>
        <time>2022-01-14T14:07:37Z</time>
      </trkpt>
      <trkpt lat="46.50644" lon="5.31726">
        <ele>218</ele>
        <time>2022-01-14T14:07:38Z</time>
      </trkpt>
      <trkpt lat="46.50636" lon="5.31741">
        <ele>218</ele>
        <time>2022-01-14T14:07:40Z</time>
      </trkpt>
      <trkpt lat="46.50633" lon="5.31749">
        <ele>218</ele>
        <time>2022-01-14T14:07:41Z</time>
      </trkpt>
      <trkpt lat="46.50612" lon="5.31811">
        <ele>217.6</ele>
        <time>2022-01-14T14:07:48Z</time>
      </trkpt>
      <trkpt lat="46.50586" lon="5.31879">
        <ele>217.2</ele>
        <time>2022-01-14T14:07:55Z</time>
      </trkpt>
      <trkpt lat="46.50567" lon="5.31935">
        <ele>215.8</ele>
        <time>2022-01-14T14:08:00Z</time>
      </trkpt>
      <trkpt lat="46.50563" lon="5.31947">
        <ele>215.6</ele>
        <time>2022-01-14T14:08:01Z</time>
      </trkpt>
      <trkpt lat="46.50554" lon="5.31971">
        <ele>214.4</ele>
        <time>2022-01-14T14:08:03Z</time>
      </trkpt>
      <trkpt lat="46.50543" lon="5.31994">
        <ele>213.6</ele>
        <time>2022-01-14T14:08:05Z</time>
      </trkpt>
      <trkpt lat="46.50536" lon="5.32004">
        <ele>213.2</ele>
        <time>2022-01-14T14:08:06Z</time>
      </trkpt>
      <trkpt lat="46.50516" lon="5.32033">
        <ele>211.8</ele>
        <time>2022-01-14T14:08:09Z</time>
      </trkpt>
      <trkpt lat="46.50504" lon="5.32053">
        <ele>210.6</ele>
        <time>2022-01-14T14:08:11Z</time>
      </trkpt>
      <trkpt lat="46.50499" lon="5.32063">
        <ele>210.2</ele>
        <time>2022-01-14T14:08:12Z</time>
      </trkpt>
      <trkpt lat="46.50489" lon="5.32083">
        <ele>209.4</ele>
        <time>2022-01-14T14:08:14Z</time>
      </trkpt>
      <trkpt lat="46.50474" lon="5.32122">
        <ele>208.8</ele>
        <time>2022-01-14T14:08:18Z</time>
      </trkpt>
      <trkpt lat="46.50464" lon="5.3216">
        <ele>208.6</ele>
        <time>2022-01-14T14:08:22Z</time>
      </trkpt>
      <trkpt lat="46.5046" lon="5.3217">
        <ele>208.6</ele>
        <time>2022-01-14T14:08:23Z</time>
      </trkpt>
      <trkpt lat="46.50452" lon="5.32181">
        <ele>208.2</ele>
        <time>2022-01-14T14:08:25Z</time>
      </trkpt>
      <trkpt lat="46.50446" lon="5.32186">
        <ele>208.2</ele>
        <time>2022-01-14T14:08:26Z</time>
      </trkpt>
      <trkpt lat="46.50437" lon="5.3219">
        <ele>208</ele>
        <time>2022-01-14T14:08:28Z</time>
      </trkpt>
      <trkpt lat="46.50433" lon="5.3219">
        <ele>208</ele>
        <time>2022-01-14T14:08:30Z</time>
      </trkpt>
      <trkpt lat="46.5043" lon="5.32191">
        <ele>208</ele>
        <time>2022-01-14T14:08:31Z</time>
      </trkpt>
      <trkpt lat="46.50427" lon="5.32197">
        <ele>208</ele>
        <time>2022-01-14T14:08:33Z</time>
      </trkpt>
      <trkpt lat="46.50427" lon="5.32227">
        <ele>207.6</ele>
        <time>2022-01-14T14:08:37Z</time>
      </trkpt>
      <trkpt lat="46.50428" lon="5.32271">
        <ele>207.8</ele>
        <time>2022-01-14T14:08:42Z</time>
      </trkpt>
      <trkpt lat="46.50431" lon="5.32289">
        <ele>208</ele>
        <time>2022-01-14T14:08:44Z</time>
      </trkpt>
      <trkpt lat="46.50441" lon="5.32334">
        <ele>208.6</ele>
        <time>2022-01-14T14:08:49Z</time>
      </trkpt>
      <trkpt lat="46.50457" lon="5.32411">
        <ele>208.8</ele>
        <time>2022-01-14T14:08:57Z</time>
      </trkpt>
      <trkpt lat="46.50467" lon="5.32488">
        <ele>208.8</ele>
        <time>2022-01-14T14:09:05Z</time>
      </trkpt>
      <trkpt lat="46.50472" lon="5.32573">
        <ele>209.2</ele>
        <time>2022-01-14T14:09:14Z</time>
      </trkpt>
      <trkpt lat="46.50473" lon="5.32597">
        <ele>209.6</ele>
        <time>2022-01-14T14:09:17Z</time>
      </trkpt>
      <trkpt lat="46.50474" lon="5.32658">
        <ele>210.4</ele>
        <time>2022-01-14T14:09:24Z</time>
      </trkpt>
      <trkpt lat="46.50473" lon="5.32678">
        <ele>210.6</ele>
        <time>2022-01-14T14:09:26Z</time>
      </trkpt>
      <trkpt lat="46.50472" lon="5.32736">
        <ele>211.2</ele>
        <time>2022-01-14T14:09:33Z</time>
      </trkpt>
      <trkpt lat="46.50471" lon="5.32778">
        <ele>211.8</ele>
        <time>2022-01-14T14:09:38Z</time>
      </trkpt>
      <trkpt lat="46.5047" lon="5.32821">
        <ele>212.2</ele>
        <time>2022-01-14T14:09:43Z</time>
      </trkpt>
      <trkpt lat="46.50469" lon="5.32883">
        <ele>212.6</ele>
        <time>2022-01-14T14:09:51Z</time>
      </trkpt>
      <trkpt lat="46.50469" lon="5.32892">
        <ele>212.8</ele>
        <time>2022-01-14T14:09:52Z</time>
      </trkpt>
      <trkpt lat="46.50469" lon="5.32928">
        <ele>213.8</ele>
        <time>2022-01-14T14:09:57Z</time>
      </trkpt>
      <trkpt lat="46.5047" lon="5.32954">
        <ele>215</ele>
        <time>2022-01-14T14:10:01Z</time>
      </trkpt>
      <trkpt lat="46.5047" lon="5.32963">
        <ele>215.4</ele>
        <time>2022-01-14T14:10:02Z</time>
      </trkpt>
      <trkpt lat="46.50471" lon="5.32984">
        <ele>215.8</ele>
        <time>2022-01-14T14:10:05Z</time>
      </trkpt>
      <trkpt lat="46.50471" lon="5.3299">
        <ele>216.4</ele>
        <time>2022-01-14T14:10:06Z</time>
      </trkpt>
      <trkpt lat="46.50471" lon="5.33021">
        <ele>217.6</ele>
        <time>2022-01-14T14:10:11Z</time>
      </trkpt>
      <trkpt lat="46.5047" lon="5.33046">
        <ele>218.6</ele>
        <time>2022-01-14T14:10:15Z</time>
      </trkpt>
      <trkpt lat="46.50469" lon="5.33064">
        <ele>219.4</ele>
        <time>2022-01-14T14:10:18Z</time>
      </trkpt>
      <trkpt lat="46.50469" lon="5.33074">
        <ele>219.8</ele>
        <time>2022-01-14T14:10:20Z</time>
      </trkpt>
      <trkpt lat="46.50468" lon="5.33093">
        <ele>221.2</ele>
        <time>2022-01-14T14:10:24Z</time>
      </trkpt>
      <trkpt lat="46.50468" lon="5.33103">
        <ele>222</ele>
        <time>2022-01-14T14:10:26Z</time>
      </trkpt>
      <trkpt lat="46.50468" lon="5.33112">
        <ele>222.4</ele>
        <time>2022-01-14T14:10:28Z</time>
      </trkpt>
      <trkpt lat="46.50467" lon="5.33133">
        <ele>223.4</ele>
        <time>2022-01-14T14:10:32Z</time>
      </trkpt>
      <trkpt lat="46.50467" lon="5.33139">
        <ele>223.8</ele>
        <time>2022-01-14T14:10:33Z</time>
      </trkpt>
      <trkpt lat="46.50464" lon="5.33175">
        <ele>224.8</ele>
        <time>2022-01-14T14:10:38Z</time>
      </trkpt>
      <trkpt lat="46.50464" lon="5.33182">
        <ele>224.8</ele>
        <time>2022-01-14T14:10:39Z</time>
      </trkpt>
      <trkpt lat="46.50467" lon="5.33218">
        <ele>226</ele>
        <time>2022-01-14T14:10:44Z</time>
      </trkpt>
      <trkpt lat="46.5047" lon="5.33265">
        <ele>226.4</ele>
        <time>2022-01-14T14:10:49Z</time>
      </trkpt>
      <trkpt lat="46.50466" lon="5.33323">
        <ele>226.4</ele>
        <time>2022-01-14T14:10:55Z</time>
      </trkpt>
      <trkpt lat="46.5046" lon="5.33379">
        <ele>226</ele>
        <time>2022-01-14T14:11:01Z</time>
      </trkpt>
      <trkpt lat="46.50445" lon="5.33419">
        <ele>225.8</ele>
        <time>2022-01-14T14:11:06Z</time>
      </trkpt>
      <trkpt lat="46.50417" lon="5.33453">
        <ele>226</ele>
        <time>2022-01-14T14:11:12Z</time>
      </trkpt>
      <trkpt lat="46.50382" lon="5.33491">
        <ele>226.8</ele>
        <time>2022-01-14T14:11:20Z</time>
      </trkpt>
      <trkpt lat="46.50377" lon="5.33496">
        <ele>227</ele>
        <time>2022-01-14T14:11:21Z</time>
      </trkpt>
      <trkpt lat="46.50342" lon="5.33532">
        <ele>228</ele>
        <time>2022-01-14T14:11:29Z</time>
      </trkpt>
      <trkpt lat="46.50337" lon="5.33537">
        <ele>228</ele>
        <time>2022-01-14T14:11:30Z</time>
      </trkpt>
      <trkpt lat="46.50299" lon="5.33578">
        <ele>228.6</ele>
        <time>2022-01-14T14:11:38Z</time>
      </trkpt>
      <trkpt lat="46.50262" lon="5.33619">
        <ele>229</ele>
        <time>2022-01-14T14:11:46Z</time>
      </trkpt>
      <trkpt lat="46.50258" lon="5.33624">
        <ele>229</ele>
        <time>2022-01-14T14:11:47Z</time>
      </trkpt>
      <trkpt lat="46.50216" lon="5.33668">
        <ele>229.8</ele>
        <time>2022-01-14T14:11:56Z</time>
      </trkpt>
      <trkpt lat="46.50203" lon="5.33682">
        <ele>230</ele>
        <time>2022-01-14T14:11:59Z</time>
      </trkpt>
      <trkpt lat="46.50193" lon="5.33692">
        <ele>230</ele>
        <time>2022-01-14T14:12:01Z</time>
      </trkpt>
      <trkpt lat="46.50162" lon="5.33727">
        <ele>230.4</ele>
        <time>2022-01-14T14:12:07Z</time>
      </trkpt>
      <trkpt lat="46.50119" lon="5.33773">
        <ele>230.2</ele>
        <time>2022-01-14T14:12:15Z</time>
      </trkpt>
      <trkpt lat="46.50113" lon="5.33779">
        <ele>230.2</ele>
        <time>2022-01-14T14:12:16Z</time>
      </trkpt>
      <trkpt lat="46.50096" lon="5.33797">
        <ele>230</ele>
        <time>2022-01-14T14:12:19Z</time>
      </trkpt>
      <trkpt lat="46.50075" lon="5.33821">
        <ele>230</ele>
        <time>2022-01-14T14:12:23Z</time>
      </trkpt>
      <trkpt lat="46.5004" lon="5.33856">
        <ele>230.4</ele>
        <time>2022-01-14T14:12:30Z</time>
      </trkpt>
      <trkpt lat="46.50014" lon="5.33884">
        <ele>231.2</ele>
        <time>2022-01-14T14:12:36Z</time>
      </trkpt>
      <trkpt lat="46.5001" lon="5.33888">
        <ele>231.4</ele>
        <time>2022-01-14T14:12:37Z</time>
      </trkpt>
      <trkpt lat="46.50001" lon="5.33897">
        <ele>231.6</ele>
        <time>2022-01-14T14:12:39Z</time>
      </trkpt>
      <trkpt lat="46.49986" lon="5.33912">
        <ele>232</ele>
        <time>2022-01-14T14:12:42Z</time>
      </trkpt>
      <trkpt lat="46.49981" lon="5.33918">
        <ele>232.2</ele>
        <time>2022-01-14T14:12:43Z</time>
      </trkpt>
      <trkpt lat="46.49965" lon="5.33938">
        <ele>232.6</ele>
        <time>2022-01-14T14:12:46Z</time>
      </trkpt>
      <trkpt lat="46.49953" lon="5.33951">
        <ele>232.6</ele>
        <time>2022-01-14T14:12:48Z</time>
      </trkpt>
      <trkpt lat="46.49915" lon="5.33992">
        <ele>232.4</ele>
        <time>2022-01-14T14:12:54Z</time>
      </trkpt>
      <trkpt lat="46.49876" lon="5.34034">
        <ele>231.2</ele>
        <time>2022-01-14T14:13:00Z</time>
      </trkpt>
      <trkpt lat="46.4987" lon="5.34041">
        <ele>231.2</ele>
        <time>2022-01-14T14:13:01Z</time>
      </trkpt>
      <trkpt lat="46.49841" lon="5.34083">
        <ele>230.2</ele>
        <time>2022-01-14T14:13:06Z</time>
      </trkpt>
      <trkpt lat="46.49836" lon="5.3409">
        <ele>230</ele>
        <time>2022-01-14T14:13:07Z</time>
      </trkpt>
      <trkpt lat="46.498" lon="5.3415">
        <ele>230</ele>
        <time>2022-01-14T14:13:15Z</time>
      </trkpt>
      <trkpt lat="46.49764" lon="5.34211">
        <ele>230</ele>
        <time>2022-01-14T14:13:23Z</time>
      </trkpt>
      <trkpt lat="46.49727" lon="5.34275">
        <ele>229.8</ele>
        <time>2022-01-14T14:13:31Z</time>
      </trkpt>
      <trkpt lat="46.49723" lon="5.34283">
        <ele>229.8</ele>
        <time>2022-01-14T14:13:32Z</time>
      </trkpt>
      <trkpt lat="46.497" lon="5.34343">
        <ele>229.8</ele>
        <time>2022-01-14T14:13:39Z</time>
      </trkpt>
      <trkpt lat="46.49683" lon="5.34404">
        <ele>229.8</ele>
        <time>2022-01-14T14:13:45Z</time>
      </trkpt>
      <trkpt lat="46.49674" lon="5.34438">
        <ele>229</ele>
        <time>2022-01-14T14:13:48Z</time>
      </trkpt>
      <trkpt lat="46.49662" lon="5.34481">
        <ele>227.8</ele>
        <time>2022-01-14T14:13:52Z</time>
      </trkpt>
      <trkpt lat="46.49653" lon="5.34513">
        <ele>227</ele>
        <time>2022-01-14T14:13:55Z</time>
      </trkpt>
      <trkpt lat="46.49644" lon="5.34531">
        <ele>226.6</ele>
        <time>2022-01-14T14:13:57Z</time>
      </trkpt>
      <trkpt lat="46.49618" lon="5.3456">
        <ele>225.6</ele>
        <time>2022-01-14T14:14:01Z</time>
      </trkpt>
      <trkpt lat="46.49613" lon="5.34568">
        <ele>225.2</ele>
        <time>2022-01-14T14:14:02Z</time>
      </trkpt>
      <trkpt lat="46.49592" lon="5.346">
        <ele>224.6</ele>
        <time>2022-01-14T14:14:06Z</time>
      </trkpt>
      <trkpt lat="46.49562" lon="5.34639">
        <ele>224.6</ele>
        <time>2022-01-14T14:14:12Z</time>
      </trkpt>
      <trkpt lat="46.49558" lon="5.34644">
        <ele>224.6</ele>
        <time>2022-01-14T14:14:13Z</time>
      </trkpt>
      <trkpt lat="46.4954" lon="5.34663">
        <ele>225.2</ele>
        <time>2022-01-14T14:14:17Z</time>
      </trkpt>
      <trkpt lat="46.49533" lon="5.34671">
        <ele>225.6</ele>
        <time>2022-01-14T14:14:19Z</time>
      </trkpt>
      <trkpt lat="46.4952" lon="5.34687">
        <ele>226.8</ele>
        <time>2022-01-14T14:14:23Z</time>
      </trkpt>
      <trkpt lat="46.4951" lon="5.34697">
        <ele>227.6</ele>
        <time>2022-01-14T14:14:26Z</time>
      </trkpt>
      <trkpt lat="46.49507" lon="5.34701">
        <ele>228</ele>
        <time>2022-01-14T14:14:27Z</time>
      </trkpt>
      <trkpt lat="46.495" lon="5.3471">
        <ele>228.6</ele>
        <time>2022-01-14T14:14:29Z</time>
      </trkpt>
      <trkpt lat="46.49488" lon="5.34721">
        <ele>229.2</ele>
        <time>2022-01-14T14:14:33Z</time>
      </trkpt>
      <trkpt lat="46.49485" lon="5.34724">
        <ele>229.2</ele>
        <time>2022-01-14T14:14:34Z</time>
      </trkpt>
      <trkpt lat="46.4948" lon="5.34729">
        <ele>229.8</ele>
        <time>2022-01-14T14:14:36Z</time>
      </trkpt>
      <trkpt lat="46.49478" lon="5.34731">
        <ele>230.2</ele>
        <time>2022-01-14T14:14:37Z</time>
      </trkpt>
      <trkpt lat="46.49476" lon="5.34733">
        <ele>230.6</ele>
        <time>2022-01-14T14:14:38Z</time>
      </trkpt>
      <trkpt lat="46.49471" lon="5.34737">
        <ele>231.4</ele>
        <time>2022-01-14T14:14:40Z</time>
      </trkpt>
      <trkpt lat="46.49462" lon="5.34751">
        <ele>232</ele>
        <time>2022-01-14T14:14:43Z</time>
      </trkpt>
      <trkpt lat="46.49457" lon="5.34755">
        <ele>232.4</ele>
        <time>2022-01-14T14:14:45Z</time>
      </trkpt>
      <trkpt lat="46.49454" lon="5.34759">
        <ele>232.8</ele>
        <time>2022-01-14T14:14:47Z</time>
      </trkpt>
      <trkpt lat="46.49451" lon="5.34761">
        <ele>232.8</ele>
        <time>2022-01-14T14:14:48Z</time>
      </trkpt>
      <trkpt lat="46.49443" lon="5.34765">
        <ele>233.6</ele>
        <time>2022-01-14T14:14:50Z</time>
      </trkpt>
      <trkpt lat="46.49435" lon="5.34772">
        <ele>234.2</ele>
        <time>2022-01-14T14:14:52Z</time>
      </trkpt>
      <trkpt lat="46.49422" lon="5.34791">
        <ele>235</ele>
        <time>2022-01-14T14:14:55Z</time>
      </trkpt>
      <trkpt lat="46.49419" lon="5.34793">
        <ele>235.2</ele>
        <time>2022-01-14T14:14:56Z</time>
      </trkpt>
      <trkpt lat="46.49412" lon="5.34802">
        <ele>236</ele>
        <time>2022-01-14T14:15:02Z</time>
      </trkpt>
      <trkpt lat="46.49412" lon="5.34802">
        <ele>236.2</ele>
        <time>2022-01-14T14:15:05Z</time>
      </trkpt>
      <trkpt lat="46.49404" lon="5.34806">
        <ele>236.2</ele>
        <time>2022-01-14T14:17:00Z</time>
      </trkpt>
      <trkpt lat="46.494" lon="5.34807">
        <ele>236.2</ele>
        <time>2022-01-14T14:17:01Z</time>
      </trkpt>
      <trkpt lat="46.49375" lon="5.34814">
        <ele>236.2</ele>
        <time>2022-01-14T14:17:05Z</time>
      </trkpt>
      <trkpt lat="46.49329" lon="5.34825">
        <ele>236.4</ele>
        <time>2022-01-14T14:17:12Z</time>
      </trkpt>
      <trkpt lat="46.49323" lon="5.34826">
        <ele>236.4</ele>
        <time>2022-01-14T14:17:13Z</time>
      </trkpt>
      <trkpt lat="46.49311" lon="5.34828">
        <ele>236.2</ele>
        <time>2022-01-14T14:17:15Z</time>
      </trkpt>
      <trkpt lat="46.493" lon="5.34833">
        <ele>236.2</ele>
        <time>2022-01-14T14:17:17Z</time>
      </trkpt>
      <trkpt lat="46.49274" lon="5.34849">
        <ele>236.2</ele>
        <time>2022-01-14T14:17:22Z</time>
      </trkpt>
      <trkpt lat="46.49252" lon="5.34879">
        <ele>236.6</ele>
        <time>2022-01-14T14:17:27Z</time>
      </trkpt>
      <trkpt lat="46.49243" lon="5.34892">
        <ele>236.6</ele>
        <time>2022-01-14T14:17:29Z</time>
      </trkpt>
      <trkpt lat="46.49234" lon="5.34906">
        <ele>236.8</ele>
        <time>2022-01-14T14:17:31Z</time>
      </trkpt>
      <trkpt lat="46.49231" lon="5.34911">
        <ele>236.8</ele>
        <time>2022-01-14T14:17:32Z</time>
      </trkpt>
      <trkpt lat="46.49224" lon="5.34922">
        <ele>236.8</ele>
        <time>2022-01-14T14:17:34Z</time>
      </trkpt>
      <trkpt lat="46.49216" lon="5.34935">
        <ele>236.8</ele>
        <time>2022-01-14T14:17:36Z</time>
      </trkpt>
      <trkpt lat="46.49185" lon="5.3498">
        <ele>236.8</ele>
        <time>2022-01-14T14:17:43Z</time>
      </trkpt>
      <trkpt lat="46.4918" lon="5.34987">
        <ele>237</ele>
        <time>2022-01-14T14:17:44Z</time>
      </trkpt>
      <trkpt lat="46.49157" lon="5.35011">
        <ele>237.2</ele>
        <time>2022-01-14T14:17:49Z</time>
      </trkpt>
      <trkpt lat="46.49152" lon="5.35014">
        <ele>237.2</ele>
        <time>2022-01-14T14:17:50Z</time>
      </trkpt>
      <trkpt lat="46.49143" lon="5.35021">
        <ele>237.2</ele>
        <time>2022-01-14T14:17:52Z</time>
      </trkpt>
      <trkpt lat="46.49129" lon="5.3503">
        <ele>237.2</ele>
        <time>2022-01-14T14:17:55Z</time>
      </trkpt>
      <trkpt lat="46.491" lon="5.35057">
        <ele>237.8</ele>
        <time>2022-01-14T14:18:01Z</time>
      </trkpt>
      <trkpt lat="46.49085" lon="5.35068">
        <ele>238</ele>
        <time>2022-01-14T14:18:04Z</time>
      </trkpt>
      <trkpt lat="46.49072" lon="5.3508">
        <ele>238.4</ele>
        <time>2022-01-14T14:18:07Z</time>
      </trkpt>
      <trkpt lat="46.49062" lon="5.35086">
        <ele>238.8</ele>
        <time>2022-01-14T14:18:09Z</time>
      </trkpt>
      <trkpt lat="46.49033" lon="5.35116">
        <ele>239.4</ele>
        <time>2022-01-14T14:18:15Z</time>
      </trkpt>
      <trkpt lat="46.49029" lon="5.35122">
        <ele>239.4</ele>
        <time>2022-01-14T14:18:16Z</time>
      </trkpt>
      <trkpt lat="46.4901" lon="5.35169">
        <ele>239.6</ele>
        <time>2022-01-14T14:18:22Z</time>
      </trkpt>
      <trkpt lat="46.48982" lon="5.35233">
        <ele>239.6</ele>
        <time>2022-01-14T14:18:29Z</time>
      </trkpt>
      <trkpt lat="46.48952" lon="5.35302">
        <ele>238.4</ele>
        <time>2022-01-14T14:18:36Z</time>
      </trkpt>
      <trkpt lat="46.48922" lon="5.3537">
        <ele>238</ele>
        <time>2022-01-14T14:18:43Z</time>
      </trkpt>
      <trkpt lat="46.48898" lon="5.35423">
        <ele>237.8</ele>
        <time>2022-01-14T14:18:49Z</time>
      </trkpt>
      <trkpt lat="46.48872" lon="5.35483">
        <ele>238.8</ele>
        <time>2022-01-14T14:18:56Z</time>
      </trkpt>
      <trkpt lat="46.48842" lon="5.35548">
        <ele>239.4</ele>
        <time>2022-01-14T14:19:04Z</time>
      </trkpt>
      <trkpt lat="46.48812" lon="5.35617">
        <ele>239.6</ele>
        <time>2022-01-14T14:19:12Z</time>
      </trkpt>
      <trkpt lat="46.48804" lon="5.35634">
        <ele>239.6</ele>
        <time>2022-01-14T14:19:14Z</time>
      </trkpt>
      <trkpt lat="46.48774" lon="5.35701">
        <ele>239.6</ele>
        <time>2022-01-14T14:19:22Z</time>
      </trkpt>
      <trkpt lat="46.48767" lon="5.35718">
        <ele>239.4</ele>
        <time>2022-01-14T14:19:24Z</time>
      </trkpt>
      <trkpt lat="46.48738" lon="5.35785">
        <ele>239.4</ele>
        <time>2022-01-14T14:19:32Z</time>
      </trkpt>
      <trkpt lat="46.48735" lon="5.35793">
        <ele>239.4</ele>
        <time>2022-01-14T14:19:33Z</time>
      </trkpt>
      <trkpt lat="46.48711" lon="5.35846">
        <ele>240</ele>
        <time>2022-01-14T14:19:40Z</time>
      </trkpt>
      <trkpt lat="46.48691" lon="5.35898">
        <ele>240.4</ele>
        <time>2022-01-14T14:19:47Z</time>
      </trkpt>
      <trkpt lat="46.48682" lon="5.35937">
        <ele>241.2</ele>
        <time>2022-01-14T14:19:52Z</time>
      </trkpt>
      <trkpt lat="46.48681" lon="5.35947">
        <ele>241.4</ele>
        <time>2022-01-14T14:19:53Z</time>
      </trkpt>
      <trkpt lat="46.48676" lon="5.35978">
        <ele>242.2</ele>
        <time>2022-01-14T14:19:57Z</time>
      </trkpt>
      <trkpt lat="46.48672" lon="5.36002">
        <ele>242.8</ele>
        <time>2022-01-14T14:20:00Z</time>
      </trkpt>
      <trkpt lat="46.4866" lon="5.36058">
        <ele>243</ele>
        <time>2022-01-14T14:20:06Z</time>
      </trkpt>
      <trkpt lat="46.48645" lon="5.36136">
        <ele>241.2</ele>
        <time>2022-01-14T14:20:13Z</time>
      </trkpt>
      <trkpt lat="46.48644" lon="5.36146">
        <ele>241</ele>
        <time>2022-01-14T14:20:14Z</time>
      </trkpt>
      <trkpt lat="46.48639" lon="5.36209">
        <ele>241</ele>
        <time>2022-01-14T14:20:20Z</time>
      </trkpt>
      <trkpt lat="46.4863" lon="5.36279">
        <ele>241.4</ele>
        <time>2022-01-14T14:20:28Z</time>
      </trkpt>
      <trkpt lat="46.48627" lon="5.36292">
        <ele>241.8</ele>
        <time>2022-01-14T14:20:30Z</time>
      </trkpt>
      <trkpt lat="46.48622" lon="5.36306">
        <ele>242.2</ele>
        <time>2022-01-14T14:20:32Z</time>
      </trkpt>
      <trkpt lat="46.48615" lon="5.36314">
        <ele>242.4</ele>
        <time>2022-01-14T14:20:34Z</time>
      </trkpt>
      <trkpt lat="46.48606" lon="5.36319">
        <ele>243</ele>
        <time>2022-01-14T14:20:36Z</time>
      </trkpt>
      <trkpt lat="46.48597" lon="5.36321">
        <ele>243.4</ele>
        <time>2022-01-14T14:20:38Z</time>
      </trkpt>
      <trkpt lat="46.48573" lon="5.36326">
        <ele>244.6</ele>
        <time>2022-01-14T14:20:43Z</time>
      </trkpt>
      <trkpt lat="46.48551" lon="5.3633">
        <ele>245.6</ele>
        <time>2022-01-14T14:20:48Z</time>
      </trkpt>
      <trkpt lat="46.48526" lon="5.36334">
        <ele>246.4</ele>
        <time>2022-01-14T14:20:53Z</time>
      </trkpt>
      <trkpt lat="46.48515" lon="5.36335">
        <ele>246.6</ele>
        <time>2022-01-14T14:20:55Z</time>
      </trkpt>
      <trkpt lat="46.48479" lon="5.36341">
        <ele>247.6</ele>
        <time>2022-01-14T14:21:02Z</time>
      </trkpt>
      <trkpt lat="46.48468" lon="5.36342">
        <ele>247.8</ele>
        <time>2022-01-14T14:21:04Z</time>
      </trkpt>
      <trkpt lat="46.48425" lon="5.36352">
        <ele>248.4</ele>
        <time>2022-01-14T14:21:12Z</time>
      </trkpt>
      <trkpt lat="46.48393" lon="5.36373">
        <ele>248.2</ele>
        <time>2022-01-14T14:21:18Z</time>
      </trkpt>
      <trkpt lat="46.4836" lon="5.36408">
        <ele>248.8</ele>
        <time>2022-01-14T14:21:25Z</time>
      </trkpt>
      <trkpt lat="46.48322" lon="5.3645">
        <ele>250</ele>
        <time>2022-01-14T14:21:34Z</time>
      </trkpt>
      <trkpt lat="46.48299" lon="5.36476">
        <ele>251.2</ele>
        <time>2022-01-14T14:21:40Z</time>
      </trkpt>
      <trkpt lat="46.48287" lon="5.36489">
        <ele>251.8</ele>
        <time>2022-01-14T14:21:43Z</time>
      </trkpt>
      <trkpt lat="46.48272" lon="5.36505">
        <ele>252.2</ele>
        <time>2022-01-14T14:21:47Z</time>
      </trkpt>
      <trkpt lat="46.48247" lon="5.36533">
        <ele>253</ele>
        <time>2022-01-14T14:21:54Z</time>
      </trkpt>
      <trkpt lat="46.48235" lon="5.36545">
        <ele>253.2</ele>
        <time>2022-01-14T14:21:57Z</time>
      </trkpt>
      <trkpt lat="46.48228" lon="5.36552">
        <ele>254</ele>
        <time>2022-01-14T14:21:59Z</time>
      </trkpt>
      <trkpt lat="46.4822" lon="5.36556">
        <ele>254.2</ele>
        <time>2022-01-14T14:22:01Z</time>
      </trkpt>
      <trkpt lat="46.48206" lon="5.36554">
        <ele>254.6</ele>
        <time>2022-01-14T14:22:04Z</time>
      </trkpt>
      <trkpt lat="46.48201" lon="5.36554">
        <ele>254.8</ele>
        <time>2022-01-14T14:22:05Z</time>
      </trkpt>
      <trkpt lat="46.48197" lon="5.36557">
        <ele>254.8</ele>
        <time>2022-01-14T14:22:06Z</time>
      </trkpt>
      <trkpt lat="46.4819" lon="5.36566">
        <ele>254.8</ele>
        <time>2022-01-14T14:22:08Z</time>
      </trkpt>
      <trkpt lat="46.48187" lon="5.36579">
        <ele>255.2</ele>
        <time>2022-01-14T14:22:10Z</time>
      </trkpt>
      <trkpt lat="46.48183" lon="5.36593">
        <ele>255.2</ele>
        <time>2022-01-14T14:22:12Z</time>
      </trkpt>
      <trkpt lat="46.48177" lon="5.36605">
        <ele>255.4</ele>
        <time>2022-01-14T14:22:14Z</time>
      </trkpt>
      <trkpt lat="46.4817" lon="5.36614">
        <ele>255.4</ele>
        <time>2022-01-14T14:22:16Z</time>
      </trkpt>
      <trkpt lat="46.48162" lon="5.36623">
        <ele>255.6</ele>
        <time>2022-01-14T14:22:18Z</time>
      </trkpt>
      <trkpt lat="46.48158" lon="5.36627">
        <ele>255.6</ele>
        <time>2022-01-14T14:22:19Z</time>
      </trkpt>
      <trkpt lat="46.48141" lon="5.36649">
        <ele>256</ele>
        <time>2022-01-14T14:22:24Z</time>
      </trkpt>
      <trkpt lat="46.48124" lon="5.36667">
        <ele>256.4</ele>
        <time>2022-01-14T14:22:28Z</time>
      </trkpt>
      <trkpt lat="46.48116" lon="5.36676">
        <ele>256.6</ele>
        <time>2022-01-14T14:22:31Z</time>
      </trkpt>
      <trkpt lat="46.4811" lon="5.36684">
        <ele>256.8</ele>
        <time>2022-01-14T14:22:33Z</time>
      </trkpt>
      <trkpt lat="46.48105" lon="5.36694">
        <ele>257.2</ele>
        <time>2022-01-14T14:22:36Z</time>
      </trkpt>
      <trkpt lat="46.48105" lon="5.367">
        <ele>257.4</ele>
        <time>2022-01-14T14:22:37Z</time>
      </trkpt>
      <trkpt lat="46.4811" lon="5.36709">
        <ele>257.6</ele>
        <time>2022-01-14T14:22:39Z</time>
      </trkpt>
      <trkpt lat="46.48118" lon="5.36716">
        <ele>257.8</ele>
        <time>2022-01-14T14:22:41Z</time>
      </trkpt>
      <trkpt lat="46.48144" lon="5.36737">
        <ele>259</ele>
        <time>2022-01-14T14:22:48Z</time>
      </trkpt>
      <trkpt lat="46.48148" lon="5.3674">
        <ele>259</ele>
        <time>2022-01-14T14:22:49Z</time>
      </trkpt>
      <trkpt lat="46.4816" lon="5.36749">
        <ele>260</ele>
        <time>2022-01-14T14:22:52Z</time>
      </trkpt>
      <trkpt lat="46.48173" lon="5.3676">
        <ele>261</ele>
        <time>2022-01-14T14:22:56Z</time>
      </trkpt>
      <trkpt lat="46.4819" lon="5.36773">
        <ele>262</ele>
        <time>2022-01-14T14:23:01Z</time>
      </trkpt>
      <trkpt lat="46.48206" lon="5.36786">
        <ele>263</ele>
        <time>2022-01-14T14:23:06Z</time>
      </trkpt>
      <trkpt lat="46.48209" lon="5.36788">
        <ele>263.2</ele>
        <time>2022-01-14T14:23:07Z</time>
      </trkpt>
      <trkpt lat="46.48224" lon="5.368">
        <ele>264.2</ele>
        <time>2022-01-14T14:23:12Z</time>
      </trkpt>
      <trkpt lat="46.48227" lon="5.36802">
        <ele>264.4</ele>
        <time>2022-01-14T14:23:13Z</time>
      </trkpt>
      <trkpt lat="46.48244" lon="5.36817">
        <ele>265.4</ele>
        <time>2022-01-14T14:23:19Z</time>
      </trkpt>
      <trkpt lat="46.48247" lon="5.36819">
        <ele>265.4</ele>
        <time>2022-01-14T14:23:20Z</time>
      </trkpt>
      <trkpt lat="46.48258" lon="5.36831">
        <ele>266.6</ele>
        <time>2022-01-14T14:23:24Z</time>
      </trkpt>
      <trkpt lat="46.48263" lon="5.36836">
        <ele>267.2</ele>
        <time>2022-01-14T14:23:26Z</time>
      </trkpt>
    </trkseg>
  </trk>
</gpx>